GFSMA_500_spd_000.txt.gz
Wind_Speed
38 38 40 43 42 41 42 40 37 37 36 35 34 35 35 34 36 37 37 34 36 37 37 38 39 38 39 39 39 37 36 33 30 28 26 31 28 29 40 51 47 47 44
41 42 45 45 43 42 40 37 38 38 39 39 37 35 35 37 37 36 40 38 37 40 42 41 42 42 42 44 44 43 43 41 37 34 30 32 30 30 26 38 48 50 45
45 45 46 43 41 40 40 42 41 40 40 40 40 42 42 38 39 41 40 43 41 41 42 44 42 42 43 45 47 47 48 46 43 41 37 35 34 32 30 32 39 47 51
44 45 45 45 44 44 47 48 49 49 50 51 50 50 48 48 47 45 46 47 49 45 45 47 48 48 45 44 46 49 51 50 48 46 44 41 40 37 36 32 36 40 50
50 50 50 49 48 50 53 54 55 55 56 56 57 58 59 61 60 58 55 53 51 54 55 50 51 54 54 52 48 47 49 52 53 51 50 48 46 44 38 38 41 35 40
52 53 53 55 56 59 60 61 62 62 62 63 63 62 63 63 65 68 70 67 64 62 60 61 60 57 57 60 59 54 52 52 54 56 55 53 51 49 46 44 42 44 41
54 57 59 60 62 65 67 67 66 66 67 68 69 69 69 69 71 69 70 74 75 72 73 70 67 69 65 62 63 62 59 57 56 56 58 58 57 56 53 50 48 48 45
53 55 60 65 68 65 68 72 76 76 74 73 74 74 74 73 72 72 73 74 74 78 77 79 79 77 75 72 68 65 67 64 61 60 61 61 61 61 60 58 56 55 53
58 59 64 70 76 73 73 78 77 77 78 77 76 77 78 77 75 72 70 69 70 67 65 64 76 82 82 81 77 69 68 67 66 63 64 64 63 63 65 65 63 61 60
65 68 73 77 76 76 76 77 79 79 80 78 78 78 78 78 77 80 74 70 68 70 73 57 59 62 69 85 86 78 68 67 67 68 66 66 66 66 65 68 67 67 65
71 74 75 77 78 78 78 78 79 78 79 81 81 80 80 82 83 85 83 80 76 74 73 62 60 64 62 78 83 88 70 67 66 67 67 67 68 68 67 68 70 70 69
76 76 77 78 80 81 80 83 82 82 83 85 86 86 86 86 86 89 91 87 85 81 82 78 77 68 69 73 73 82 79 67 65 66 64 68 68 69 69 69 70 72 73
77 76 77 78 79 80 84 87 88 94 97 94 91 90 90 91 91 91 93 92 87 84 83 85 81 78 57 59 60 68 81 76 66 68 68 69 70 70 72 72 71 71 74
78 80 80 82 82 84 88 94 94 98 96 92 88 87 84 79 75 71 70 71 66 68 68 70 74 79 82 72 67 68 75 82 82 81 72 70 72 73 73 74 73 72 73
80 83 84 83 86 90 91 92 93 91 85 76 69 64 59 55 53 52 50 46 44 40 36 41 47 57 75 75 83 77 85 82 90 80 77 74 74 74 75 77 75 74 74
81 85 88 90 90 90 89 86 80 70 62 54 51 49 48 47 46 43 42 46 45 44 41 39 39 39 45 60 57 58 64 81 87 87 81 80 78 74 74 75 78 78 76
81 83 85 87 87 83 76 67 60 53 48 46 48 51 50 50 49 49 48 45 41 44 46 44 42 43 44 48 65 68 72 68 67 70 73 75 78 76 73 75 77 78 80
81 82 83 80 74 66 59 54 49 49 49 49 49 49 49 48 48 48 49 49 47 44 43 42 48 49 45 49 56 54 55 65 75 72 67 64 68 71 72 75 76 78 80
81 82 77 69 60 55 50 50 50 53 53 53 54 54 53 53 52 53 52 50 48 45 42 40 39 43 47 46 50 50 51 53 59 65 68 64 64 67 68 72 76 77 77
78 73 65 58 51 48 50 51 53 56 57 56 55 54 54 55 55 56 55 54 51 46 42 40 38 40 42 45 49 49 49 48 48 49 51 55 56 55 56 64 71 73 74
70 62 56 49 49 51 52 55 57 57 55 52 50 50 50 50 51 53 55 54 52 49 44 39 36 37 39 41 45 48 49 50 50 50 51 50 50 51 52 57 64 70 75
61 51 45 46 49 52 55 57 55 52 50 49 47 44 44 44 45 48 50 50 50 49 45 40 37 35 35 37 39 42 44 47 48 51 52 51 53 53 53 53 55 62 69
46 42 44 47 49 54 57 56 51 51 49 48 46 44 41 40 39 41 43 42 43 45 45 41 38 35 34 34 36 38 39 41 45 48 50 51 52 53 53 54 53 53 57
41 42 46 48 50 54 56 55 52 51 48 44 42 40 39 38 38 37 35 34 36 39 40 40 36 36 35 36 36 37 39 42 44 46 49 51 52 53 55 56 57 57 56
41 43 45 48 52 53 52 51 49 46 41 38 38 39 39 37 34 31 29 27 29 33 34 35 35 34 34 33 33 33 34 37 38 41 45 49 48 51 52 55 56 58 61
41 42 43 47 50 51 50 47 43 40 38 36 35 33 31 27 23 24 23 22 23 27 28 30 30 29 28 26 26 24 26 27 29 32 39 45 43 45 45 47 50 53 57

GFSMA_500_spd_006.txt.gz
Wind_Speed
36 38 39 40 39 38 37 36 34 32 30 28 28 31 33 34 34 35 35 33 32 32 35 34 32 32 35 37 37 37 37 36 36 34 31 28 28 30 25 23 27 39 40
38 41 43 44 42 40 39 38 36 35 33 34 34 35 36 37 39 41 43 42 42 42 40 39 39 38 37 37 38 41 42 41 41 39 39 38 34 32 31 31 28 26 23
43 44 42 41 41 41 42 44 44 42 40 39 40 42 44 45 44 45 46 47 47 46 46 46 46 45 43 42 42 43 43 46 45 44 43 42 42 40 36 33 35 29 28
47 41 41 42 44 45 45 46 48 49 50 51 51 52 52 53 52 51 51 51 53 54 51 48 48 49 51 48 47 48 48 46 47 47 47 46 45 43 43 38 36 36 36
49 48 48 48 48 48 49 52 53 55 57 57 58 59 60 60 61 62 61 58 56 57 59 58 54 53 52 53 53 52 53 54 51 50 49 48 47 48 44 44 43 42 38
50 50 51 52 54 56 56 57 59 61 64 65 65 66 67 68 69 70 71 71 68 66 64 65 65 64 61 59 58 58 56 58 58 57 54 52 52 50 50 49 48 46 42
52 55 56 59 60 61 63 65 67 69 71 73 73 73 73 72 73 75 76 76 78 78 76 73 72 72 71 71 69 67 64 60 60 62 62 60 57 56 54 53 53 51 48
58 60 63 66 68 70 72 73 74 75 77 78 78 79 79 78 78 79 80 81 81 80 80 81 80 80 80 78 75 75 74 69 66 64 65 66 65 61 59 57 57 57 54
64 67 69 72 74 76 79 81 82 82 82 82 84 85 84 85 86 83 80 80 80 80 81 81 83 82 82 84 83 78 78 78 75 68 67 69 69 68 65 62 61 60 61
69 71 74 77 81 82 84 84 84 84 84 84 86 86 87 88 88 87 85 82 81 81 80 80 81 83 84 84 83 82 74 75 77 75 70 66 70 72 71 68 66 66 63
73 76 78 80 81 82 81 80 81 83 85 86 87 88 88 88 87 88 85 82 82 81 84 84 85 86 87 87 85 84 78 72 75 78 74 69 68 71 70 74 73 71 69
76 78 82 85 87 83 81 81 81 82 83 84 85 87 87 89 90 91 93 87 88 85 87 91 93 93 94 94 91 88 85 78 76 75 69 68 69 70 70 73 73 75 73
85 84 84 84 83 84 84 84 85 86 87 87 87 88 89 90 92 92 95 95 94 92 92 95 97 98 98 98 97 96 93 87 77 75 71 60 61 61 61 63 70 76 76
87 87 86 85 85 86 88 89 90 89 86 87 87 86 84 81 78 75 71 69 69 69 66 66 66 71 76 82 85 90 93 92 87 79 71 68 63 64 65 66 69 71 77
86 86 89 90 90 89 89 85 79 83 80 76 73 68 66 63 58 55 51 50 50 52 49 44 45 47 51 54 58 64 74 81 80 79 74 70 73 67 60 67 66 67 72
85 88 90 90 85 82 69 69 76 76 66 63 61 59 54 49 47 47 49 50 49 49 49 41 42 43 45 44 43 45 51 60 69 75 76 78 69 66 67 65 66 70 75
86 88 85 80 76 61 68 72 72 59 50 47 46 46 47 49 51 52 53 53 53 53 55 48 45 43 46 46 47 45 40 42 49 66 73 89 77 69 62 60 68 64 70
87 81 73 73 62 62 67 61 63 49 46 45 46 48 50 52 55 56 57 56 56 56 58 55 53 49 46 49 51 47 45 42 39 45 55 74 95 94 61 66 69 75 75
82 66 69 63 64 68 63 63 56 51 51 51 52 54 57 57 54 52 50 51 51 53 55 58 58 57 52 48 49 49 46 48 40 35 41 49 70 79 73 67 66 70 72
72 68 57 54 65 62 60 54 51 51 52 55 58 58 54 51 50 50 48 46 46 47 48 49 52 58 58 55 50 49 50 47 52 44 47 47 48 61 81 89 73 71 73
66 55 49 58 57 52 47 47 48 50 55 56 53 49 48 47 47 48 48 47 46 44 44 45 44 51 56 57 55 51 49 50 50 53 52 53 50 46 47 58 69 67 80
58 46 51 51 42 42 45 46 48 54 53 49 44 43 41 40 41 42 42 42 40 40 43 45 42 43 50 54 55 51 48 48 50 48 53 56 54 54 46 45 56 55 53
41 35 35 33 35 41 43 44 51 50 48 43 41 41 41 42 42 39 40 37 36 36 36 38 39 38 42 49 51 47 46 47 46 46 47 53 55 52 55 56 55 48 51
32 28 27 31 37 40 42 48 50 48 42 39 41 42 43 42 40 38 36 30 31 33 33 33 33 34 37 41 43 43 44 41 40 40 43 43 51 50 51 51 51 50 55
27 29 28 32 38 41 43 50 46 42 37 38 40 42 42 39 35 33 31 23 21 26 30 31 30 29 31 36 38 39 39 37 35 36 39 38 41 43 47 49 51 53 55
31 31 32 35 40 42 45 48 44 38 33 34 37 39 39 36 30 25 25 20 16 18 19 21 23 23 26 30 33 35 34 34 32 32 36 35 38 40 42 44 48 50 52

GFSMA_500_spd_009.txt.gz
Wind_Speed
31 33 38 37 36 34 32 32 34 33 32 31 31 31 32 35 37 37 37 37 37 37 35 34 33 33 33 34 36 36 37 36 34 33 31 29 30 27 29 26 27 35 36
38 38 39 38 37 36 36 36 37 36 35 35 35 35 37 37 39 41 43 42 43 43 45 45 44 41 39 38 38 38 39 40 40 38 38 38 36 34 32 30 30 28 28
37 42 42 36 39 40 40 40 42 44 44 43 43 43 44 45 46 47 48 49 49 47 47 46 48 50 49 45 44 44 43 42 43 45 44 43 42 41 38 36 33 33 30
46 46 40 40 40 42 42 43 46 47 48 49 49 50 51 53 55 56 57 57 57 55 55 54 52 50 50 53 51 50 49 48 47 45 47 48 47 45 44 43 40 37 37
48 44 43 44 46 46 48 49 50 51 53 55 56 58 60 62 63 62 63 63 64 65 65 64 62 61 59 57 58 56 52 53 53 52 50 49 49 50 49 48 47 44 41
47 48 49 50 51 52 54 55 56 58 61 62 63 64 66 68 70 70 71 71 71 71 71 71 71 71 70 67 64 64 63 58 56 57 55 53 53 52 51 51 51 48 47
48 49 52 56 59 61 62 63 64 65 66 68 71 72 73 74 76 77 77 76 76 77 78 79 79 78 77 75 75 73 71 69 65 61 59 58 58 57 56 55 53 54 50
54 57 60 64 67 69 70 72 74 75 75 77 78 78 78 77 77 79 81 81 81 80 81 83 84 85 85 84 80 78 78 77 75 70 64 64 62 62 62 59 57 56 56
60 64 67 70 73 76 77 78 81 82 83 82 82 82 81 81 80 77 80 83 84 84 85 85 86 87 86 86 86 84 81 80 79 77 74 67 65 66 66 65 63 60 59
66 70 73 76 78 81 81 82 84 86 85 85 83 82 83 86 87 91 88 83 84 87 88 87 86 86 87 86 86 85 84 83 81 80 77 77 72 68 70 70 68 67 64
69 72 76 79 82 84 87 88 87 85 85 85 86 87 88 89 92 94 91 90 89 89 91 90 89 88 88 88 87 86 84 81 84 82 80 78 76 70 70 70 72 72 71
72 79 86 86 88 90 89 89 89 90 90 91 91 90 92 92 93 94 96 95 95 95 96 97 97 96 93 90 90 88 86 84 82 81 78 78 76 71 72 68 69 74 74
84 86 88 90 90 90 90 90 91 92 94 92 91 89 86 84 83 82 85 85 87 86 89 92 94 95 97 98 94 93 90 89 87 86 85 79 78 77 75 69 65 68 74
87 90 92 92 93 95 98 97 98 97 90 87 85 73 74 78 79 67 63 64 62 60 58 58 62 68 72 77 85 90 91 92 90 87 88 86 83 81 77 74 69 67 71
91 93 95 95 96 96 99 96 90 84 85 80 68 71 79 53 50 48 48 48 49 47 43 44 43 45 48 52 57 61 68 73 79 83 82 88 86 82 80 64 67 72 71
94 94 95 94 96 95 87 79 80 74 74 68 72 74 72 54 54 52 50 49 50 51 47 49 46 45 46 47 49 48 47 50 54 61 70 74 80 82 75 73 74 75 71
94 94 95 96 91 83 76 72 74 71 62 68 74 59 50 53 54 54 55 56 56 57 56 54 53 51 50 50 48 48 47 44 42 44 51 58 67 75 80 84 80 75 73
94 96 98 88 77 73 67 63 58 55 60 71 51 51 52 54 56 58 57 56 56 56 59 57 55 53 55 54 53 51 50 47 42 41 38 42 49 71 81 94 91 83 81
96 98 90 77 67 61 57 55 61 64 54 50 51 52 55 57 54 50 49 49 50 51 52 54 52 50 53 55 57 56 54 50 48 43 40 36 39 51 67 80 84 86 81
101 94 75 61 56 51 46 49 42 42 48 49 53 54 53 49 45 41 43 44 44 44 48 51 52 50 50 50 57 60 59 54 50 45 41 40 33 41 55 74 84 86 80
91 73 56 50 45 38 36 37 43 46 47 53 51 52 47 43 45 46 46 47 47 47 45 48 50 50 50 48 50 56 60 57 51 46 44 44 38 48 53 53 79 87 90
72 54 44 39 31 28 33 40 44 46 50 52 50 48 43 44 46 48 49 48 47 45 44 45 44 43 48 46 47 49 54 58 51 48 45 46 49 49 50 49 46 59 74
53 42 36 32 33 33 36 42 47 46 52 50 48 44 41 44 46 47 46 43 42 40 41 35 35 36 39 43 45 43 46 53 51 49 47 47 51 53 54 51 51 47 48
44 37 35 35 35 36 39 43 47 47 53 47 44 39 40 41 43 44 42 39 36 36 34 28 29 30 32 37 41 41 41 45 45 45 47 45 49 51 55 56 56 48 46
38 34 35 37 36 37 40 44 46 46 48 42 39 37 38 38 41 43 38 35 32 30 26 22 24 29 29 31 34 35 36 39 38 42 45 42 44 48 48 48 57 54 49
34 33 36 37 36 37 40 44 44 47 42 39 34 34 34 36 39 40 37 32 28 23 18 15 15 21 25 27 29 29 30 31 35 38 39 36 39 38 41 41 46 52 53

GFSMA_500_spd_015.txt.gz
Wind_Speed
31 33 34 34 32 32 37 43 45 40 38 36 35 35 34 34 34 34 34 33 32 33 33 33 35 37 37 36 35 36 36 35 34 33 34 34 35 32 28 30 33 30 31
29 30 33 35 34 37 41 46 43 40 38 37 37 38 38 39 39 39 39 40 40 40 40 40 40 41 42 43 42 41 41 41 40 39 36 36 36 37 35 34 32 27 35
30 35 32 37 39 43 43 43 41 39 40 42 44 45 46 46 46 47 46 47 47 48 48 48 49 49 49 48 49 49 47 47 47 45 44 42 40 39 41 41 37 32 32
34 35 42 46 45 49 46 44 43 46 48 50 52 52 54 54 54 54 55 56 57 58 58 58 58 57 57 57 57 55 55 53 53 54 51 48 48 47 45 44 42 40 39
46 46 49 50 47 46 45 47 50 53 55 57 58 60 61 62 63 64 65 66 67 68 68 68 67 68 67 67 66 65 63 61 59 58 58 57 54 51 50 48 46 47 46
47 46 46 45 46 46 50 54 57 58 60 62 65 68 70 72 73 72 72 73 74 75 76 77 78 77 76 75 73 73 72 70 68 65 63 63 61 58 55 54 53 50 50
44 45 46 47 49 53 59 62 64 66 68 70 73 75 75 76 74 76 79 81 82 82 83 84 85 86 85 83 81 79 78 77 77 75 72 70 68 66 63 60 59 57 55
44 46 48 52 57 62 65 64 67 69 72 74 77 80 81 82 82 84 86 87 88 87 88 89 90 91 92 93 92 89 85 82 82 81 80 79 76 72 71 68 65 63 61
50 53 56 60 63 63 63 67 70 73 77 81 87 90 92 95 97 96 95 97 99 98 95 93 91 90 90 90 93 95 94 92 87 85 84 83 83 81 76 74 72 69 66
55 57 60 62 62 66 70 74 76 82 86 89 94 98 102 105 105 105 103 103 100 97 96 95 96 97 97 97 96 92 92 94 95 91 89 87 86 86 84 78 77 76 71
57 60 61 63 68 72 76 80 84 88 92 96 98 100 102 105 103 100 94 87 84 81 82 84 86 90 95 98 100 101 98 95 95 96 94 92 90 87 87 84 80 79 78
60 61 65 70 74 77 82 87 91 93 95 100 103 104 102 96 88 79 82 82 73 63 65 67 67 69 72 74 84 93 97 100 99 97 97 97 94 90 88 88 85 82 81
64 67 71 75 79 83 88 91 93 97 101 104 101 95 89 80 72 68 67 65 61 53 50 51 50 50 52 51 53 60 69 80 92 99 97 97 99 93 90 88 87 86 83
67 71 75 78 83 87 90 94 99 103 103 100 91 80 69 62 58 56 52 52 48 44 35 40 43 45 48 50 46 44 47 52 60 74 87 93 96 97 91 90 89 88 84
71 75 80 84 86 90 96 99 102 101 95 83 72 61 54 44 36 38 44 49 51 47 42 41 43 45 46 50 47 44 41 40 46 54 64 76 89 93 94 90 90 90 86
76 80 83 85 89 94 98 103 99 91 78 65 52 42 32 37 40 45 44 48 54 52 47 45 44 44 46 46 48 48 45 41 40 42 50 58 67 78 90 91 90 90 87
80 83 86 89 94 97 101 97 86 72 56 44 35 35 37 41 43 46 48 54 50 52 54 40 44 40 39 41 42 44 48 48 45 41 41 44 50 62 73 84 90 89 88
83 86 89 92 98 100 93 82 67 51 40 35 36 37 40 44 47 47 52 48 48 46 46 42 42 42 43 42 41 39 43 47 50 47 44 43 40 46 62 74 80 87 88
85 87 90 96 98 92 79 66 50 39 36 37 38 39 43 47 48 51 48 47 41 43 46 46 43 44 44 45 45 43 40 41 46 51 49 45 44 40 44 61 75 80 83
85 89 96 99 91 77 65 51 40 35 36 38 39 42 45 50 48 51 47 41 40 43 45 49 48 48 44 42 42 43 44 42 41 46 50 49 46 42 41 45 56 71 80
90 96 98 90 76 65 52 42 34 34 37 37 39 42 47 48 49 48 45 38 40 44 48 49 48 45 40 37 37 39 41 42 39 42 47 50 48 45 41 42 44 51 64
94 95 89 75 65 54 42 36 33 36 37 36 38 41 44 46 49 45 39 38 40 46 47 47 44 40 37 32 31 34 37 40 41 41 46 49 49 47 43 41 41 40 45
94 87 74 65 55 43 36 34 34 35 34 36 39 42 42 45 46 41 34 36 42 45 47 46 40 36 31 30 31 33 36 38 39 41 45 45 48 49 46 42 42 37 32
84 73 65 56 45 36 33 32 33 33 35 37 40 40 43 44 43 35 32 35 41 42 44 42 36 31 26 24 25 26 27 30 35 39 42 43 44 49 50 45 41 36 31
73 66 57 47 38 34 33 32 33 34 34 36 38 40 41 42 39 31 29 33 38 39 42 38 31 25 21 18 17 13 14 17 24 31 36 37 39 44 51 48 45 41 37
67 59 49 40 35 33 32 31 31 32 34 35 38 39 40 40 34 28 27 31 35 36 38 35 28 22 18 13 9 10 10 12 18 25 30 32 36 39 49 53 48 47 46

GFSMA_500_spd_018.txt.gz
Wind_Speed
23 26 29 31 30 33 33 35 36 38 40 41 41 37 35 35 35 37 39 37 39 39 39 39 38 37 38 38 38 39 40 40 38 37 36 33 34 35 32 31 30 34 39
24 27 29 32 32 33 35 39 41 43 44 43 41 38 39 40 41 42 44 45 44 45 45 45 45 45 44 44 44 44 44 44 45 44 42 40 38 36 37 36 36 33 35
36 41 40 35 41 42 46 49 49 45 41 42 41 43 45 48 48 49 50 52 53 52 52 53 53 53 52 52 51 51 51 50 51 50 49 47 45 43 40 41 39 39 37
41 43 44 48 53 50 49 48 45 42 41 43 46 49 50 52 56 57 58 58 59 60 62 62 63 63 63 62 61 60 58 58 57 56 56 55 53 50 48 44 43 44 43
44 44 45 46 47 47 47 47 46 44 47 51 53 54 55 56 60 62 64 66 67 68 70 71 71 73 72 72 71 70 68 67 65 63 62 62 61 59 56 53 50 48 48
41 42 44 46 48 49 50 51 51 54 57 59 60 61 62 62 63 66 69 70 72 73 74 75 77 79 81 80 80 79 78 77 75 73 71 68 68 66 64 62 58 55 52
41 42 45 47 50 53 55 57 59 62 63 63 63 65 67 68 70 72 74 78 83 87 89 89 88 89 91 90 91 90 89 87 85 83 81 78 75 73 71 68 67 62 59
46 49 52 55 56 58 60 61 62 61 63 67 67 70 72 75 80 84 87 89 92 93 95 97 99 100 100 100 100 100 98 96 94 91 89 88 85 81 78 76 73 71 68
51 53 55 56 56 58 59 61 63 66 69 72 74 78 81 85 89 92 96 98 100 102 104 106 109 106 103 102 102 104 105 104 102 101 98 96 93 89 85 82 79 77 75
54 55 56 57 58 60 62 65 68 72 76 81 84 87 90 93 96 97 100 106 108 105 101 96 95 92 92 91 92 95 98 101 106 105 104 102 100 99 94 90 85 81 81
56 58 58 59 61 63 66 71 75 78 82 84 88 91 95 99 102 105 108 102 92 85 82 80 78 77 79 81 85 87 90 93 98 102 105 105 104 103 101 96 92 86 83
58 60 60 62 64 68 72 76 81 85 88 91 93 97 101 104 104 95 87 78 69 60 62 61 62 61 59 62 65 70 76 82 88 92 100 103 104 103 104 100 96 92 85
61 61 62 65 70 75 79 83 86 89 90 94 99 104 105 98 86 75 66 59 54 43 41 41 41 43 45 45 46 49 53 60 66 73 83 93 103 104 103 103 97 94 90
62 62 64 69 75 78 82 86 88 90 95 100 103 99 89 76 65 56 48 44 43 42 40 39 41 47 47 47 47 49 47 47 47 49 52 65 82 99 104 104 101 96 92
62 63 68 73 77 81 84 86 91 96 99 100 93 79 68 56 45 41 43 45 47 45 39 39 44 45 45 46 47 48 48 47 47 48 48 48 56 70 91 103 104 101 94
64 68 72 76 80 83 87 92 97 101 98 82 71 62 50 41 39 40 42 44 46 46 44 43 43 45 45 43 44 45 46 47 49 48 49 47 48 55 69 86 99 98 95
68 72 76 80 82 85 91 97 99 92 77 67 58 48 42 40 40 42 44 47 46 49 51 38 43 40 40 41 42 43 43 43 45 47 50 50 47 50 57 69 81 90 96
73 76 79 81 84 92 96 96 85 72 64 54 46 42 40 41 41 44 46 48 47 51 49 40 37 39 40 42 45 45 43 43 44 46 47 51 49 48 50 57 68 78 87
76 78 81 83 91 96 90 81 70 62 52 44 40 38 40 40 40 43 47 47 49 47 44 39 38 43 46 48 47 47 45 44 46 48 44 47 52 50 48 49 56 68 79
78 81 84 90 97 88 77 69 62 52 43 39 36 38 39 38 41 44 45 46 47 44 39 40 42 47 48 48 48 45 42 41 44 46 46 43 50 52 50 46 48 56 68
82 84 88 97 89 78 69 63 54 44 38 36 36 38 38 39 42 44 46 46 44 39 38 41 45 46 47 46 45 41 38 37 42 43 45 44 44 53 53 49 46 48 54
87 87 94 90 80 71 63 54 44 39 36 35 36 37 38 40 41 42 43 44 40 35 37 43 44 46 45 43 41 36 33 33 36 40 42 45 44 49 55 51 46 44 44
89 91 91 83 73 65 56 45 39 36 35 36 37 36 38 39 41 42 41 40 35 34 38 43 44 44 41 38 34 29 29 30 32 37 42 43 43 44 52 52 48 44 42
90 95 88 76 68 57 48 40 36 35 33 33 34 36 37 39 39 40 41 34 31 33 38 41 43 40 37 31 27 25 24 26 31 34 39 41 44 43 50 52 49 46 43
94 92 80 70 59 49 41 37 35 32 31 32 33 34 37 38 38 38 35 30 28 31 35 38 39 36 31 26 22 18 16 16 21 30 40 41 42 41 46 51 50 46 43
92 80 72 63 50 42 37 34 31 30 30 30 33 35 34 37 36 36 30 26 25 28 33 35 36 33 28 21 17 10 6 7 11 16 26 35 40 40 44 50 52 47 44

GFSMA_500_spd_021.txt.gz
Wind_Speed
27 32 29 24 36 32 40 43 39 38 37 39 41 43 43 40 38 37 41 39 39 42 41 40 41 41 41 41 42 42 43 42 42 42 39 36 35 36 36 37 35 34 30
26 29 32 52 48 38 41 45 45 49 49 48 49 47 42 40 41 41 42 47 45 45 46 46 45 46 47 47 47 47 48 49 49 47 46 44 41 40 40 39 38 38 36
46 33 39 43 43 41 45 47 51 47 47 45 45 44 42 42 43 45 47 48 51 53 53 53 54 54 53 53 53 54 54 54 54 55 54 51 49 47 45 44 42 39 39
45 42 41 42 42 42 42 43 45 46 47 50 50 47 48 49 52 55 58 59 60 58 65 64 61 61 63 64 64 63 62 62 62 62 61 60 57 54 52 50 48 46 42
41 40 40 40 40 41 44 45 48 51 53 52 54 54 57 59 61 63 65 69 69 69 70 70 74 71 72 72 73 73 73 72 71 70 69 67 67 64 60 57 55 53 51
42 44 41 41 44 47 50 53 55 56 56 56 56 56 57 59 61 63 64 68 70 71 73 72 72 77 80 80 81 83 84 83 81 79 78 76 74 73 70 64 62 60 57
46 47 50 51 52 52 55 56 57 57 58 59 60 59 59 62 65 69 73 74 75 78 81 83 85 85 87 89 91 91 92 93 92 91 89 86 83 80 79 76 69 66 64
48 50 50 53 55 53 54 57 59 58 58 58 61 63 64 66 70 74 77 81 84 86 87 90 93 97 98 98 100 103 106 103 102 102 100 98 94 91 87 85 81 74 70
50 51 53 54 55 57 59 59 59 57 60 62 67 70 74 76 79 80 83 85 88 91 94 99 101 103 105 106 108 108 110 109 109 110 109 106 105 102 98 94 91 86 78
51 53 57 57 59 60 59 58 60 61 66 70 73 77 81 82 84 86 90 93 96 100 104 104 102 99 94 93 94 96 99 98 101 105 110 113 112 110 107 103 99 95 89
56 58 60 61 62 63 61 62 63 68 72 76 81 83 85 87 91 95 97 100 103 99 88 84 78 72 69 70 71 72 77 81 83 87 94 102 108 110 111 110 106 103 98
60 60 61 65 66 64 64 67 71 75 78 82 83 86 91 94 98 101 101 94 84 71 63 57 53 52 52 53 52 54 56 60 64 68 73 84 95 104 108 111 109 106 104
62 61 65 66 66 67 70 72 76 80 82 84 86 93 97 99 97 91 81 73 63 49 42 43 46 49 51 52 50 47 45 46 47 49 56 63 72 88 101 106 110 107 105
63 63 65 66 66 69 73 76 80 84 87 90 94 99 95 89 81 74 66 58 48 42 41 42 43 47 50 51 51 49 48 47 49 48 45 48 50 60 76 93 102 107 105
63 64 66 67 68 71 75 80 84 85 92 97 104 93 83 76 70 61 54 49 47 44 40 41 44 47 49 50 49 47 47 47 47 49 47 47 47 46 53 66 84 97 104
63 65 66 68 71 76 79 83 84 89 97 103 90 80 72 65 57 50 47 46 47 47 46 45 45 48 49 48 47 44 44 43 44 45 48 49 50 48 48 50 59 75 89
64 65 67 70 74 78 82 84 90 92 103 90 77 71 62 53 47 44 44 45 45 47 50 45 45 47 47 45 42 42 41 41 42 43 44 45 48 50 49 48 47 55 66
64 66 68 72 76 80 87 89 95 99 93 76 69 60 51 45 42 42 44 43 44 47 51 47 43 45 42 41 41 43 45 46 45 45 48 46 45 47 50 49 46 47 56
66 68 70 74 78 82 89 95 102 95 77 68 59 49 43 40 40 42 42 44 46 48 46 46 44 41 37 39 43 46 48 47 45 44 46 47 49 44 46 50 50 45 48
70 72 74 75 78 86 93 98 102 83 69 60 49 43 40 39 39 40 43 45 46 45 45 46 41 36 37 42 46 48 47 45 43 42 41 43 49 43 43 46 51 48 45
73 75 78 76 84 91 93 98 89 75 63 51 44 41 40 39 39 41 44 44 46 45 44 43 37 35 41 45 47 48 46 43 38 37 36 38 44 42 45 44 49 49 45
75 79 78 82 89 96 93 87 79 66 53 45 41 39 39 39 39 40 40 42 43 43 42 38 35 37 43 45 46 44 42 38 32 33 34 35 42 42 44 44 46 50 46
76 78 79 84 92 96 84 80 69 57 47 42 40 37 36 38 39 41 41 42 41 41 37 33 34 40 42 42 41 38 37 34 29 27 31 33 40 43 43 45 43 49 47
76 77 82 87 91 92 79 68 59 48 43 39 36 35 36 38 39 40 39 40 39 36 33 31 35 39 41 40 36 35 33 30 25 23 27 31 35 38 41 41 37 45 46
74 79 86 87 86 84 68 59 49 42 39 37 36 36 35 39 39 39 39 36 35 32 29 29 34 36 38 35 31 30 28 20 16 18 24 30 33 35 37 38 34 42 46
78 82 78 82 75 70 60 51 44 41 39 36 36 35 34 35 37 38 36 33 30 29 26 28 32 34 35 32 28 26 22 12 11 13 16 21 31 33 33 35 36 41 47

GFSMA_500_spd_024.txt.gz
Wind_Speed
22 31 26 34 40 32 36 43 46 46 45 43 45 47 44 42 46 45 45 39 41 40 41 43 42 41 42 42 42 42 42 41 41 39 38 38 38 36 36 34 34 33 33
32 28 33 35 43 42 37 38 37 39 42 42 41 41 40 40 40 43 43 45 44 45 44 43 46 45 45 47 47 47 48 49 49 47 46 44 42 42 41 39 38 38 35
33 35 35 35 36 37 37 37 37 38 39 40 43 45 46 45 45 47 48 50 53 52 51 52 52 51 53 54 54 53 52 52 53 55 54 53 51 49 47 46 44 43 40
32 34 36 37 38 38 39 40 42 44 46 48 47 48 48 46 47 48 50 50 55 59 60 61 63 62 62 63 62 62 63 64 62 59 59 59 59 59 56 53 52 49 46
34 35 37 38 40 42 43 44 45 47 48 50 52 52 51 52 53 54 55 55 57 59 62 61 62 64 64 66 68 70 71 73 71 71 70 65 65 65 65 63 60 58 54
38 41 42 43 43 46 49 52 53 54 53 54 55 56 55 50 50 54 57 57 60 63 66 70 70 71 73 74 74 75 77 80 80 80 79 76 75 73 72 71 69 66 64
44 45 46 48 50 51 52 53 54 56 55 54 52 51 52 52 55 59 61 65 69 72 74 76 78 80 80 80 83 84 85 85 88 89 89 88 85 84 81 79 77 73 72
44 45 46 48 52 54 55 56 58 59 57 56 55 56 57 60 62 65 69 73 77 79 82 84 85 88 90 91 93 95 97 95 94 95 97 98 97 94 93 90 86 83 79
48 48 49 51 57 59 59 59 60 60 58 57 59 62 64 68 71 75 78 82 85 88 92 94 96 98 100 101 101 104 105 106 107 104 103 105 106 106 104 102 99 94 91
51 50 51 57 61 60 60 60 62 60 60 62 65 68 71 76 80 82 86 90 92 94 98 97 96 95 92 91 92 92 94 96 96 97 100 103 107 110 110 110 107 103 100
55 54 58 61 64 64 64 62 62 61 63 67 69 72 75 78 83 90 95 99 99 93 87 85 83 77 72 69 65 65 69 72 71 73 77 85 93 101 107 111 113 111 107
55 55 58 61 64 65 63 63 62 64 67 69 72 75 82 90 97 103 101 96 90 77 72 68 63 55 53 50 50 50 51 51 52 54 55 61 67 76 91 103 110 113 112
56 56 59 63 64 64 63 62 64 68 70 74 76 82 90 99 102 104 93 81 74 67 58 50 45 43 43 44 46 48 47 46 46 47 47 48 49 52 63 78 94 105 110
59 61 63 64 64 63 62 64 67 70 72 76 83 90 98 102 104 90 80 73 65 56 47 38 38 42 44 47 48 50 49 47 47 48 49 49 50 50 51 54 70 83 95
57 61 64 65 63 63 64 66 69 73 77 80 89 97 101 104 92 78 70 63 56 49 39 35 37 41 44 47 51 51 49 47 47 47 48 49 49 50 51 51 51 62 74
60 63 65 64 63 64 67 70 72 78 84 88 91 96 101 93 76 66 58 53 47 45 41 39 37 41 45 49 51 48 47 45 43 43 44 46 47 48 50 50 50 50 53
61 63 64 64 66 67 70 72 76 80 85 87 94 95 88 73 63 56 50 45 44 44 43 41 41 44 48 48 48 47 45 42 39 39 41 44 44 44 45 49 51 51 49
62 62 65 67 69 71 74 78 81 82 85 90 92 90 77 64 55 49 45 43 42 43 46 46 44 44 45 45 46 45 41 38 40 42 43 44 45 45 46 45 46 51 51
60 65 69 71 73 74 80 84 87 84 89 91 89 79 65 57 48 44 43 43 42 44 45 47 44 42 44 45 42 39 39 40 42 43 43 42 42 43 44 45 45 47 52
65 69 74 76 77 78 81 83 86 84 91 88 80 67 57 50 44 41 41 40 42 44 45 45 43 42 43 40 36 37 40 43 44 42 40 40 42 42 43 45 44 45 46
68 74 81 85 89 87 82 85 86 84 82 73 70 57 49 46 41 38 39 40 43 45 45 45 42 42 38 33 34 40 43 44 42 39 38 41 41 40 44 40 44 45 44
73 77 80 86 92 87 81 83 81 77 69 63 57 48 43 42 38 37 38 38 40 42 43 42 40 37 32 32 38 42 44 41 36 38 39 34 32 33 36 43 42 44 43
75 80 86 84 82 75 77 77 77 73 59 56 49 44 40 40 38 38 39 41 41 43 42 39 34 32 29 33 37 40 40 37 34 35 37 27 30 31 39 42 35 37 39
85 83 77 74 72 77 76 73 68 61 53 49 45 41 39 39 37 37 38 39 40 40 38 35 33 29 31 36 38 38 35 32 32 31 28 21 27 30 34 34 29 32 37
84 75 71 72 78 79 64 60 58 54 49 44 41 39 36 36 37 37 38 38 38 37 35 33 30 28 30 34 37 34 31 28 26 23 20 16 20 25 28 26 26 32 38
68 70 71 74 75 73 60 56 55 50 46 41 39 36 33 34 36 36 37 37 34 32 30 31 28 27 29 32 35 32 28 25 21 19 18 15 13 15 21 22 24 30 36

GFSMA_500_spd_027.txt.gz
Wind_Speed
15 24 26 23 26 28 27 28 29 31 32 35 35 36 37 39 39 40 41 39 39 42 44 43 41 41 40 40 41 41 40 40 40 40 40 39 38 37 36 34 34 35 34
18 20 23 21 24 26 28 29 30 31 33 36 38 40 42 43 43 45 46 47 46 46 45 45 48 46 46 47 47 47 46 46 45 46 45 45 44 43 41 40 39 38 38
18 18 21 24 26 28 30 32 32 35 37 39 40 41 42 43 44 45 45 45 45 45 44 46 46 50 54 56 57 55 53 54 53 54 54 53 50 49 48 47 46 43 42
20 23 25 28 30 33 34 36 38 40 43 45 47 49 52 51 46 44 45 46 47 48 49 49 50 50 50 53 56 56 58 61 60 60 61 61 61 59 56 54 53 52 48
25 28 31 34 36 38 38 39 43 46 49 50 51 51 52 49 45 46 45 46 48 51 53 55 56 58 58 59 60 61 64 67 68 70 69 68 65 66 66 64 61 59 57
31 33 36 39 41 41 43 46 48 51 51 51 52 52 51 48 44 47 48 50 54 57 61 65 67 69 70 71 71 71 71 73 74 76 77 78 75 73 74 73 71 68 64
38 39 40 42 44 44 46 49 51 52 54 54 54 53 51 49 49 52 54 56 60 64 69 73 76 78 81 83 84 85 84 83 83 83 84 83 83 83 81 81 80 78 75
43 45 47 48 50 50 51 53 54 57 57 57 57 56 52 51 54 58 60 62 67 71 77 82 87 91 93 95 96 97 95 94 94 94 94 95 93 92 89 87 86 87 85
47 50 50 51 53 53 52 54 56 57 58 57 57 56 55 58 61 64 67 68 73 79 84 90 99 103 102 98 93 91 93 96 97 98 99 100 102 102 101 98 95 92 91
50 52 54 56 58 57 57 57 58 59 58 56 55 58 61 66 69 67 69 75 80 84 90 98 101 90 81 80 82 82 81 82 86 88 90 92 95 101 107 107 104 102 99
53 56 57 59 60 60 61 61 61 61 59 58 58 61 66 69 69 71 73 78 84 90 96 101 83 75 72 70 67 65 66 70 71 73 76 78 80 85 93 99 104 108 109
57 58 59 60 60 58 59 61 62 60 60 61 64 66 70 69 70 73 78 83 87 92 94 74 66 63 63 59 55 53 51 51 52 56 58 60 63 66 73 81 88 95 103
58 59 59 59 55 60 60 61 61 62 64 65 67 70 74 79 79 82 84 88 93 91 72 61 55 51 48 48 46 45 43 43 43 43 45 48 50 53 56 61 66 75 87
59 60 59 52 60 59 62 61 63 65 66 67 70 72 77 83 86 87 93 94 92 80 62 50 43 42 41 40 40 42 44 43 43 44 45 47 48 48 48 49 51 55 65
59 58 57 56 59 61 62 63 65 67 69 71 75 78 78 80 83 85 90 89 81 65 52 40 37 36 38 39 40 41 42 44 46 48 46 46 47 49 50 50 51 52 54
58 57 57 60 61 61 61 66 69 72 76 81 85 90 79 81 85 85 84 74 61 54 46 39 37 37 37 39 42 44 45 46 45 44 44 44 45 46 47 50 52 53 54
54 60 60 60 62 64 66 69 73 76 78 83 87 81 77 79 82 78 71 61 52 45 42 39 39 39 40 42 43 44 44 43 43 43 43 42 43 44 45 47 49 51 53
59 60 58 61 66 70 73 74 76 78 84 85 81 77 81 77 75 69 58 50 45 42 41 39 38 40 41 43 43 42 42 43 40 38 39 40 42 45 46 47 48 49 50
58 57 61 65 73 80 86 92 89 88 95 80 75 78 73 69 64 57 48 43 41 39 39 40 39 41 42 43 43 41 41 38 35 35 38 42 44 44 44 45 45 46 48
60 62 65 68 76 86 82 92 94 89 75 72 79 71 66 62 56 47 42 39 37 38 39 40 40 41 42 41 40 38 34 32 33 37 39 38 40 39 39 40 41 44 45
65 69 76 79 80 84 88 83 71 66 73 78 74 64 62 56 48 43 40 38 37 37 39 40 40 41 40 38 36 32 30 32 35 39 36 37 37 37 39 41 44 45 45
67 73 81 89 94 92 75 66 68 72 80 65 58 58 55 48 43 41 39 36 35 35 35 36 36 36 35 35 30 28 32 34 36 38 34 35 36 38 40 41 45 46 44
71 77 83 86 89 75 69 73 79 76 62 56 54 53 47 41 40 38 36 35 35 36 37 37 34 33 30 31 27 27 32 35 35 33 31 32 36 33 33 36 39 43 32
85 82 80 81 75 81 80 79 70 61 54 53 52 48 42 38 38 34 34 34 34 35 36 35 33 31 30 29 27 30 32 35 34 31 27 23 27 21 23 28 35 37 29
86 84 86 82 80 84 77 62 56 55 53 51 48 43 37 34 32 32 33 33 34 35 34 33 32 31 29 27 26 29 32 35 30 29 23 17 20 20 18 21 28 32 28
79 75 76 80 74 66 60 57 55 53 52 48 43 37 33 30 29 31 32 32 32 32 31 30 31 31 29 27 26 28 30 32 27 24 17 18 21 18 18 15 19 21 26

GFSMA_500_spd_030.txt.gz
Wind_Speed
10 13 16 16 16 16 20 23 26 30 31 33 34 36 37 38 38 38 37 38 40 43 44 44 45 45 42 41 44 43 43 40 40 40 41 40 39 38 37 36 36 35 36
8 7 10 13 17 22 25 28 30 31 33 34 36 37 38 41 42 44 45 44 42 40 42 44 43 42 44 44 46 49 51 51 50 49 47 46 45 44 43 42 41 40 39
9 11 16 21 24 27 27 30 31 33 34 36 36 39 42 44 45 46 48 49 47 44 41 40 42 42 42 44 44 46 49 52 54 57 59 55 55 54 52 50 48 47 45
14 19 23 25 26 28 30 33 35 37 39 40 41 43 46 47 47 49 49 47 45 44 43 45 44 44 45 46 47 49 50 53 55 59 61 61 59 59 60 59 58 56 52
20 24 26 29 32 34 36 38 39 39 41 43 44 46 48 49 50 49 47 45 45 46 48 50 52 53 54 55 57 58 60 62 63 65 67 69 69 67 66 65 65 64 62
25 29 32 34 37 39 41 43 43 44 45 45 46 49 50 52 51 47 46 46 48 50 53 56 58 61 63 65 67 69 71 74 76 77 77 77 78 78 76 74 72 70 70
31 34 37 40 43 45 47 48 50 50 49 50 49 51 52 52 50 48 48 50 53 57 61 63 65 67 69 71 73 75 78 85 88 89 90 90 88 87 86 84 80 79 75
36 39 43 46 48 50 51 53 54 54 55 53 53 53 54 50 49 50 52 55 58 62 63 69 72 76 77 81 84 86 91 97 100 95 95 98 102 99 97 93 90 88 85
41 45 47 50 52 53 55 56 55 55 54 53 54 56 52 50 52 54 55 58 58 60 66 70 76 80 85 87 90 94 98 101 94 85 86 89 94 103 108 104 100 98 94
45 47 50 52 55 56 57 56 55 54 55 55 56 52 53 55 57 58 59 60 61 67 74 76 76 81 87 91 94 97 92 84 79 78 79 78 81 90 98 106 108 108 104
49 50 53 56 56 57 57 57 56 55 57 59 56 56 58 60 61 62 61 65 69 78 81 76 78 82 89 93 91 88 79 73 73 72 71 71 73 74 80 87 94 98 106
54 56 56 56 58 58 57 56 54 57 60 58 59 61 64 66 66 68 69 70 72 79 76 79 84 86 87 85 80 71 67 57 56 56 59 62 62 63 67 73 80 85 89
57 58 57 58 59 59 57 58 60 60 59 62 65 68 70 72 75 75 79 83 83 73 75 76 82 84 81 74 63 55 51 45 46 46 47 49 51 52 54 56 63 70 75
57 59 60 61 61 60 59 62 61 60 63 65 67 72 75 79 81 85 88 84 73 72 72 77 81 78 69 59 49 46 43 42 43 44 44 45 46 47 49 52 53 56 60
58 59 60 59 61 61 62 62 62 64 69 72 76 83 81 81 85 89 79 74 79 79 78 74 73 68 58 49 42 42 42 42 44 45 46 47 48 49 50 50 51 51 53
58 58 57 58 62 61 60 62 65 67 70 74 75 80 84 89 88 79 73 76 74 71 72 68 64 56 47 41 39 40 41 42 44 46 46 46 48 48 48 48 48 49 51
55 55 59 61 60 63 66 67 71 75 80 82 84 88 88 75 67 72 79 73 70 69 70 62 54 45 40 39 39 40 40 42 43 44 46 45 47 47 47 47 49 49 50
55 59 60 60 62 65 69 73 74 77 80 87 87 85 71 68 77 79 71 69 69 69 64 54 46 40 39 39 40 39 41 43 44 44 44 44 43 43 44 46 48 49 50
58 59 60 63 66 72 74 79 83 81 80 86 82 76 73 80 82 68 64 66 66 59 54 49 42 40 39 40 39 39 40 40 40 39 38 38 38 38 41 43 46 48 49
59 63 67 69 73 77 82 85 89 93 84 70 71 76 80 73 64 64 64 62 55 51 48 44 41 40 39 39 39 37 36 38 36 34 33 36 38 40 43 44 44 45 47
64 67 71 76 80 80 81 86 85 76 73 75 79 75 68 62 63 62 58 53 49 46 41 39 39 38 38 39 38 34 35 32 30 32 33 38 38 38 38 38 40 40 41
69 71 74 77 80 80 85 81 77 73 79 73 66 62 60 60 59 56 51 46 44 39 37 36 35 36 35 35 33 32 32 28 28 33 34 40 34 35 36 37 39 41 43
67 70 74 75 77 80 80 76 76 73 69 64 58 58 58 56 54 49 43 40 37 36 35 34 34 34 30 30 29 28 29 27 30 32 32 33 32 34 36 39 42 45 47
74 73 79 85 80 75 78 75 67 62 56 56 56 55 54 53 49 42 38 34 35 35 35 35 35 33 29 28 27 27 26 26 29 32 32 28 31 33 33 34 33 36 39
77 80 83 84 77 78 70 60 57 56 58 58 56 52 51 49 43 37 32 32 33 34 34 34 34 32 29 27 26 25 25 24 27 34 32 26 31 26 28 31 30 28 31
75 76 79 79 73 59 58 59 58 59 61 58 53 50 48 43 37 32 30 31 31 32 33 33 33 32 29 27 26 24 23 23 26 31 32 28 27 23 28 29 27 23 25

GFSMA_500_spd_036.txt.gz
Wind_Speed
9 10 12 9 10 11 16 20 23 26 29 31 33 35 37 38 39 40 42 42 43 43 44 45 42 40 40 40 40 41 43 45 44 42 41 40 39 40 40 39 39 38 37
11 7 3 6 11 17 20 24 28 31 34 36 38 39 41 43 43 44 45 44 43 42 43 42 41 41 40 39 37 36 37 39 42 42 43 43 43 44 43 44 43 43 42
6 5 8 11 18 22 26 29 32 35 39 41 42 44 45 46 47 47 45 44 44 44 43 43 43 42 40 38 37 38 39 39 41 43 45 46 46 46 45 45 46 46 49
8 10 14 17 22 27 30 34 37 41 43 44 45 47 47 47 48 47 46 44 43 44 45 46 44 41 40 41 43 44 45 46 45 46 48 49 49 51 51 52 51 50 50
12 15 20 23 28 32 36 39 42 45 46 47 47 47 47 48 48 46 44 44 45 47 48 45 43 43 44 47 49 51 54 56 56 57 57 56 56 58 58 57 57 57 58
16 20 24 29 33 37 40 43 46 48 48 48 48 48 48 48 46 44 44 46 49 50 49 47 49 52 54 55 56 57 59 62 64 63 63 64 64 65 66 69 70 69 67
22 25 30 34 37 41 44 47 47 49 49 48 48 48 49 47 47 47 47 50 51 51 52 53 54 57 59 61 63 64 65 66 68 69 70 69 70 71 71 72 73 78 79
27 31 34 37 40 43 45 46 48 48 46 46 49 49 46 48 50 51 54 55 54 55 57 59 61 63 63 64 68 71 73 72 73 74 75 76 75 78 83 84 84 84 88
32 35 37 40 43 43 45 45 45 47 44 50 53 49 52 53 54 54 57 58 60 62 63 64 66 66 69 71 74 74 73 75 76 78 80 81 81 83 82 82 81 81 83
38 39 39 43 42 44 45 45 45 44 48 53 52 53 55 59 58 57 60 63 65 67 69 70 72 77 79 77 79 78 71 69 70 71 71 73 75 77 80 82 85 87 88
41 43 43 45 46 47 49 45 51 53 53 54 56 59 59 60 63 66 67 70 73 76 79 82 84 85 85 79 73 71 72 71 70 71 75 79 81 83 84 83 87 90 95
42 44 46 46 46 44 47 52 48 58 55 57 59 60 62 66 70 73 74 76 79 82 84 83 82 82 75 72 72 70 72 72 76 79 81 81 84 82 80 83 89 91 87
40 47 49 48 50 44 55 52 56 56 59 61 63 65 68 73 76 77 80 81 87 89 78 78 77 73 71 72 77 79 79 80 81 83 83 83 82 81 80 78 68 61 54
43 52 50 50 40 54 53 55 57 59 61 64 68 71 75 79 80 83 86 92 87 86 84 79 73 79 85 81 80 81 82 80 76 74 70 69 69 68 62 52 48 47 45
52 55 54 56 54 52 54 57 58 60 65 69 73 77 76 81 83 86 91 90 90 86 85 84 77 74 77 77 74 71 67 64 64 62 60 59 56 50 46 44 43 44 44
56 56 57 60 55 54 55 57 62 66 70 73 74 77 84 85 87 91 89 89 89 85 79 73 73 73 72 68 65 62 60 58 56 54 53 50 47 45 43 44 44 43 45
57 61 62 58 55 54 56 60 65 70 73 76 79 83 83 87 87 88 88 85 83 74 68 66 69 66 62 61 59 56 54 53 52 49 46 44 42 42 43 43 44 45 46
60 60 59 56 55 56 58 64 70 74 77 80 78 82 86 86 87 87 84 80 69 66 67 66 63 59 58 56 53 51 49 48 46 44 42 40 40 40 40 41 42 44 45
59 57 56 58 57 60 64 72 75 77 80 77 86 84 87 87 84 83 79 67 63 65 68 65 58 56 52 49 47 46 46 45 44 41 38 37 37 37 37 39 40 40 39
57 60 59 57 59 60 68 74 80 78 81 82 82 84 85 84 82 76 68 62 63 68 66 59 55 52 47 45 45 45 43 44 42 40 36 37 34 33 35 35 36 36 36
58 58 57 61 61 62 70 78 80 81 76 77 82 83 83 78 73 71 63 63 65 68 61 54 52 47 42 42 44 44 42 40 40 39 36 36 32 34 34 34 33 34 37
58 58 56 60 67 76 79 80 82 79 76 79 81 82 77 71 69 66 62 63 66 65 56 50 48 43 40 41 41 40 39 39 37 37 35 34 33 34 34 34 33 35 38
56 59 65 66 74 78 77 78 80 77 78 79 80 75 70 69 67 63 62 63 65 60 51 47 43 40 39 40 39 38 39 38 37 36 31 28 34 33 34 35 33 36 36
53 56 71 73 75 75 75 75 77 78 78 80 76 71 68 66 65 61 61 63 62 55 48 45 41 38 38 39 37 37 37 36 36 35 31 25 30 30 33 35 34 33 31
61 65 70 73 73 73 74 77 77 78 80 76 72 67 64 64 62 61 62 63 59 51 45 43 39 37 37 37 37 36 35 34 33 33 32 26 29 26 30 34 28 28 31
67 70 71 72 71 72 74 77 79 81 78 73 67 64 63 62 61 62 64 62 55 47 43 40 37 36 36 36 36 36 34 33 33 30 31 26 29 28 26 30 30 28 31

GFSMA_500_spd_042.txt.gz
Wind_Speed
13 13 13 13 15 14 9 10 12 15 18 23 27 30 33 36 39 41 42 44 45 45 45 44 42 40 39 38 40 40 40 41 44 45 44 44 43 43 39 37 37 40 41
14 12 12 13 10 9 9 12 16 20 24 28 32 35 37 40 42 43 45 45 46 45 44 43 41 40 39 39 40 40 40 40 41 42 43 44 45 46 47 44 41 41 41
10 11 11 10 11 9 12 17 21 25 28 32 36 38 40 42 44 45 46 46 45 45 44 42 42 41 39 38 39 39 39 40 42 43 45 46 48 50 51 52 51 48 47
12 11 12 12 11 14 18 21 25 29 34 38 40 42 42 44 46 48 47 47 45 45 43 42 42 40 40 40 42 44 45 45 46 48 50 52 54 55 57 59 59 59 57
14 12 11 12 15 19 23 27 31 34 37 40 44 44 45 48 49 47 45 44 45 45 45 42 42 43 44 46 48 50 52 54 54 54 56 58 60 62 63 64 66 67 66
13 11 13 14 18 22 27 31 34 38 40 45 46 46 48 47 44 45 47 47 46 46 45 46 47 49 51 54 55 57 59 60 62 64 65 66 68 69 71 72 72 72 73
14 14 15 19 22 27 31 34 36 38 43 46 46 50 48 45 46 49 49 50 48 48 49 52 55 57 60 60 61 61 64 65 66 69 71 72 73 76 79 80 81 81 80
16 18 20 24 27 30 34 37 38 42 42 48 48 50 47 52 51 55 56 53 51 52 55 57 61 64 65 66 69 69 71 71 71 72 73 74 75 75 76 79 82 85 87
21 24 29 33 34 37 38 39 42 44 47 51 50 51 49 53 59 62 56 54 54 57 60 64 67 70 71 72 72 73 75 69 72 74 77 80 81 81 82 82 84 84 86
25 30 32 36 39 39 41 41 44 48 51 54 53 54 52 60 58 61 59 57 58 62 67 70 72 74 75 75 77 75 77 79 81 85 86 84 83 81 79 82 84 83 84
27 30 33 36 41 42 44 44 44 51 53 58 57 61 59 57 58 58 58 62 65 68 71 75 77 78 78 76 81 83 84 85 89 89 87 80 73 75 81 84 86 89 91
30 30 33 37 42 44 47 47 50 56 58 62 61 61 59 60 58 58 61 63 67 72 76 79 81 80 81 82 84 86 88 91 88 80 72 71 71 70 69 69 74 85 87
31 32 37 39 42 45 49 51 54 55 66 61 63 61 61 62 61 62 64 68 73 80 84 87 85 83 83 85 86 88 90 85 73 71 72 70 66 62 61 60 62 64 69
32 34 35 40 39 46 49 52 59 66 62 55 64 65 65 64 64 68 70 74 78 84 86 86 87 86 86 87 88 88 82 70 68 71 68 60 57 56 56 56 56 56 59
32 34 38 40 45 48 48 59 63 59 54 63 64 66 64 65 69 69 72 77 83 85 84 83 84 87 86 87 88 80 67 65 70 67 58 55 53 51 50 50 50 51 52
32 35 44 44 47 52 63 64 61 57 58 59 67 65 65 71 70 73 76 83 86 84 82 83 84 85 84 83 80 70 62 65 67 58 53 50 47 46 45 45 45 45 46
33 41 47 50 55 58 59 59 57 58 57 61 67 68 72 74 76 79 86 89 87 83 83 82 83 82 82 75 70 63 62 65 64 54 49 46 43 41 41 41 41 40 40
39 40 49 54 55 55 56 56 58 62 59 61 65 72 74 75 81 85 89 89 84 82 83 83 80 77 73 70 62 60 63 65 60 52 47 44 41 39 39 38 38 37 38
46 48 50 51 55 56 56 57 58 54 54 63 67 73 78 84 85 87 87 83 82 83 83 82 77 70 67 63 59 60 62 62 55 50 45 42 39 39 39 36 35 34 34
47 49 51 52 54 53 52 62 53 58 65 64 72 77 81 84 85 84 81 81 83 83 81 77 71 65 61 59 58 60 61 58 51 47 45 41 39 38 35 33 31 29 29
49 52 55 57 58 54 59 65 62 64 68 73 77 80 83 82 81 80 80 82 83 81 76 70 64 59 58 58 60 61 59 53 48 44 43 40 41 38 34 30 28 26 26
52 55 56 58 60 60 61 62 63 65 69 74 78 81 81 80 80 81 81 81 80 75 69 64 59 58 59 60 61 60 56 48 44 42 40 37 39 39 36 31 27 25 24
55 57 59 60 60 62 62 63 65 68 71 74 77 79 80 81 81 82 82 81 75 68 62 60 59 60 61 63 62 57 50 44 41 39 38 35 39 37 36 32 27 24 23
57 58 59 60 61 61 61 63 65 67 69 72 75 78 80 81 83 83 81 77 68 62 59 61 62 63 64 63 59 52 45 41 38 37 37 35 38 36 34 33 28 24 21
58 59 61 60 59 60 62 65 68 70 73 75 78 80 82 83 83 82 77 69 63 62 63 63 63 64 63 57 52 45 40 38 35 35 35 36 37 35 32 32 28 24 21
60 61 62 61 60 62 66 70 74 77 78 79 80 81 83 82 80 76 70 67 66 66 67 67 62 61 55 51 45 40 37 36 34 32 35 34 35 35 27 31 27 26 22

GFSMA_500_spd_045.txt.gz
Wind_Speed
16 13 12 11 12 12 12 11 10 9 13 17 21 25 30 34 37 39 40 42 43 46 47 46 44 43 40 39 38 37 37 37 37 37 38 38 38 38 38 38 39 39 39
15 13 11 11 12 10 9 9 9 14 18 21 25 29 33 36 40 42 43 42 46 48 48 48 45 43 41 40 39 37 35 34 36 37 38 40 42 43 43 43 43 44 45
11 10 10 11 10 8 10 12 14 18 22 26 29 32 34 40 42 42 45 49 49 47 46 47 48 46 45 42 38 38 38 40 40 42 43 43 45 47 49 51 50 51 51
12 11 9 9 9 12 12 16 19 23 26 29 33 35 38 42 44 45 47 47 45 47 46 46 48 48 46 42 41 43 44 46 48 50 51 51 50 50 52 55 58 59 60
12 11 8 13 14 14 16 20 23 26 29 32 34 36 40 44 46 47 46 44 46 50 51 49 49 46 44 44 47 48 51 54 55 56 57 57 57 57 59 61 62 64 65
14 12 12 14 15 18 22 23 25 30 32 34 35 37 42 45 47 48 48 46 49 52 54 53 50 47 47 48 51 53 56 58 59 61 63 64 66 66 66 66 67 69 70
15 14 14 15 20 23 25 27 28 32 35 36 38 41 46 46 48 46 48 52 56 56 52 52 52 53 53 55 56 57 61 64 66 68 69 70 71 73 74 74 75 75 76
14 16 17 20 24 28 30 33 38 40 38 38 41 45 49 53 54 52 52 53 53 53 54 53 51 54 56 59 62 63 66 69 72 73 74 74 76 77 78 80 81 82 82
16 19 21 25 29 35 37 39 39 42 44 44 46 47 53 57 63 62 59 58 58 56 57 56 58 59 60 65 70 73 73 75 77 77 78 80 83 84 86 87 89 90 89
21 23 27 30 33 36 38 39 39 42 45 47 50 52 58 63 67 62 65 65 63 61 59 57 61 64 67 71 76 79 79 79 81 82 85 86 88 90 93 94 89 83 80
23 25 27 31 35 37 38 41 43 44 49 53 56 57 63 67 66 60 61 62 65 65 65 63 63 66 72 76 81 83 81 82 85 86 87 89 92 93 90 80 76 75 75
24 25 28 31 35 38 40 43 45 45 50 52 54 60 68 68 66 65 65 65 63 65 71 72 73 76 78 84 85 84 83 84 87 87 88 91 89 81 73 72 70 67 63
27 26 29 35 36 37 39 43 45 48 54 60 57 70 70 67 64 64 63 65 68 71 72 74 78 80 85 88 85 84 84 84 86 86 86 84 75 68 69 66 60 57 56
27 30 32 37 37 37 38 43 48 53 55 59 65 70 67 64 64 73 68 76 71 71 71 75 83 89 89 87 85 83 84 86 86 83 80 68 62 67 65 58 54 53 53
31 33 35 38 37 38 43 50 53 54 59 63 65 66 65 66 67 65 68 71 72 74 79 86 88 86 86 85 85 84 84 85 81 75 65 59 63 64 59 55 53 52 51
33 36 38 37 39 41 49 47 51 60 63 66 64 63 65 64 65 69 72 71 76 80 83 86 85 83 83 83 84 84 82 80 72 63 58 57 61 61 55 53 50 49 49
38 39 40 42 44 44 49 53 59 60 61 65 64 62 64 63 66 69 72 77 81 84 85 82 84 83 84 84 84 82 75 69 62 59 57 59 61 57 52 49 47 47 46
40 41 43 44 45 49 51 58 60 59 57 60 66 67 68 71 74 75 79 81 82 82 82 82 82 82 82 81 79 75 67 58 57 58 59 61 59 52 50 48 45 44 43
42 42 43 46 49 51 54 56 59 57 57 61 70 74 75 70 71 73 75 75 77 79 81 83 83 83 82 77 72 66 59 55 56 59 60 60 55 46 47 44 43 41 39
43 44 47 49 52 55 57 58 61 64 64 64 66 69 68 69 71 72 74 76 79 82 85 85 84 82 76 69 64 60 57 58 59 61 61 58 51 45 44 40 39 40 36
44 47 50 53 55 58 59 60 62 65 66 64 69 66 67 69 71 74 77 80 84 86 86 84 81 74 66 62 61 61 61 60 61 62 58 51 46 44 42 41 39 35 32
47 50 53 55 58 60 61 63 65 66 65 65 65 68 70 73 76 79 81 84 85 84 83 77 72 67 63 63 63 64 63 63 62 56 52 44 43 41 40 39 39 37 33
50 53 55 58 60 62 62 64 65 66 66 67 68 72 76 79 82 85 89 88 84 83 79 70 67 63 66 66 67 65 64 61 57 49 47 40 40 39 39 38 40 37 32
53 55 58 60 61 62 64 66 66 67 68 70 73 77 79 82 85 87 87 86 85 83 75 70 65 63 66 66 66 64 60 57 50 44 42 38 37 37 38 38 38 36 32
55 58 60 61 62 64 65 66 67 68 69 72 76 79 82 85 87 86 86 85 82 78 72 73 70 66 62 61 59 58 53 50 44 38 39 38 35 35 37 37 35 35 30
58 60 61 62 63 65 65 67 68 71 73 75 78 81 85 88 88 86 84 83 81 73 70 70 71 67 61 56 53 49 46 45 40 34 36 35 34 35 34 34 32 34 30

GFSMA_500_spd_048.txt.gz
Wind_Speed
31 21 18 15 13 10 9 9 12 11 9 9 12 17 21 23 25 29 34 35 39 41 44 44 44 45 46 45 44 43 42 41 39 36 34 34 35 36 37 37 37 37 37
20 15 15 11 11 10 11 12 11 10 10 13 17 20 23 26 29 33 33 37 38 41 42 43 44 45 45 45 45 45 44 40 36 35 36 37 39 40 42 43 44 44 44
19 15 11 10 11 10 10 11 10 11 15 17 21 22 24 27 30 34 36 34 37 38 40 42 43 45 45 45 45 46 43 41 40 41 41 42 43 45 46 47 49 51 53
14 13 12 9 10 11 10 11 13 17 19 20 22 23 26 28 32 35 37 40 39 39 40 42 45 46 46 47 47 45 44 46 46 46 46 47 48 49 50 51 52 52 53
11 9 7 7 10 13 14 16 19 20 21 22 23 27 29 31 34 37 41 44 46 47 45 47 49 49 49 48 48 47 48 50 52 53 54 54 55 56 57 57 57 57 58
7 9 10 12 13 16 19 21 21 24 25 27 31 30 30 33 37 41 45 47 48 52 53 51 50 50 49 49 48 49 52 53 55 56 59 61 62 63 64 64 64 65 65
12 14 15 14 17 18 20 23 26 28 32 34 35 34 36 38 42 45 48 52 55 55 54 53 53 54 52 52 51 51 53 55 58 60 64 65 66 69 70 71 72 72 73
17 17 18 17 18 21 24 27 32 34 37 36 34 37 39 43 45 49 51 53 57 60 57 58 57 54 54 55 55 57 57 57 65 69 72 74 78 77 76 77 79 80 81
16 17 17 20 22 27 25 31 35 35 36 36 39 41 41 46 50 53 57 60 64 62 58 60 58 57 59 59 60 60 59 63 68 73 78 80 79 79 80 81 83 85 87
19 19 22 25 25 28 31 31 34 34 37 39 42 46 48 50 53 59 60 65 68 67 64 61 61 60 66 65 65 64 67 73 78 81 79 77 80 83 84 85 87 90 93
25 24 25 28 29 28 30 31 35 37 41 44 45 50 51 55 58 60 62 70 70 67 69 66 62 65 68 66 69 70 74 78 76 77 79 82 83 84 85 87 90 91 89
34 28 29 25 29 30 30 34 37 38 39 42 47 51 56 58 64 66 69 69 67 67 67 66 66 69 73 72 74 72 73 74 76 79 81 82 84 85 87 88 85 77 70
31 28 28 28 28 28 32 34 34 38 40 47 50 56 57 58 67 70 71 68 64 65 64 69 72 76 77 76 75 70 69 73 76 79 81 82 83 83 82 78 69 64 65
18 20 25 26 28 31 34 37 37 38 42 45 49 58 58 67 71 69 69 66 66 67 66 69 75 77 79 74 73 76 77 77 80 82 82 81 80 76 71 62 60 62 61
25 28 25 28 32 37 40 39 42 43 47 48 55 58 67 70 71 70 69 68 69 74 69 71 74 75 74 78 81 82 82 82 81 82 81 78 72 64 61 57 59 60 60
29 33 32 34 37 39 42 43 44 46 48 51 57 62 67 68 66 68 67 70 78 77 72 71 70 74 76 80 83 85 85 84 82 80 74 69 61 56 56 57 60 60 57
33 33 35 38 39 41 42 44 46 49 51 53 57 61 61 60 73 73 71 72 75 73 73 72 74 77 81 84 86 87 87 84 78 70 64 61 56 56 56 58 60 57 51
35 36 38 39 40 42 44 47 50 51 53 56 59 61 60 62 69 72 69 72 76 74 76 77 79 81 85 86 86 86 82 78 71 61 58 58 57 58 58 59 55 50 46
37 37 39 40 42 44 46 49 53 55 56 59 62 63 64 67 70 68 73 73 75 78 82 82 83 87 88 87 86 83 77 71 64 59 57 59 58 58 57 52 47 43 44
38 40 41 42 45 47 50 51 54 58 60 61 62 64 66 68 69 70 73 76 79 82 83 86 89 89 89 85 83 79 75 67 60 59 60 59 58 56 53 47 42 39 39
40 41 42 44 48 50 52 55 58 60 61 61 62 64 66 67 68 71 75 77 80 83 86 89 90 89 86 81 75 71 69 64 61 61 62 58 55 53 46 42 38 38 39
39 41 45 48 51 52 54 56 59 61 60 60 61 62 65 67 70 73 76 80 81 84 87 87 86 85 80 76 71 69 68 65 63 59 60 55 51 45 41 38 36 37 39
41 45 48 51 53 54 57 58 60 59 59 60 60 63 65 69 72 76 79 81 83 86 87 87 86 83 79 74 72 69 67 64 59 56 56 50 44 40 37 35 35 37 39
46 50 53 55 56 57 59 60 59 59 59 61 64 67 70 72 76 79 82 84 87 89 87 87 84 80 75 70 66 66 64 58 54 52 50 47 40 37 34 32 34 35 38
51 53 55 56 57 59 60 59 59 59 61 63 66 70 73 76 80 84 88 90 92 90 87 84 79 74 72 69 64 62 58 54 51 46 43 44 38 34 30 30 32 34 36
55 57 58 59 60 61 60 60 60 62 64 67 71 74 77 81 85 88 91 94 95 93 91 84 73 68 66 64 59 53 50 50 47 43 38 42 37 33 27 29 31 34 34

GFSMA_500_spd_051.txt.gz
Wind_Speed
18 22 21 21 18 16 16 14 12 10 12 11 10 10 12 15 17 18 20 21 23 26 27 28 30 31 33 34 35 37 38 40 41 42 41 39 38 38 38 37 37 37 37
17 24 24 21 18 15 15 13 11 11 12 12 11 13 15 17 17 19 22 23 25 27 29 32 33 35 36 37 37 38 39 40 42 42 42 41 41 43 43 42 43 44 44
14 19 21 19 15 13 11 12 12 13 13 13 13 16 17 19 21 22 24 26 29 31 33 36 37 39 40 41 42 43 41 42 43 43 44 45 45 46 46 46 45 46 46
23 24 16 12 14 12 13 14 15 14 15 15 18 18 19 22 24 26 28 30 32 36 39 41 43 45 45 45 46 46 45 44 44 44 46 47 49 50 51 52 53 53 52
17 16 12 11 11 14 17 16 16 16 17 18 20 21 27 26 26 27 31 36 37 39 42 44 46 49 49 49 50 48 46 46 47 48 49 51 53 54 55 56 57 59 60
14 12 10 10 11 15 16 17 17 18 19 22 25 28 29 27 27 31 34 37 41 45 47 49 50 54 53 53 54 51 49 48 50 52 53 55 57 58 58 60 62 64 64
12 12 12 13 13 18 18 19 20 23 25 26 31 32 31 29 30 34 36 41 43 46 49 50 54 56 55 55 55 53 54 54 53 53 55 56 57 59 62 64 66 67 69
11 13 14 15 16 20 20 21 23 24 28 31 33 32 33 32 37 40 44 47 51 52 52 53 58 59 55 55 56 52 52 54 56 61 62 63 65 67 68 70 72 74 75
13 15 14 17 20 20 22 23 26 29 33 32 34 34 35 37 41 43 47 50 53 55 57 59 63 61 56 56 58 55 57 60 65 66 67 69 67 70 71 72 75 77 79
10 14 17 18 20 22 24 25 27 29 33 34 34 36 39 40 44 47 49 53 56 57 63 66 63 60 59 61 62 61 62 64 68 69 70 67 69 75 77 78 78 80 81
14 21 24 26 25 26 28 29 28 31 33 36 39 39 39 43 48 49 51 58 63 63 69 66 65 64 64 66 69 71 67 68 69 65 69 75 79 80 81 81 82 82 83
16 16 32 31 28 31 29 29 34 33 34 30 37 40 42 46 51 54 55 63 64 70 68 67 67 65 66 71 74 70 67 67 67 71 75 79 82 82 83 84 84 84 84
18 21 15 29 26 30 28 28 27 28 31 35 39 39 40 53 55 52 55 64 68 71 64 70 69 69 70 70 72 70 69 71 74 77 80 82 84 85 85 85 84 81 77
17 17 18 18 18 19 24 25 30 33 34 37 41 43 45 47 51 56 65 66 65 62 64 72 76 73 71 75 74 73 74 77 78 80 83 85 86 85 83 79 77 70 67
20 19 18 25 23 25 29 30 32 35 36 39 42 43 44 46 55 55 57 61 60 57 60 68 68 70 75 74 76 78 80 79 82 85 86 86 85 81 76 72 66 61 61
26 23 23 28 28 29 30 32 34 35 37 41 42 44 47 51 53 55 58 59 60 60 60 63 65 67 72 77 80 82 82 85 88 88 86 84 80 72 67 63 59 59 60
29 28 27 31 31 32 32 34 36 38 41 44 47 48 52 53 56 57 57 59 60 61 62 62 67 71 74 77 81 82 87 90 90 88 85 81 72 62 62 60 59 59 59
28 29 32 34 35 35 35 37 39 42 44 47 50 52 54 57 56 57 59 61 62 65 67 67 69 73 77 80 83 86 89 89 87 84 81 74 63 60 60 59 59 59 58
30 32 34 34 35 35 37 39 42 45 47 49 51 54 57 56 57 59 60 61 64 67 72 73 73 76 80 83 87 90 89 89 88 82 76 69 60 60 60 59 57 54 50
32 36 36 35 36 37 40 43 47 49 51 52 54 56 58 59 61 60 62 64 67 70 74 77 79 81 85 86 90 89 87 86 82 77 70 64 58 59 58 56 53 50 46
36 36 36 37 38 40 44 48 51 53 54 56 58 59 59 62 63 63 64 66 70 73 77 80 83 87 90 90 88 86 84 80 75 70 67 62 56 56 55 54 50 45 42
36 36 37 38 41 45 49 52 54 55 57 58 59 59 62 62 62 64 66 70 74 78 80 85 88 91 91 90 85 82 77 75 73 67 66 62 54 54 52 51 46 42 39
36 37 38 41 45 50 54 56 57 59 60 61 61 62 63 63 65 66 69 73 77 81 85 89 91 92 93 88 86 77 69 68 67 63 62 57 50 51 49 45 42 39 37
37 39 42 47 51 55 57 58 59 60 61 62 63 65 68 67 70 72 74 77 82 85 87 91 93 93 90 88 80 71 67 66 62 53 58 54 46 47 45 40 37 37 35
41 44 48 52 56 58 59 60 61 62 63 64 66 68 70 72 75 77 79 83 86 88 92 92 93 92 90 83 73 67 63 61 57 50 42 47 51 47 40 38 36 36 32
47 50 54 57 60 60 61 62 62 64 63 65 69 73 75 77 78 82 86 88 90 93 94 94 92 89 84 75 66 62 59 55 51 45 40 51 46 42 38 37 33 33 31

GFSMA_500_spd_054.txt.gz
Wind_Speed
19 18 16 20 18 24 24 22 19 17 17 16 15 14 11 12 13 15 15 16 18 19 20 22 25 28 30 32 34 35 36 36 36 37 38 39 39 39 41 40 41 42 43
21 13 15 20 22 25 22 20 18 18 16 15 15 14 14 15 16 17 17 19 21 22 24 27 29 32 33 35 37 39 40 41 41 42 42 42 42 42 43 44 44 45 47
22 13 14 22 25 22 19 18 17 17 18 18 16 15 15 15 18 19 21 23 24 26 30 31 33 36 38 39 41 41 43 43 43 44 44 44 44 44 44 46 48 49 49
20 16 13 20 18 15 17 17 17 17 18 18 17 16 16 19 19 23 24 25 25 27 29 33 37 39 41 41 43 45 47 47 47 47 47 48 48 48 47 47 49 52 54
17 17 26 20 18 19 15 16 19 21 19 18 17 18 20 21 25 28 26 24 26 29 33 38 42 45 44 45 47 49 51 50 51 51 52 51 51 51 51 52 52 52 53
25 25 17 15 14 15 19 21 21 20 20 20 20 22 23 27 31 31 30 28 30 34 38 42 44 47 46 49 53 53 54 53 53 52 52 53 55 56 56 56 56 56 55
18 18 15 15 15 18 19 21 22 22 24 23 24 25 26 31 30 32 33 34 36 37 39 42 45 49 50 53 58 55 53 53 53 55 58 62 61 59 60 61 62 62 63
17 17 17 17 18 18 21 23 23 24 24 24 27 31 31 31 30 31 34 36 36 39 40 43 47 52 54 60 58 56 56 56 57 60 64 63 62 62 63 63 63 64 66
16 16 17 18 19 21 24 26 25 26 26 27 30 33 35 35 35 37 38 38 40 44 47 50 51 56 58 62 56 59 58 58 59 62 63 64 63 64 65 67 69 71 72
8 9 14 18 20 21 22 24 26 28 29 30 31 34 37 38 36 37 41 40 41 44 47 50 54 62 63 63 58 61 58 58 58 61 64 65 67 69 70 73 73 75 77
5 7 13 20 23 24 25 25 30 29 33 35 35 37 39 31 38 41 45 39 47 50 54 57 63 64 61 60 57 57 58 58 58 61 64 68 71 73 73 74 77 81 83
6 7 8 11 24 30 32 33 30 31 31 36 34 31 33 35 39 40 41 47 50 51 53 58 59 61 61 60 58 58 60 62 62 63 65 69 73 75 76 81 84 86 87
11 10 12 11 14 16 21 26 28 30 32 30 29 32 36 37 39 41 44 49 49 52 56 58 58 60 60 59 58 59 62 64 66 68 70 73 76 80 85 88 89 89 89
14 14 13 11 15 16 19 23 26 26 30 33 32 32 36 37 40 44 47 50 51 54 55 57 58 59 59 59 59 61 65 68 71 73 75 78 82 86 90 92 90 88 84
16 17 16 14 17 21 23 25 27 31 32 32 33 35 37 40 44 46 48 51 54 54 54 56 58 59 60 61 63 66 68 71 75 78 81 85 88 90 91 90 84 83 77
17 17 21 20 22 25 27 29 30 31 32 33 34 38 41 45 49 49 52 55 55 54 54 55 55 58 61 64 68 71 73 76 79 83 87 90 92 91 87 83 76 74 68
24 19 21 22 22 28 31 32 32 32 32 34 37 41 45 48 49 52 56 57 55 57 58 56 58 61 64 67 70 73 76 80 84 88 92 93 93 89 83 76 70 67 64
26 25 27 25 26 30 33 33 33 34 35 38 41 45 48 50 48 53 56 56 56 59 61 60 62 65 67 70 72 77 81 86 89 92 93 94 91 86 78 69 66 62 61
24 24 25 27 30 34 35 34 34 36 38 42 46 50 52 53 53 55 57 57 59 62 64 66 67 68 71 75 79 82 86 90 92 94 92 90 81 77 71 65 62 58 58
27 26 30 31 34 36 35 36 37 40 43 48 51 54 55 55 57 58 58 60 63 66 69 71 73 74 77 80 85 87 91 94 95 93 90 83 75 70 70 63 59 61 57
30 32 32 34 36 35 36 38 40 44 49 52 54 57 58 60 60 61 62 63 66 69 72 74 77 78 81 87 89 91 95 96 94 91 83 74 71 66 63 56 54 65 57
33 35 36 38 37 38 39 41 45 50 54 57 60 61 61 62 62 63 65 66 69 73 75 78 82 85 88 92 92 95 99 98 97 87 74 68 66 64 57 52 61 59 55
35 36 38 38 38 40 42 46 51 55 59 61 62 62 63 63 64 65 65 68 73 77 79 81 84 88 91 93 97 100 101 96 88 79 70 65 61 59 44 49 56 59 49
37 38 38 40 41 44 48 52 55 59 62 63 63 63 64 66 68 70 72 75 76 78 82 85 88 90 92 94 97 100 98 92 82 71 65 63 57 50 44 50 57 50 51
41 41 43 44 46 49 53 57 60 62 64 65 64 63 65 68 72 74 76 78 78 81 85 87 90 91 93 96 95 97 93 85 72 65 59 60 51 46 39 45 49 50 54
43 44 46 48 50 53 57 61 63 66 67 66 64 64 68 72 74 76 78 79 80 84 85 88 91 92 96 97 93 92 87 76 68 60 56 54 47 42 41 45 50 51 43

GFSMA_500_spd_057.txt.gz
Wind_Speed
31 17 19 21 17 23 21 25 28 23 23 25 24 23 21 20 19 18 17 17 18 17 17 19 20 21 24 27 29 31 32 34 36 38 40 42 43 44 44 44 45 45 45
18 21 22 23 18 21 18 26 24 24 25 25 24 22 22 20 18 18 18 19 20 18 19 20 20 22 26 28 31 33 34 36 39 41 44 44 44 44 45 47 48 49 49
17 21 23 20 19 19 22 24 24 24 24 24 24 23 21 18 19 19 20 22 22 22 24 24 23 27 31 33 35 35 37 40 41 42 44 45 46 47 47 46 47 47 49
20 24 23 17 19 22 26 28 26 22 22 22 23 22 21 21 20 21 22 23 26 26 26 26 29 33 35 36 39 39 41 43 43 45 46 47 49 49 49 49 48 49 50
25 27 24 19 20 22 19 20 21 23 24 23 25 24 23 22 22 24 25 29 32 32 31 30 32 36 37 39 40 43 46 48 49 48 48 49 49 50 51 50 49 49 51
24 27 23 18 21 19 19 20 23 24 23 24 26 26 24 24 25 26 28 31 33 33 33 35 35 37 37 40 43 47 49 52 53 52 52 51 49 48 48 49 50 51 53
24 22 20 26 25 21 21 21 21 22 23 27 27 26 25 27 27 29 30 31 31 32 35 36 38 40 43 46 49 52 54 59 55 53 53 51 49 50 51 53 54 56 57
18 22 24 23 21 19 20 20 21 24 28 29 27 28 28 28 32 33 34 35 37 36 35 37 37 42 45 49 52 54 58 59 56 54 52 52 53 55 55 57 58 59 60
20 21 18 19 20 21 21 22 23 28 29 31 30 30 31 30 31 33 36 38 37 38 37 36 39 45 48 50 53 55 55 58 57 55 55 56 58 58 58 60 62 63 64
19 20 20 21 21 21 22 25 28 28 30 32 32 33 34 35 37 39 39 37 36 39 44 44 46 50 52 53 55 56 56 56 55 56 58 58 58 60 61 63 66 68 69
18 17 17 18 20 21 25 26 29 29 30 33 34 32 37 40 41 41 36 36 39 40 41 44 48 52 54 54 55 54 54 55 57 59 60 59 61 63 65 67 71 75 78
16 13 10 10 12 16 22 30 34 32 31 34 30 35 37 40 38 36 37 37 37 40 44 48 51 53 54 54 53 53 53 55 58 61 62 64 66 67 68 72 77 81 84
14 15 12 12 14 15 16 26 35 35 37 37 37 32 31 35 37 36 36 37 39 43 48 50 53 54 55 53 54 55 56 61 63 65 65 67 70 71 76 80 85 88 90
15 17 19 18 17 18 19 17 21 29 28 30 31 35 37 36 36 35 37 41 43 47 50 52 52 55 54 55 57 58 59 64 66 68 69 73 75 78 81 87 91 93 93
18 21 21 22 22 19 19 24 24 24 28 31 35 37 35 36 36 38 42 45 49 50 53 51 53 55 56 57 59 60 63 67 70 71 74 78 79 83 88 92 95 94 91
24 29 31 28 25 23 25 24 27 28 31 33 34 35 35 36 38 43 47 51 53 55 55 53 55 56 58 59 61 63 67 70 72 74 79 81 85 88 90 93 94 90 89
30 34 24 24 23 24 24 26 28 31 34 35 36 36 36 38 42 47 51 53 55 55 55 55 57 59 59 60 63 68 70 74 77 80 83 87 90 91 95 95 96 89 83
36 23 23 23 23 23 27 27 31 35 36 37 38 38 40 42 47 50 54 55 55 55 56 58 59 60 61 64 67 69 72 77 79 83 87 89 90 95 96 94 87 78 71
18 19 22 27 26 25 28 30 35 38 37 39 39 41 43 48 51 54 56 56 56 57 59 61 61 63 64 68 70 72 74 77 81 86 88 90 94 95 95 90 80 71 69
25 23 23 25 26 29 31 34 37 38 40 41 42 44 48 52 55 58 59 59 60 61 63 65 67 69 72 75 76 77 79 80 83 88 89 94 96 95 91 82 74 67 60
29 28 28 28 29 31 33 36 38 41 42 44 45 47 52 55 58 60 63 63 61 62 64 68 71 72 76 78 79 81 84 84 85 88 92 94 97 97 88 76 67 61 61
30 30 31 34 34 35 37 40 42 43 45 46 49 52 56 59 62 64 63 62 62 65 68 71 73 75 77 80 81 85 87 90 90 92 98 99 96 92 80 70 62 60 57
33 33 34 36 36 38 40 43 44 45 47 49 52 56 60 62 64 65 65 66 67 71 75 77 77 77 78 81 85 88 90 91 94 97 101 100 91 85 70 63 58 59 42
37 34 36 39 41 43 43 43 45 48 50 53 57 60 63 66 68 68 70 69 71 73 75 77 79 79 81 84 89 91 91 93 95 98 96 95 84 73 64 58 55 54 45
36 39 41 44 47 47 46 46 49 52 56 58 61 63 66 69 69 70 72 72 72 77 78 81 81 82 84 88 90 92 94 97 99 97 89 89 76 69 60 54 53 49 44
41 45 47 48 49 49 50 51 55 58 61 63 64 67 72 72 71 72 75 78 80 82 87 88 86 84 86 87 89 93 97 100 99 98 83 79 68 62 55 51 49 44 41

GFSMA_500_spd_060.txt.gz
Wind_Speed
29 27 25 18 23 30 29 26 23 19 22 24 25 25 25 24 22 21 21 20 19 19 19 18 18 19 19 21 22 23 25 26 28 30 34 36 40 41 40 41 42 42 43
26 31 26 26 24 28 30 26 23 20 26 31 29 28 27 25 23 24 23 20 20 21 20 21 21 22 23 25 26 27 28 29 31 34 37 39 41 40 41 42 43 43 42
24 22 24 21 25 27 29 26 22 21 25 23 27 27 26 25 25 24 22 22 22 23 24 23 25 27 27 29 30 31 31 32 34 38 40 42 42 44 44 42 41 40 39
22 24 19 18 22 24 25 25 21 24 23 25 27 29 28 28 27 25 23 23 23 25 27 29 29 31 33 33 33 33 32 34 39 41 43 44 45 44 42 40 37 36 37
21 22 23 23 26 25 23 23 21 21 24 27 30 29 27 27 27 25 24 23 24 28 30 31 33 34 36 34 34 34 36 40 42 44 45 46 44 43 41 38 39 40 41
22 24 25 27 29 24 23 24 23 24 24 24 26 27 31 29 28 27 25 25 28 30 32 32 32 35 36 36 36 37 40 43 45 47 47 47 46 42 39 41 43 45 47
25 25 24 25 25 20 19 16 20 24 23 23 26 28 29 30 30 28 27 31 32 32 34 37 37 35 36 35 36 41 44 47 48 49 50 49 47 44 45 46 48 49 52
29 27 25 23 22 18 22 24 22 21 22 26 29 29 29 32 32 29 32 33 33 34 37 40 35 36 39 39 44 45 47 50 50 49 48 48 46 48 51 53 55 55 55
25 28 26 24 27 26 24 21 20 22 24 25 27 29 33 33 34 33 34 34 36 39 40 37 36 39 40 42 45 48 51 51 51 49 48 45 48 52 55 58 59 59 61
20 22 24 24 26 24 19 18 23 26 26 27 30 33 35 35 36 38 37 38 40 41 39 37 39 39 41 45 48 51 52 52 51 50 50 48 51 54 59 61 62 63 66
20 22 22 22 22 20 20 25 27 27 28 29 31 33 34 36 36 38 38 38 39 37 38 36 37 41 45 49 52 53 53 52 51 51 52 53 55 58 60 62 63 66 69
19 22 22 21 20 18 22 26 25 25 29 33 34 35 40 39 35 38 40 36 38 39 37 37 41 45 48 51 54 55 53 53 54 53 54 55 59 61 63 65 66 68 72
21 21 18 17 17 16 17 17 19 27 30 36 35 37 43 42 33 34 35 38 38 37 38 40 45 48 51 54 54 55 55 56 57 59 59 61 64 66 67 70 72 74 77
16 17 18 18 20 19 21 21 24 25 22 27 31 34 31 34 37 38 40 41 39 39 40 44 49 52 54 55 55 56 57 58 60 61 62 65 68 70 71 72 76 79 83
17 19 21 23 24 25 25 24 26 29 30 29 30 32 31 35 39 40 41 39 40 40 44 48 52 54 55 56 56 57 58 60 63 65 67 70 70 74 76 76 78 82 86
21 22 23 25 28 31 31 31 29 32 32 32 32 33 36 37 39 41 41 41 42 44 48 50 53 56 58 56 57 58 59 62 65 67 71 72 73 78 80 80 82 84 87
25 27 32 29 36 41 35 35 35 33 34 34 36 37 39 40 42 41 41 41 44 48 50 53 56 57 57 57 58 60 63 66 68 71 72 73 75 78 82 82 84 86 88
34 39 38 39 37 42 31 28 35 31 32 36 40 42 41 42 43 42 42 44 46 51 54 57 59 58 57 59 62 64 66 69 71 73 75 77 79 82 82 86 87 89 92
31 36 32 37 23 24 28 29 31 34 35 39 41 43 44 45 44 43 44 49 52 56 58 61 63 60 61 62 65 67 69 71 73 75 77 78 80 83 86 88 89 91 92
29 29 27 22 24 27 29 31 33 36 38 41 43 45 46 45 44 46 49 53 55 58 62 65 63 62 63 65 68 68 70 74 76 77 79 81 81 84 88 90 93 95 96
30 28 28 28 29 31 32 32 35 38 41 42 45 47 46 46 48 50 53 56 57 61 65 66 63 64 66 68 70 73 75 80 82 81 80 83 83 86 89 93 95 98 96
33 33 33 32 35 33 33 36 37 39 41 45 47 48 48 49 51 54 56 58 60 64 68 68 67 68 71 73 75 76 80 84 83 82 84 86 89 91 95 98 101 102 90
34 34 34 34 34 37 38 38 40 42 45 47 49 49 50 52 54 56 59 62 64 69 72 70 70 73 73 75 78 82 84 84 86 87 91 90 92 95 99 100 99 92 76
34 36 36 37 41 41 42 43 46 47 50 53 53 52 54 56 57 60 63 66 69 72 72 73 74 74 76 80 83 86 87 88 87 90 93 93 96 97 100 98 91 79 68
35 37 40 43 44 44 45 49 50 53 54 55 55 56 58 60 61 63 66 69 75 74 73 74 76 78 82 84 87 89 89 90 88 90 90 96 97 100 100 89 79 71 62
39 41 44 45 46 49 50 53 57 56 56 58 58 60 61 63 65 67 70 74 74 69 71 76 81 84 85 87 89 89 89 88 89 89 91 98 99 98 94 79 70 65 54

GFSMA_500_spd_063.txt.gz
Wind_Speed
41 29 27 27 27 25 28 29 31 28 27 24 24 27 26 26 26 26 24 22 22 21 21 20 20 20 20 20 21 22 24 25 26 27 27 28 29 33 35 36 39 39 39
38 31 30 31 28 25 19 27 32 33 25 21 22 25 24 28 28 26 23 21 22 22 21 21 21 22 23 25 25 26 29 29 28 29 29 31 33 36 38 40 39 39 37
40 36 37 32 30 29 23 28 30 29 25 22 22 26 28 27 28 26 23 23 23 22 21 23 23 24 26 28 31 33 34 34 32 32 33 34 35 37 39 39 39 37 31
30 32 30 29 27 29 24 26 26 26 24 24 27 31 29 26 28 27 26 26 26 23 24 24 25 26 28 30 31 34 38 37 35 33 35 36 39 40 40 38 38 33 30
29 28 27 27 27 27 25 22 23 23 22 26 25 25 25 27 27 28 32 28 27 27 26 26 27 30 31 31 34 36 37 35 32 35 38 39 42 44 43 37 35 34 37
24 23 24 28 29 28 24 25 23 22 24 26 23 24 28 30 32 32 27 29 29 30 29 31 32 33 33 35 36 34 35 36 38 40 42 44 46 46 40 37 34 36 39
24 25 26 25 27 27 29 25 21 18 22 24 26 28 31 28 27 29 30 33 33 32 34 35 34 34 37 35 36 37 34 34 38 43 46 49 49 44 41 38 38 41 43
28 30 31 30 28 27 25 21 19 18 16 20 24 22 21 24 28 30 33 34 37 38 36 36 36 38 37 36 38 39 38 39 43 46 49 50 47 45 45 44 43 47 49
29 32 32 31 27 22 20 18 18 20 22 19 22 23 26 28 31 33 34 37 39 40 40 40 40 40 38 39 39 39 41 43 46 49 51 50 48 47 47 48 49 51 52
30 33 37 27 22 24 21 20 24 25 24 21 21 24 26 29 32 35 37 38 38 44 41 40 40 40 40 38 37 42 45 46 48 51 52 51 50 50 52 53 55 56 58
28 30 23 22 24 25 28 27 26 24 24 25 25 28 30 31 32 34 35 40 41 39 43 40 39 39 39 38 40 44 46 47 50 51 51 50 51 52 52 55 61 62 64
13 15 18 21 25 26 31 31 28 27 29 29 29 29 31 33 35 35 38 39 42 40 36 37 41 39 37 39 42 46 49 51 52 52 52 54 54 55 56 59 62 66 69
15 17 20 25 27 29 30 30 29 31 31 26 24 28 32 37 39 41 43 37 37 38 40 37 40 38 41 43 45 49 51 54 56 55 55 56 57 59 62 63 65 69 71
16 19 20 23 26 26 28 28 27 26 26 23 31 31 33 36 40 43 40 38 38 38 37 37 38 40 43 46 49 52 56 58 57 54 56 58 60 61 63 66 68 71 73
19 18 20 26 27 27 27 29 27 30 30 28 31 33 32 32 37 40 37 39 40 40 39 38 41 43 45 49 53 56 59 57 56 57 58 60 61 63 64 66 70 74 77
22 23 25 27 29 30 31 31 32 32 33 33 32 36 39 39 39 40 41 41 43 43 44 42 44 46 48 53 56 58 60 58 58 60 62 63 63 64 67 70 73 75 76
25 25 27 29 29 32 35 36 35 34 37 36 39 41 43 42 41 44 42 43 45 44 46 47 48 50 52 54 58 61 60 60 63 64 65 66 66 70 74 76 76 75 76
30 30 31 34 31 35 38 40 40 38 43 42 46 47 45 47 45 45 45 47 47 46 48 48 50 53 55 57 60 64 64 65 65 65 67 70 72 73 78 78 78 77 77
21 26 28 25 30 36 38 40 48 40 36 35 36 43 41 42 45 46 49 49 50 50 51 52 54 56 57 60 64 67 67 68 69 69 69 70 74 78 80 80 79 79 81
28 28 29 28 27 31 33 31 32 33 35 36 42 44 45 45 47 49 50 51 51 53 53 55 58 59 60 63 66 68 67 69 70 71 72 75 78 81 82 83 83 84 84
29 31 31 32 30 32 33 36 32 35 39 42 43 45 46 47 48 49 52 54 56 56 57 59 60 62 64 66 71 71 69 69 71 74 76 78 80 83 84 84 84 85 87
32 33 33 34 37 36 36 38 39 39 39 40 43 46 47 48 50 52 55 57 58 59 60 60 61 63 66 69 73 68 69 70 74 77 80 80 84 85 87 85 86 88 90
33 34 37 39 40 41 41 40 42 42 43 44 45 47 49 52 54 56 58 60 60 59 60 62 64 66 66 71 71 69 73 77 80 82 83 82 86 88 87 86 87 90 93
33 33 33 35 38 40 42 43 42 45 46 48 49 53 55 57 58 60 60 60 60 62 64 66 69 69 72 76 76 76 79 81 82 84 85 85 87 85 85 86 89 93 97
33 33 34 35 36 39 42 44 45 47 49 50 53 58 61 63 64 63 62 63 64 66 68 70 72 74 80 80 80 81 83 85 86 85 86 88 86 84 84 87 91 95 97
36 37 37 38 39 41 42 44 48 49 51 53 55 63 63 66 64 65 66 67 68 70 71 73 78 82 82 84 86 87 86 86 87 84 84 87 85 88 89 88 91 94 90

GFSMA_500_spd_066.txt.gz
Wind_Speed
46 44 39 38 35 29 27 26 25 23 26 25 24 24 23 25 29 25 24 25 24 22 21 19 17 17 18 20 20 22 24 27 28 29 28 28 29 30 32 34 34 34 30
35 45 40 39 34 29 28 27 24 28 32 30 26 25 26 30 31 25 27 27 25 23 22 18 19 18 18 20 22 24 27 31 33 34 34 34 33 33 34 34 35 35 31
37 44 47 41 33 32 31 25 24 29 28 28 26 26 25 28 28 27 28 29 27 23 21 22 22 22 21 23 25 26 29 31 32 34 35 35 33 32 36 37 37 38 33
35 46 46 41 38 35 30 29 27 26 27 26 26 22 23 26 27 29 29 29 26 23 25 22 22 22 24 27 29 31 32 34 35 36 35 34 32 35 38 38 39 38 34
25 41 44 43 36 33 31 34 28 25 25 24 26 26 28 29 30 30 27 28 28 28 32 24 26 27 28 30 31 31 33 36 38 36 36 37 39 38 40 42 43 40 37
25 37 33 32 31 27 27 30 32 29 27 26 26 27 29 30 31 24 25 28 32 34 27 30 29 31 32 34 33 35 37 37 35 35 33 32 37 41 45 47 44 40 38
25 21 24 26 26 25 28 29 30 29 25 24 25 27 29 25 25 27 31 35 35 26 30 33 33 35 35 36 37 38 38 37 36 34 35 38 43 47 46 46 43 42 42
23 20 24 24 25 27 29 28 29 30 25 20 22 24 22 24 27 30 32 31 31 32 34 36 38 39 39 39 39 39 35 36 34 38 43 45 44 45 48 47 46 45 46
27 23 27 29 30 31 32 28 27 26 21 18 19 16 22 23 23 24 26 29 31 34 37 40 40 40 42 38 36 35 36 37 38 43 42 44 46 48 49 48 47 48 48
30 24 26 30 32 34 32 29 25 22 18 20 22 20 23 25 27 28 30 32 33 36 39 42 43 43 39 41 37 37 38 39 41 41 43 46 48 52 51 48 48 49 50
26 27 28 32 36 36 27 21 21 24 24 22 26 24 26 25 26 29 30 32 37 35 36 44 45 45 43 38 40 38 38 39 41 43 46 49 52 54 51 49 50 52 54
34 32 31 30 32 25 24 25 22 25 22 26 29 28 28 28 29 31 32 34 36 38 41 40 47 39 40 43 41 38 41 43 43 46 49 52 54 52 51 53 55 56 58
21 21 22 22 24 25 24 26 25 30 30 30 27 30 32 30 31 34 39 51 42 42 43 40 43 41 42 43 42 44 45 46 47 50 53 56 56 55 56 57 58 60 62
13 15 17 21 21 21 22 24 25 29 30 32 34 37 34 33 35 40 44 43 38 41 42 41 41 43 44 45 46 46 49 49 51 53 55 58 58 58 59 61 63 63 64
13 14 15 16 18 20 21 23 27 29 33 31 34 36 36 36 39 39 40 41 46 45 43 42 43 43 48 48 49 51 52 53 55 56 58 60 62 62 63 64 65 67 69
18 17 18 19 21 22 24 27 29 31 35 36 38 41 41 39 41 40 44 46 45 46 46 48 46 48 50 50 52 53 54 56 58 59 61 63 66 64 65 66 68 69 70
19 20 23 24 24 26 29 32 34 37 40 42 43 45 45 41 39 44 47 56 45 49 45 47 49 52 54 55 54 56 57 59 61 62 63 66 67 67 67 68 69 70 74
19 22 27 30 31 29 31 34 37 40 44 44 49 50 49 51 49 46 49 47 49 46 50 51 52 55 58 58 57 58 60 61 63 64 64 69 70 70 69 69 71 76 78
21 21 24 22 26 30 30 31 33 33 38 42 51 53 49 50 42 37 50 51 47 46 53 55 56 57 59 60 60 61 63 64 64 66 68 71 71 69 70 73 78 80 81
27 27 27 27 29 30 33 34 33 36 39 38 37 43 46 42 42 47 48 52 52 52 55 57 58 60 61 62 63 63 66 67 67 69 72 74 73 72 76 79 83 84 84
30 32 32 31 35 36 34 40 38 38 38 36 38 38 43 44 48 50 52 54 56 56 58 60 61 64 64 66 66 67 68 69 70 72 73 77 76 78 81 85 86 85 85
32 36 34 35 37 37 37 41 45 44 45 43 41 43 45 45 45 49 54 55 55 57 60 62 65 66 67 68 69 69 70 72 74 76 79 81 82 82 86 86 86 86 85
35 36 37 37 37 37 38 40 44 46 46 45 46 46 46 48 50 52 55 57 59 62 64 65 68 69 70 69 70 71 72 75 79 79 79 79 84 85 86 86 86 85 84
35 36 38 39 39 37 36 38 41 44 44 45 46 48 49 50 54 56 57 59 63 68 67 67 70 70 70 70 73 76 79 79 78 80 83 85 87 87 88 87 86 83 83
43 42 40 39 41 42 41 41 42 44 45 48 49 50 53 56 57 58 54 64 72 60 63 71 71 74 74 76 76 74 79 82 81 84 86 87 89 90 88 85 83 83 82
45 46 46 45 44 45 45 45 46 47 48 52 52 55 57 58 59 57 61 58 63 70 81 77 77 78 79 79 81 81 87 86 85 88 90 91 92 91 84 82 83 83 86

GFSMA_500_spd_069.txt.gz
Wind_Speed
27 27 41 40 37 35 34 34 30 26 21 25 25 23 22 22 22 23 26 28 23 23 24 20 20 15 14 15 18 17 19 20 21 24 26 29 31 32 33 34 32 31 33
31 25 42 42 41 38 36 34 30 26 25 26 26 26 25 26 24 24 29 30 24 25 24 21 17 14 14 17 17 19 21 22 25 26 26 28 31 33 33 33 31 33 37
34 32 44 49 45 39 36 35 31 31 27 25 23 24 26 27 26 28 32 28 26 25 23 20 18 20 24 21 19 20 21 23 26 28 30 31 33 33 33 32 34 35 39
28 30 35 49 50 40 38 37 34 29 26 25 22 22 25 27 28 31 33 29 26 24 23 24 19 23 17 21 25 26 28 28 27 29 32 34 35 34 33 32 33 38 42
30 29 26 50 49 40 41 38 35 32 30 25 25 24 25 27 29 31 29 26 27 28 24 26 26 28 23 26 29 29 30 31 30 31 33 36 33 32 30 34 37 41 42
37 33 34 38 50 44 43 38 38 33 33 33 30 25 25 28 30 29 29 29 28 25 30 28 30 32 23 30 31 32 33 34 36 38 35 34 33 31 35 38 40 42 42
29 26 27 27 33 53 43 36 35 31 33 33 27 27 26 28 29 29 28 30 28 26 27 33 35 28 30 32 34 35 38 40 39 36 31 30 31 35 38 39 42 43 44
27 22 16 15 26 31 31 31 29 28 28 27 26 20 19 24 28 26 25 26 26 27 31 32 31 30 32 33 36 39 40 41 41 36 38 38 36 38 38 41 43 46 48
21 26 18 20 23 24 25 26 27 26 18 19 20 14 12 17 19 20 23 26 29 28 29 30 30 30 32 37 39 41 38 38 35 36 39 38 40 41 43 44 47 49 50
19 23 24 23 26 26 27 28 28 26 18 19 14 18 16 17 21 20 22 23 25 26 28 28 29 32 33 37 40 41 41 36 35 39 40 39 41 43 48 50 50 52 50
21 25 25 29 24 27 28 29 24 19 21 21 21 22 21 20 23 24 25 24 27 29 29 32 31 33 35 38 40 42 39 36 39 41 41 41 44 49 49 51 53 55 54
26 27 26 25 28 28 27 26 23 21 23 24 23 23 22 23 22 25 29 30 30 31 34 38 38 36 37 39 39 40 39 39 41 42 42 45 48 49 51 53 54 56 57
24 33 31 31 28 33 28 29 26 25 26 25 22 23 25 27 29 33 32 32 35 38 41 43 42 44 40 41 42 43 41 45 47 46 47 48 50 52 54 56 58 59 60
8 11 20 24 23 25 24 25 25 25 29 26 29 26 30 32 34 36 38 40 41 41 43 42 40 39 46 41 46 44 46 47 47 49 50 51 53 55 57 59 61 62 64
13 12 12 13 17 19 21 22 22 25 27 25 27 29 33 34 36 36 37 40 45 49 48 44 46 45 46 46 47 47 48 49 49 52 53 56 57 59 60 61 64 66 68
14 14 14 16 19 19 20 21 21 24 25 26 28 31 33 36 38 41 44 47 47 52 51 49 48 51 47 49 44 49 49 51 53 56 57 58 62 63 64 65 67 69 71
16 17 19 21 22 23 24 26 25 26 29 31 33 36 39 42 44 47 48 50 52 54 54 48 49 52 51 48 50 53 50 53 56 58 61 61 64 66 68 69 71 72 74
21 24 22 25 24 25 28 28 28 30 33 35 36 39 43 45 46 46 55 59 59 53 51 54 53 52 51 52 58 57 54 57 61 63 63 64 67 68 70 71 73 73 79
21 21 20 18 23 25 27 29 32 33 34 38 36 38 38 42 44 49 58 62 47 42 47 52 48 54 53 59 60 60 61 62 64 66 67 68 69 71 71 72 74 80 79
25 24 24 24 26 27 29 29 30 32 33 35 37 38 39 41 42 42 41 46 45 44 50 53 56 51 61 62 63 64 65 65 66 68 69 70 70 71 72 80 80 77 78
29 30 30 29 30 32 31 31 34 37 39 39 44 46 43 44 47 45 44 46 47 52 53 55 57 61 64 63 65 67 68 66 65 67 69 69 73 78 76 74 78 81 81
33 32 32 33 33 34 35 36 39 42 44 45 46 46 47 52 49 49 49 49 47 57 46 58 60 63 64 68 70 71 70 69 70 72 75 78 76 76 81 83 87 84 86
35 34 34 36 38 38 37 38 40 44 46 47 46 46 48 48 47 47 53 51 53 56 58 62 63 63 70 72 71 64 65 73 72 75 81 78 78 82 87 83 86 86 90
36 38 40 41 42 42 43 42 42 46 48 47 47 46 48 51 50 50 51 55 58 60 60 65 64 67 73 71 69 67 75 74 80 85 80 84 86 84 86 87 89 91 92
39 38 39 40 43 46 48 48 48 49 50 51 52 52 52 53 55 56 58 59 59 58 65 61 67 70 64 65 63 80 84 89 86 82 88 90 88 88 90 91 94 96 95
39 38 40 42 44 44 47 50 54 55 56 55 56 57 58 59 60 60 61 62 62 63 65 68 74 67 66 73 80 89 87 83 86 90 90 89 89 90 88 92 96 96 90

GFSMA_500_spd_072.txt.gz
Wind_Speed
27 30 25 29 34 47 46 32 35 32 31 28 29 28 24 21 21 19 19 18 22 23 21 21 19 17 14 17 14 12 16 14 16 18 19 19 20 23 24 25 28 28 27
27 30 34 31 30 45 40 37 36 33 32 29 30 27 24 20 22 23 23 21 23 26 21 20 19 16 16 16 12 14 16 16 18 20 23 24 25 26 27 30 29 28 28
27 30 22 25 29 43 40 35 36 34 33 31 31 27 24 22 21 22 23 24 24 27 24 22 20 19 18 19 27 17 18 20 22 22 24 25 28 30 30 31 31 27 24
29 32 32 27 25 40 40 35 39 37 36 30 33 24 22 21 22 23 23 24 26 28 25 22 22 21 23 28 17 18 19 22 23 25 27 29 31 34 33 31 28 25 30
36 32 29 30 27 40 43 43 43 41 38 32 33 27 24 25 24 23 24 25 27 29 26 23 25 22 25 29 22 21 23 25 26 28 30 33 35 35 32 29 26 31 35
28 21 29 34 26 33 38 50 49 42 38 37 36 32 30 28 26 25 24 24 26 26 24 26 25 25 30 27 24 24 25 28 31 33 33 34 36 35 32 31 33 33 34
26 23 28 29 29 32 31 49 48 41 40 40 36 32 33 29 26 24 24 24 24 24 23 27 28 28 25 28 28 27 28 31 33 34 35 36 36 33 34 33 35 37 37
25 24 22 27 25 28 25 42 47 42 34 34 31 27 24 22 20 18 18 20 21 20 21 20 22 24 23 26 27 27 29 32 36 34 33 26 28 34 34 36 38 39 40
26 25 23 18 18 17 17 20 29 30 29 25 24 19 16 11 10 10 11 12 15 17 20 23 22 23 23 24 28 28 27 34 32 31 33 36 30 35 36 37 39 40 42
19 21 21 22 15 13 14 17 22 22 23 22 19 14 13 10 11 7 12 14 15 18 20 22 24 24 24 26 26 28 29 32 30 28 32 30 32 34 37 39 43 44 45
15 15 19 18 20 17 19 21 23 21 21 25 24 21 13 13 15 19 21 23 22 22 23 26 22 23 26 31 34 36 36 35 32 31 33 32 34 38 40 43 46 48 50
21 17 15 18 22 20 22 24 24 25 31 22 23 25 23 22 20 21 21 22 23 24 26 26 29 34 34 38 38 40 40 36 37 35 37 38 38 41 42 45 48 50 53
18 20 26 29 24 24 23 27 28 32 29 26 25 26 25 24 24 23 26 26 30 31 35 32 33 37 39 41 39 36 36 41 41 40 42 43 43 46 45 47 49 52 55
15 12 13 23 28 28 27 29 30 27 27 26 27 26 27 24 23 25 29 32 34 36 36 35 38 40 44 46 47 41 43 43 42 45 45 45 46 49 49 49 52 55 59
12 12 10 7 10 15 20 23 20 19 22 25 26 26 27 29 31 32 32 33 37 36 38 38 44 46 47 50 49 52 50 48 46 47 47 50 51 51 51 52 55 58 61
17 16 14 13 13 14 16 17 17 16 20 23 23 27 28 29 32 33 32 36 39 43 45 43 45 51 52 49 53 48 53 49 51 50 50 53 54 54 52 53 56 59 61
15 16 16 17 17 18 20 20 19 21 22 24 25 27 29 31 34 36 39 38 42 46 49 48 47 49 53 54 53 53 52 49 58 53 55 58 55 55 55 57 59 60 62
14 16 18 18 20 22 24 24 24 25 26 28 29 31 32 34 38 39 43 44 49 49 50 51 54 44 45 44 50 49 45 53 52 60 62 57 55 57 58 60 60 62 64
18 19 19 21 21 21 23 24 26 29 32 34 35 36 36 40 41 42 45 45 46 47 47 46 40 45 45 48 51 53 48 43 49 60 61 61 63 61 61 62 63 64 69
22 23 24 24 23 24 23 24 26 28 30 33 34 37 38 38 38 39 47 47 47 50 49 49 49 50 48 46 57 57 53 53 59 61 54 69 68 67 62 63 69 76 71
25 26 26 26 28 28 28 30 32 33 34 36 38 40 41 43 44 47 46 49 47 49 54 54 52 54 54 53 52 57 64 62 63 64 61 81 69 60 65 71 79 72 73
29 31 32 32 31 30 29 31 34 36 38 40 41 42 44 46 46 49 51 54 56 50 50 49 58 53 59 61 60 56 58 65 62 60 73 71 61 65 73 77 77 79 81
32 31 32 35 35 36 36 37 37 40 42 43 44 44 45 46 46 49 51 55 56 56 51 59 57 57 57 60 61 66 68 68 63 73 57 58 61 73 75 78 81 84 81
34 33 30 31 33 34 37 38 40 44 46 47 48 48 48 49 49 51 53 54 56 57 56 58 60 62 63 63 65 65 67 65 69 63 70 63 72 77 86 89 90 89 85
41 36 37 39 39 38 39 39 41 44 45 48 50 53 54 55 55 54 56 58 59 61 61 61 61 63 68 67 69 65 70 69 77 82 74 72 80 88 93 93 91 86 85
43 48 45 42 41 41 43 46 49 49 46 48 48 51 54 55 57 62 63 63 64 65 65 67 68 68 72 71 64 70 73 71 65 67 76 81 93 93 92 90 86 88 91

GFSMA_500_spd_075.txt.gz
Wind_Speed
27 27 22 24 31 26 35 36 35 35 29 33 29 19 24 20 21 18 20 18 17 15 16 18 20 21 17 16 14 12 11 10 13 14 15 15 16 17 17 19 22 24 24
24 24 24 21 22 29 27 36 39 39 31 36 31 22 24 20 21 20 21 21 18 17 18 22 22 20 18 19 15 16 12 14 15 15 15 15 15 17 20 21 25 26 26
27 25 20 25 24 20 27 33 40 41 33 39 32 24 24 23 23 22 23 20 18 19 20 25 22 22 19 19 21 19 22 24 18 16 16 16 18 21 24 26 27 25 22
27 28 21 23 26 20 25 32 39 41 36 39 33 26 24 25 24 24 22 21 20 22 22 26 24 21 23 21 24 24 24 23 20 19 18 21 23 24 25 26 25 25 25
29 33 24 20 26 29 19 31 40 43 36 39 33 30 26 27 28 25 23 22 21 22 23 27 25 25 25 26 26 26 25 25 21 20 22 24 26 26 24 24 20 26 30
29 32 34 35 31 24 19 22 39 40 39 38 36 33 31 31 29 29 27 23 22 22 23 26 28 27 28 28 26 27 19 21 22 23 25 28 27 23 19 22 25 28 28
23 24 25 20 16 17 23 22 28 39 38 44 42 37 35 35 37 30 26 25 23 21 21 21 22 22 25 24 26 21 18 22 26 27 28 29 28 29 28 27 28 30 32
28 24 19 16 17 18 24 26 25 28 29 35 45 40 35 34 27 24 22 21 23 19 18 16 16 18 18 18 22 23 23 27 28 28 24 28 30 29 30 28 32 32 31
20 21 21 21 21 21 24 23 25 27 28 29 36 31 29 25 24 18 18 12 10 12 13 16 20 18 18 18 21 24 25 28 31 31 25 26 25 28 27 29 32 32 32
19 23 22 23 21 18 21 22 22 23 22 23 27 22 22 21 17 15 14 13 9 10 12 15 16 18 20 20 23 24 27 30 31 35 34 33 32 30 29 30 32 32 33
10 13 15 15 19 18 16 17 17 15 16 20 22 21 20 22 22 21 18 18 17 17 18 19 18 20 22 23 22 23 29 32 36 41 43 37 37 34 33 34 37 39 40
15 16 12 12 15 19 18 19 20 20 21 24 24 22 24 27 23 22 21 22 20 19 19 17 19 20 24 27 29 31 35 33 34 34 38 38 40 38 38 39 41 42 43
14 18 19 18 21 22 23 23 22 22 24 25 27 26 27 29 31 28 27 25 23 25 25 22 24 28 30 31 34 35 38 39 39 37 37 40 41 41 41 41 42 45 48
16 15 17 21 24 26 29 26 24 28 27 31 28 31 32 29 30 29 28 28 28 28 32 24 28 28 32 35 36 38 41 40 42 46 44 47 50 49 49 49 46 47 50
9 11 12 13 12 15 23 27 28 28 29 29 35 34 31 29 31 30 28 30 33 36 34 29 32 34 37 40 42 45 47 48 44 45 44 46 53 51 51 52 52 50 53
10 11 13 15 14 11 12 15 18 21 21 22 25 30 30 31 31 32 33 37 39 37 37 33 37 38 42 44 48 48 52 53 51 48 51 54 50 54 55 59 55 55 55
12 13 13 15 15 15 15 16 18 20 21 24 25 28 30 31 32 35 38 39 37 38 42 40 42 42 47 47 46 50 45 42 42 43 47 44 50 57 59 59 61 64 59
12 13 13 16 17 16 19 19 21 22 22 23 25 28 29 34 34 36 37 37 39 42 44 47 45 44 45 46 47 45 47 45 47 45 44 51 47 49 55 61 64 59 63
13 13 16 18 20 22 22 22 23 25 25 26 29 30 30 33 33 35 36 38 40 43 45 45 45 48 46 46 48 50 51 53 49 51 52 49 49 52 54 62 61 61 61
18 20 20 21 22 22 21 23 24 24 27 28 31 31 32 35 36 38 40 41 41 44 47 48 47 48 48 49 46 50 51 54 56 53 48 52 62 51 54 58 64 62 71
21 23 23 23 25 25 25 26 27 28 30 33 34 35 36 37 40 42 45 44 47 50 52 57 57 55 52 51 52 57 51 53 52 54 54 59 58 63 63 68 62 70 76
26 26 24 26 28 30 29 30 32 32 34 35 35 36 37 39 41 44 46 49 51 52 53 53 52 54 51 53 51 58 55 53 55 59 61 58 55 60 58 68 70 72 77
29 28 26 29 31 31 32 33 35 38 39 40 41 42 42 42 43 44 45 48 50 52 53 53 55 56 58 57 56 55 63 57 64 61 56 66 68 69 65 70 76 69 71
34 34 33 37 34 32 33 34 36 39 38 38 41 42 43 46 48 49 49 50 52 53 55 57 60 62 62 63 64 63 65 65 61 69 66 70 75 68 67 65 72 72 78
41 39 38 43 45 38 38 36 38 41 44 45 45 44 44 44 45 44 47 50 51 52 53 54 58 64 66 67 68 68 68 71 63 64 70 73 73 73 67 71 72 79 82
45 44 44 46 47 44 46 42 45 47 49 51 51 51 53 55 57 58 63 64 63 61 57 60 64 65 68 73 71 63 69 66 65 68 69 63 68 78 77 80 81 81 81

GFSMA_500_spd_078.txt.gz
Wind_Speed
34 28 29 26 23 24 25 24 28 37 32 30 28 28 25 20 17 16 18 18 18 17 19 18 19 21 22 19 19 18 17 16 14 14 14 14 14 15 13 14 15 17 18
35 32 28 26 26 27 26 26 28 28 32 34 30 33 25 22 18 18 19 19 18 21 21 20 22 23 22 20 19 18 18 16 16 18 17 15 16 15 14 17 17 19 18
31 28 25 24 22 22 24 29 25 33 35 34 33 31 27 26 21 21 21 22 21 22 21 23 24 25 23 24 22 22 21 22 21 19 19 17 15 17 18 18 19 19 18
29 27 25 25 25 19 17 17 24 29 35 37 36 35 29 29 27 24 24 23 21 22 23 23 25 27 27 28 25 25 26 24 24 31 26 20 21 21 20 22 20 20 19
26 25 27 21 20 19 21 19 18 26 32 33 39 34 31 33 29 29 26 24 23 23 25 26 27 29 31 27 26 27 26 30 30 27 27 27 24 23 24 23 21 20 22
24 29 23 28 20 12 19 25 24 27 34 33 39 37 37 37 33 31 29 29 28 29 28 29 29 30 33 29 29 30 30 28 28 23 25 24 25 26 28 27 25 27 25
36 23 21 32 27 25 27 29 25 22 31 34 35 35 37 40 37 35 31 32 33 31 30 28 27 27 28 29 33 30 29 27 22 25 26 26 26 27 28 27 27 27 26
30 29 28 26 28 19 22 24 21 18 22 29 37 39 37 40 39 35 34 32 31 28 28 24 22 21 20 20 22 24 25 25 25 27 29 29 30 27 28 27 28 28 29
32 29 28 22 21 23 25 23 22 20 22 23 29 30 29 35 38 34 33 30 28 27 25 22 21 20 21 21 23 26 28 29 28 28 29 30 31 32 30 32 32 33 33
30 31 27 25 24 26 25 23 22 21 23 21 26 27 30 25 30 28 28 27 26 23 21 20 21 22 22 23 24 25 28 28 28 27 29 33 35 37 37 37 35 36 37
26 26 26 27 24 24 23 24 17 17 18 19 24 24 20 23 25 26 25 28 26 24 19 18 19 21 23 24 25 27 29 29 28 29 28 32 35 37 38 41 38 40 40
20 20 21 20 18 18 20 18 16 16 19 22 25 22 22 25 25 25 29 30 25 24 22 22 22 24 26 26 27 29 32 31 31 33 35 37 38 38 37 39 44 43 42
18 19 20 17 17 19 20 18 21 25 26 27 27 26 27 27 26 29 30 35 30 29 27 24 23 27 27 28 31 31 34 33 32 34 37 40 39 39 41 43 45 46 45
18 17 21 22 18 18 21 25 28 32 32 31 27 26 29 29 28 31 33 36 36 33 32 25 28 29 33 32 34 34 33 34 37 39 43 45 43 44 44 45 44 44 50
15 18 16 17 16 16 20 25 31 35 30 30 29 29 34 32 31 36 37 39 40 37 36 30 31 34 38 38 36 37 38 40 42 45 47 50 51 51 47 48 53 52 50
8 10 12 14 15 15 15 12 11 23 28 30 31 32 35 38 37 36 37 37 39 40 37 33 36 37 40 41 40 44 45 46 45 44 45 42 43 42 43 47 50 52 56
11 12 13 14 14 16 16 14 13 17 20 23 26 27 28 32 35 38 36 37 37 41 44 38 40 41 42 42 42 45 47 47 46 45 45 47 46 46 49 47 47 53 55
11 10 12 13 14 16 17 15 16 18 21 23 25 28 28 32 33 36 39 41 42 44 45 45 42 44 47 44 45 47 47 49 48 48 51 52 50 50 51 53 54 49 50
12 14 15 16 18 18 18 19 19 20 22 25 28 29 29 33 32 34 37 38 40 42 46 48 47 47 49 48 45 43 47 50 52 51 49 46 52 54 53 52 49 51 56
19 20 20 21 22 23 22 23 24 25 25 25 27 29 32 33 33 35 37 40 42 46 47 50 50 49 48 51 51 51 55 53 55 56 56 55 54 52 47 53 61 56 54
19 22 22 22 25 27 27 29 30 31 31 32 34 34 35 37 37 37 39 39 42 46 49 51 53 53 52 53 52 51 52 53 52 52 52 55 55 55 52 59 64 55 59
25 26 26 28 28 26 28 30 32 34 37 37 36 37 37 38 37 38 40 42 45 47 49 50 51 52 51 52 53 51 54 54 56 56 58 58 62 62 59 60 63 65 58
30 30 31 32 29 28 28 30 34 37 37 39 41 42 43 43 44 45 46 49 50 50 50 50 50 50 51 52 53 55 52 50 51 56 59 62 64 67 69 65 64 70 70
36 36 35 36 37 35 36 37 41 41 41 39 39 41 45 44 44 44 46 45 45 47 48 48 47 47 51 52 55 58 58 57 54 63 61 64 67 70 70 63 69 67 69
38 39 42 44 42 40 44 45 43 47 48 47 46 46 46 48 49 50 51 51 52 52 54 56 59 62 60 60 65 69 67 68 58 64 60 63 66 67 70 72 74 72 72
46 44 48 49 50 50 49 49 49 52 53 53 52 54 54 56 57 57 58 58 60 62 63 61 64 67 67 70 71 74 63 62 66 67 71 62 69 75 72 72 76 74 75

GFSMA_500_spd_081.txt.gz
Wind_Speed
32 39 36 32 29 26 23 27 30 29 30 28 30 29 22 23 20 18 17 17 18 19 19 18 17 20 21 23 25 25 25 23 24 22 21 18 19 19 17 17 17 16 15
40 39 37 25 26 29 18 18 25 23 24 32 33 29 26 23 25 19 19 20 20 22 23 22 21 21 23 25 26 28 28 24 24 21 18 19 20 19 17 17 16 16 16
43 38 34 27 26 28 23 24 23 22 24 36 33 30 28 29 25 24 23 23 21 23 24 24 22 23 24 27 29 29 27 23 24 21 21 22 20 19 18 18 18 19 19
44 38 35 27 29 25 23 23 23 18 25 29 27 31 32 31 28 29 26 26 25 25 24 23 22 24 26 27 31 31 28 27 26 24 26 26 27 24 23 21 23 23 22
50 33 27 27 27 22 16 17 19 23 22 25 29 35 37 34 32 33 30 31 28 26 24 23 24 26 27 29 31 33 31 29 29 30 28 31 30 29 29 27 27 27 24
46 29 24 25 26 24 22 23 23 18 18 26 32 38 39 36 38 37 32 33 32 30 27 27 29 29 30 31 32 34 34 31 32 30 35 31 31 30 31 28 29 31 29
36 32 31 30 25 23 20 19 19 26 24 24 27 31 36 33 40 40 35 37 36 31 31 33 32 33 32 32 34 35 34 33 35 38 32 30 28 30 31 28 28 24 28
36 28 27 29 26 29 27 24 27 29 24 23 25 28 34 34 38 40 40 43 37 34 33 34 35 34 32 31 33 35 35 38 39 33 29 29 31 32 31 28 25 24 26
35 32 27 25 25 27 29 31 25 24 23 20 21 23 31 31 36 40 37 41 41 38 36 33 35 34 32 31 32 31 30 31 31 30 31 31 30 29 31 32 33 35 35
32 34 32 27 26 27 26 28 26 23 24 21 21 24 28 29 37 35 37 38 39 35 35 35 36 35 34 33 31 29 29 30 30 31 30 30 30 30 32 35 37 38 38
30 32 32 30 31 29 25 24 24 24 25 26 24 27 30 28 36 38 33 33 33 35 35 33 31 31 30 30 28 28 30 30 30 31 31 31 30 34 35 37 38 39 40
30 22 27 30 31 28 25 26 24 25 26 24 23 25 26 30 30 31 30 29 33 33 32 29 25 26 27 26 26 27 29 30 31 34 35 36 36 39 39 39 37 40 41
31 29 28 27 29 26 25 26 26 25 26 22 24 24 25 29 31 30 27 29 31 31 31 30 27 27 29 29 27 27 30 31 34 36 38 42 41 41 44 45 46 47 47
20 20 20 23 26 24 24 25 24 27 26 25 25 27 30 34 33 32 29 31 32 35 36 33 36 32 31 30 32 33 35 37 38 37 37 38 40 45 49 52 51 52 51
19 18 17 22 23 20 21 21 25 26 29 29 29 33 35 33 32 33 35 34 35 36 37 37 36 35 34 37 35 38 40 40 41 39 42 43 46 48 48 48 43 44 42
18 20 22 22 23 26 22 20 18 20 29 34 34 35 34 34 33 35 39 38 38 37 38 38 44 42 41 42 39 43 45 44 44 45 46 48 51 50 48 47 49 47 48
12 12 14 18 20 20 21 21 18 17 15 20 29 33 33 34 36 36 41 42 40 42 42 34 42 44 43 45 47 48 47 47 48 48 49 50 50 51 51 50 51 53 52
12 13 14 15 16 19 18 17 20 20 19 20 23 26 26 28 30 31 35 38 42 44 43 40 43 45 48 50 50 50 48 49 52 51 48 49 48 51 54 55 50 53 56
14 15 16 17 18 18 18 19 21 22 23 24 25 27 27 31 30 32 34 38 39 42 46 48 47 47 50 51 52 52 49 50 50 51 55 55 56 56 56 57 58 56 57
17 18 19 19 20 21 22 23 25 26 27 28 30 29 30 32 33 37 39 40 41 45 47 50 51 50 52 51 53 51 49 51 52 55 55 56 57 55 55 56 58 57 56
21 22 22 24 27 26 27 29 32 33 34 35 36 34 34 35 36 38 42 41 44 48 50 52 54 53 52 50 52 51 52 51 52 54 54 55 56 57 59 58 59 59 61
26 26 25 26 27 28 29 31 33 35 37 37 35 35 37 42 42 43 44 45 48 50 52 54 55 57 53 53 51 53 52 54 55 53 56 56 55 54 55 60 60 61 61
31 30 31 31 32 32 33 36 37 37 37 36 36 37 39 38 40 45 48 51 53 54 58 58 59 58 59 57 56 56 57 52 52 57 57 58 58 65 63 66 71 64 63
36 36 37 37 39 37 39 40 40 44 45 44 44 43 44 44 45 46 48 52 53 56 56 56 57 54 52 50 52 55 57 61 64 64 64 66 74 72 72 78 70 71 69
44 41 44 44 43 44 44 45 44 48 49 49 49 51 54 53 53 52 55 55 56 57 59 60 62 61 61 60 59 60 62 67 71 69 68 74 83 81 80 80 72 76 71
45 44 48 47 45 47 51 49 52 49 50 55 61 59 57 55 60 61 61 62 66 66 66 67 68 68 69 72 71 73 73 72 74 72 80 82 94 92 89 70 67 69 73

GFSMA_500_spd_084.txt.gz
Wind_Speed
30 30 29 33 35 35 22 29 29 35 37 33 32 34 31 27 23 20 20 17 19 19 18 19 19 17 17 19 21 23 24 24 24 24 26 27 25 25 23 22 21 18 19
32 34 40 35 34 37 25 31 36 33 42 35 39 35 26 28 25 23 22 18 20 22 21 20 22 22 21 21 23 25 25 26 26 26 28 29 25 22 19 24 21 19 19
29 29 40 45 38 33 26 24 27 25 24 26 31 30 26 30 27 27 22 22 22 24 22 22 22 23 23 23 23 26 28 28 29 28 27 28 25 28 29 26 22 20 19
30 32 37 44 45 30 32 26 24 21 21 22 23 27 30 33 31 28 26 24 23 24 24 23 24 23 25 24 24 27 29 30 30 28 27 30 26 28 29 26 23 24 23
29 37 44 44 37 31 31 24 25 22 23 22 24 30 32 34 33 32 29 30 28 27 26 25 26 26 26 26 27 29 30 31 30 30 32 32 31 30 31 34 33 28 28
28 43 47 43 32 26 27 27 24 25 29 27 23 30 30 32 33 35 33 34 31 30 29 28 31 30 29 30 30 32 32 32 32 33 31 32 33 36 36 35 32 33 31
31 47 46 36 29 32 28 26 25 23 22 22 24 26 31 33 34 36 37 37 35 33 32 30 33 33 34 37 36 35 33 34 34 35 34 34 37 37 35 33 30 30 30
38 48 41 33 30 28 26 25 26 21 23 26 25 28 28 28 31 36 40 42 43 38 37 35 35 35 37 38 40 37 35 35 36 36 35 36 38 40 35 32 31 32 31
46 50 39 30 30 23 23 24 24 21 21 28 30 29 28 26 31 36 37 40 41 44 33 36 36 41 41 40 41 39 37 37 36 37 36 40 38 34 32 31 32 31 33
46 45 37 31 30 27 22 23 27 27 27 26 30 29 29 26 30 28 31 35 35 35 37 38 40 41 42 41 42 39 37 37 35 33 31 32 33 33 32 31 30 31 34
40 36 28 28 29 26 26 26 25 28 29 26 28 29 27 27 29 27 30 29 36 37 40 39 40 41 42 42 38 36 37 33 31 31 31 32 32 32 32 31 32 35 38
27 20 25 31 29 27 26 26 28 29 27 27 30 31 29 30 28 32 28 32 38 39 40 39 37 39 40 35 33 33 33 31 30 31 31 32 34 35 35 36 38 42 42
29 30 24 25 27 31 29 30 31 30 29 29 29 31 31 30 32 32 30 33 38 36 37 33 33 36 34 32 30 30 30 30 31 31 31 32 33 35 39 42 45 44 44
26 25 22 27 30 32 33 28 27 26 26 27 29 29 29 28 27 28 29 32 35 34 33 30 33 32 32 32 31 32 33 31 31 33 35 37 38 40 43 43 46 44 46
23 25 27 27 24 23 24 23 22 21 24 25 26 30 31 28 28 27 28 32 35 36 36 33 35 36 36 38 38 35 35 36 38 38 42 41 42 45 46 48 49 48 49
17 15 15 17 18 20 21 20 19 22 24 25 30 34 32 31 31 32 32 36 36 38 41 39 37 38 40 42 42 42 43 43 43 45 45 46 48 49 51 51 50 50 50
20 19 20 21 22 21 22 23 22 22 19 20 22 25 30 32 35 39 40 38 39 40 44 45 41 40 42 43 47 51 52 50 49 47 49 52 52 54 54 56 54 49 48
14 14 13 12 12 16 17 19 22 24 22 21 21 20 20 27 32 34 36 38 40 40 45 45 45 46 47 45 46 48 48 51 53 53 53 54 55 56 56 54 54 56 57
15 16 16 16 16 17 18 21 23 24 24 25 26 24 23 28 27 30 32 35 37 39 42 45 42 42 43 44 47 49 49 51 54 54 55 56 56 58 57 58 58 58 57
17 18 18 18 19 20 22 24 26 26 26 28 29 29 30 31 31 33 36 37 38 41 43 46 47 45 45 44 48 48 49 51 53 55 58 57 58 59 60 61 62 60 60
19 19 20 22 24 25 28 30 31 31 32 33 33 34 34 35 35 36 39 38 41 44 46 48 51 51 50 49 50 51 54 52 55 57 58 58 59 61 59 60 59 60 64
22 23 24 24 24 25 27 29 30 31 32 32 32 34 37 39 38 39 40 42 44 48 50 52 55 57 57 55 53 55 55 56 57 54 60 60 61 61 60 57 59 62 63
27 28 29 30 30 32 32 32 33 35 36 36 34 35 36 37 39 41 41 44 46 47 49 51 52 55 56 60 60 59 59 59 59 59 57 57 56 57 60 63 65 66 64
31 33 33 36 37 38 37 39 39 41 42 41 41 42 44 44 46 47 49 50 50 54 53 56 58 58 59 58 60 61 62 62 62 66 67 66 66 65 65 68 71 75 73
36 37 36 39 42 43 43 43 46 47 48 47 48 50 52 50 51 49 54 58 57 57 58 62 62 65 69 69 68 70 71 72 71 73 72 73 76 78 77 76 80 75 83
42 43 44 46 48 45 46 49 51 50 55 53 52 59 55 59 58 55 58 61 66 67 68 74 63 67 75 79 78 81 81 78 84 76 80 88 85 93 85 81 82 80 82

GFSMA_500_spd_087.txt.gz
Wind_Speed
21 29 26 28 30 35 29 35 33 32 34 31 32 31 32 32 32 28 21 21 19 19 18 18 18 17 18 18 19 21 20 21 22 24 24 23 24 24 25 23 25 24 22
25 26 28 28 27 35 29 36 30 28 30 31 35 34 36 36 36 28 25 23 24 23 24 21 20 20 22 23 21 22 21 22 23 25 26 26 25 26 27 24 23 22 23
26 34 33 30 31 32 37 36 27 27 28 34 33 35 39 39 37 29 28 28 25 23 24 25 23 23 23 23 23 23 23 25 25 26 27 28 28 27 24 24 21 29 27
27 30 32 32 33 36 38 36 29 29 32 32 30 41 40 38 31 30 30 29 28 26 25 26 26 25 23 24 25 25 25 26 26 28 29 30 29 27 26 25 27 29 26
28 29 29 31 37 43 42 35 29 27 28 30 29 32 37 31 34 33 33 30 30 27 26 26 27 26 25 23 25 26 27 28 28 29 31 31 29 29 31 32 28 32 33
27 26 28 27 37 44 42 31 29 30 26 28 27 29 31 29 34 34 33 31 32 32 29 29 29 30 29 25 26 29 31 31 31 32 33 32 33 32 34 32 34 36 35
29 27 28 30 42 45 40 33 32 31 28 25 25 21 20 24 29 29 32 34 34 34 33 32 33 34 33 31 31 32 34 35 36 36 35 35 33 34 34 35 37 37 35
32 27 26 35 43 48 29 32 33 29 29 30 27 26 22 24 25 29 34 38 35 36 37 38 39 39 36 34 36 36 36 38 40 40 38 37 36 39 36 37 36 37 33
29 37 30 37 42 39 35 34 33 31 23 23 24 24 24 22 26 29 31 33 35 39 39 42 43 42 41 39 38 40 43 42 41 42 40 37 37 39 37 39 39 35 30
28 31 39 42 44 29 32 34 33 30 29 27 26 25 30 31 32 31 31 33 35 37 39 42 44 34 40 42 43 41 42 44 44 41 39 36 36 37 34 32 31 29 30
24 34 45 47 44 32 38 37 31 28 31 29 29 27 28 31 32 32 32 34 33 31 33 34 37 38 41 44 44 42 43 42 43 40 35 33 33 33 31 31 31 32 33
21 40 46 48 41 42 34 31 27 28 29 31 30 30 29 32 33 32 32 31 27 26 27 33 37 39 42 42 41 39 38 41 39 36 33 32 32 32 32 31 32 33 35
22 42 43 38 35 33 34 30 28 28 29 29 30 32 32 33 34 33 29 28 28 28 32 33 35 36 36 36 33 32 36 38 34 30 28 30 32 33 34 33 33 35 38
23 34 26 26 26 29 31 27 27 28 28 31 30 32 31 31 33 31 27 28 27 30 30 30 33 35 33 31 30 31 33 34 30 29 32 35 36 36 37 35 37 39 41
15 18 21 28 24 27 36 28 29 29 28 26 27 28 28 31 33 33 31 29 29 28 28 28 32 34 32 34 34 36 35 34 35 37 36 37 39 42 43 42 41 42 45
19 24 26 24 21 23 26 27 26 23 22 18 21 21 22 26 28 30 32 30 30 30 32 30 33 36 36 38 39 41 43 44 46 45 43 44 46 47 46 47 48 50 50
17 18 16 15 14 17 20 19 19 20 18 20 21 23 22 24 30 34 32 33 31 34 39 36 39 38 41 44 45 45 43 44 44 46 50 54 55 54 53 52 53 55 55
10 12 13 12 14 17 20 20 21 23 23 21 23 22 20 22 21 21 26 29 32 33 37 38 36 39 42 42 42 45 50 49 48 48 46 48 50 51 54 56 58 58 58
8 9 10 11 12 11 12 17 19 20 21 22 22 24 24 26 24 26 26 29 31 34 37 40 37 38 40 41 42 44 43 46 48 48 50 51 53 55 56 58 59 61 61
11 11 12 13 14 15 17 19 21 23 24 25 25 25 26 28 28 30 32 32 34 37 38 40 40 39 41 40 45 45 47 48 48 51 52 53 54 56 58 59 61 64 66
11 12 13 15 16 19 21 22 23 24 25 26 28 29 30 32 34 36 37 36 39 40 41 43 46 46 44 44 45 47 50 49 51 52 54 55 56 58 61 61 63 65 67
18 19 20 20 20 22 22 22 23 24 26 27 29 31 33 35 34 35 37 39 41 42 43 45 46 47 46 47 47 47 48 51 52 51 55 58 59 62 64 67 69 70 71
23 24 24 25 26 24 24 26 26 27 30 30 32 33 34 35 36 36 37 39 40 43 48 49 50 51 50 52 52 54 54 55 55 56 59 62 64 65 65 65 65 67 69
24 25 27 27 27 28 29 31 33 34 36 37 36 37 38 39 41 41 42 43 48 50 50 51 54 58 59 60 63 63 63 64 62 71 60 70 75 72 74 69 73 74 75
24 28 30 32 34 35 35 36 37 39 42 44 46 47 48 48 49 49 51 54 56 56 57 57 63 66 63 68 69 67 68 71 71 70 71 75 79 77 80 75 78 86 82
33 33 34 35 36 38 40 42 42 50 50 51 48 51 48 51 53 56 56 57 53 62 61 63 67 71 70 69 64 70 77 75 75 82 83 86 93 89 87 85 84 87 86

GFSMA_500_spd_090.txt.gz
Wind_Speed
29 25 26 26 23 18 26 27 27 36 34 36 40 37 37 37 33 31 30 29 26 23 22 21 20 19 17 16 17 18 19 18 19 19 20 21 21 22 24 24 25 25 22
26 28 20 22 25 23 31 30 33 31 28 35 38 36 37 37 35 36 34 32 28 25 24 22 22 21 20 19 19 20 20 19 20 21 21 22 23 23 25 26 25 27 24
28 26 22 26 27 27 30 35 29 38 32 36 37 34 39 37 35 35 32 34 30 28 27 27 25 24 22 22 22 23 23 23 23 23 22 23 25 24 25 27 27 26 24
30 27 23 31 31 29 30 40 35 41 32 33 35 34 36 35 36 37 36 38 33 32 30 29 27 27 24 23 23 23 24 25 25 26 25 25 26 25 27 26 27 24 25
30 27 25 33 31 31 30 40 43 39 29 31 36 36 35 35 37 37 38 31 36 34 31 30 27 27 26 25 26 26 25 25 27 29 28 29 28 27 27 27 30 29 34
25 28 29 30 33 34 33 39 40 40 28 31 32 32 33 35 36 42 38 34 34 36 33 32 28 28 28 28 27 28 28 29 29 31 33 34 34 31 31 30 32 35 36
21 24 31 31 32 33 35 41 43 40 29 34 34 32 31 33 30 33 36 34 34 35 34 35 34 33 32 32 32 32 33 34 34 34 35 36 38 37 36 33 36 35 36
24 24 30 31 32 34 38 47 47 41 31 31 26 26 25 26 22 24 31 35 33 36 36 37 37 37 37 37 37 37 37 37 36 39 39 41 42 43 38 39 34 37 37
27 26 32 31 31 34 43 46 45 35 32 31 29 25 25 24 25 23 26 29 31 33 38 41 40 39 40 41 41 40 40 40 40 41 44 45 42 43 45 41 36 38 37
25 27 36 39 36 34 40 50 41 37 34 29 28 27 28 27 26 27 31 32 34 33 37 38 38 38 40 43 44 37 40 43 45 47 45 44 43 40 42 37 33 35 33
28 28 32 33 32 35 44 47 35 32 31 29 27 25 27 25 27 31 36 37 36 37 37 39 37 35 38 41 42 43 44 45 46 45 43 41 40 38 36 32 30 29 28
29 26 30 36 38 37 43 45 36 33 32 34 32 31 28 29 31 31 37 39 38 38 38 36 30 31 33 35 37 38 40 40 39 38 36 36 35 32 31 30 30 29 29
28 29 27 37 39 46 40 34 35 33 36 35 35 33 34 34 35 34 33 35 36 35 32 29 25 26 28 30 31 32 34 32 30 29 30 32 30 30 29 29 30 32 32
23 22 27 37 45 48 39 35 36 39 34 31 32 32 32 33 35 35 33 34 33 31 30 26 29 28 26 26 27 31 30 28 29 29 29 30 30 32 34 34 34 35 36
22 20 26 43 43 48 41 42 40 34 30 28 30 29 31 31 32 33 34 33 32 30 29 30 27 25 25 26 28 31 33 32 34 34 35 34 35 37 37 37 39 40 41
15 21 27 32 24 28 30 33 32 32 32 28 29 30 28 29 28 30 28 29 28 30 30 30 30 29 29 29 30 32 34 39 40 40 41 41 41 43 44 45 45 48 49
16 14 26 30 20 25 25 31 32 33 28 31 28 25 22 23 25 25 26 27 32 35 36 32 34 34 35 35 33 36 39 40 42 45 46 46 46 45 45 47 49 50 50
13 10 20 27 22 25 26 24 24 21 23 23 22 22 21 20 23 25 25 25 24 26 31 32 30 31 32 32 33 35 38 39 40 41 44 44 45 47 48 50 52 53 54
8 10 11 12 14 14 15 19 19 21 21 22 21 19 20 21 24 26 27 24 25 27 30 32 29 31 32 34 35 37 37 40 42 44 45 45 47 49 52 54 56 55 56
8 9 10 11 12 13 13 14 16 18 19 18 18 19 20 23 24 25 26 27 29 32 34 38 37 34 35 33 39 40 43 44 45 46 48 50 51 52 55 56 57 59 59
10 11 12 13 14 14 14 13 13 15 17 18 20 23 24 26 27 29 31 31 33 34 37 38 41 40 38 38 40 42 43 43 43 46 49 50 52 53 56 58 61 62 62
14 14 14 13 14 12 14 15 16 17 19 20 22 24 25 26 27 29 30 30 32 34 36 37 37 38 37 39 41 44 46 46 49 51 51 53 55 57 58 58 59 61 64
19 19 19 19 18 18 19 20 20 21 23 25 24 25 26 27 29 31 32 33 35 39 42 44 45 44 45 48 50 53 53 58 56 58 61 60 64 64 65 67 70 69 68
22 21 23 23 23 24 25 24 25 27 28 29 30 31 33 35 36 37 39 42 44 46 47 50 51 53 56 57 57 59 63 61 70 60 71 64 75 75 73 78 80 78 79
22 24 25 25 25 24 26 28 31 33 33 36 37 39 40 43 45 42 40 42 46 53 54 53 53 55 58 57 55 61 65 61 70 75 74 77 80 77 82 80 81 83 83
23 25 26 26 28 28 29 31 34 37 39 41 43 47 47 47 46 47 52 55 57 58 60 64 64 63 66 64 66 69 68 73 77 83 82 82 83 83 85 85 88 89 90

GFSMA_500_spd_093.txt.gz
Wind_Speed
32 29 28 29 30 27 22 24 27 30 37 38 34 32 37 37 38 33 35 32 27 26 24 23 22 21 20 18 16 14 14 14 16 18 17 17 18 18 19 20 21 22 24
31 29 28 27 27 25 24 20 22 20 30 37 37 25 38 38 40 35 35 35 29 27 25 26 24 23 22 19 17 15 14 16 18 19 19 19 21 21 21 21 22 23 25
32 30 29 27 24 24 24 21 23 23 21 34 40 36 37 40 40 38 38 35 34 29 27 29 26 24 22 20 21 20 16 18 19 19 21 22 22 24 24 24 24 24 25
32 32 30 27 25 25 26 23 29 26 25 37 35 31 35 37 37 38 42 35 34 32 32 31 28 27 24 23 24 23 21 19 20 21 22 23 24 26 27 26 26 25 24
30 30 29 28 28 30 32 26 29 36 32 41 38 25 34 36 35 37 38 37 37 35 36 33 30 31 29 28 26 26 24 22 22 23 25 26 26 28 29 29 30 28 26
26 23 25 28 30 32 32 29 30 35 33 41 41 29 33 34 35 34 33 34 36 37 33 35 35 33 31 29 29 29 28 26 27 27 29 30 30 31 32 33 34 33 31
28 22 23 30 40 30 29 29 30 34 35 39 33 31 33 34 31 31 34 36 38 37 32 35 36 35 32 33 33 31 31 30 32 33 34 34 36 35 37 37 39 38 39
28 26 28 27 34 34 35 32 34 33 41 43 35 30 28 31 33 31 33 33 31 31 34 36 38 37 37 37 36 35 35 36 37 37 39 40 39 39 41 43 43 43 41
28 30 28 26 34 34 34 39 36 34 40 43 34 27 32 28 31 30 27 26 28 30 32 34 37 37 38 38 40 39 40 42 41 40 42 42 43 44 44 43 41 39 42
27 29 35 32 35 39 38 37 36 37 42 44 37 28 29 32 29 28 27 29 30 29 29 31 31 33 36 37 38 41 43 46 46 44 44 43 43 44 43 42 40 38 36
29 30 30 32 35 35 40 40 39 42 45 47 32 34 30 30 29 32 30 28 28 30 31 34 35 34 34 35 36 39 42 45 46 44 43 43 42 40 38 36 30 29 29
31 30 34 34 41 40 35 32 38 43 45 46 36 32 29 31 31 31 29 29 28 32 35 35 34 35 36 35 34 33 34 33 33 33 32 32 33 33 28 25 24 25 26
25 30 28 33 37 39 36 37 38 42 46 39 37 30 32 29 31 30 30 31 30 31 31 32 34 36 35 30 27 28 28 26 24 24 26 23 23 25 23 22 23 26 28
27 25 25 26 33 36 36 33 40 46 44 34 37 34 36 34 33 31 34 34 31 33 29 31 35 33 30 29 27 23 22 23 24 26 27 26 27 26 25 25 26 28 31
29 20 22 24 31 35 38 33 41 46 43 33 31 31 38 35 34 34 31 34 34 32 30 31 33 32 31 29 25 25 26 26 27 29 29 30 30 32 30 31 34 36 38
23 18 27 28 33 38 39 39 43 37 37 34 35 34 31 30 32 31 31 31 31 31 31 31 31 31 30 30 30 29 30 31 31 32 32 34 37 39 39 40 42 40 40
16 16 24 24 32 37 39 44 40 36 34 35 32 29 29 30 31 29 28 24 23 22 23 28 31 33 33 30 30 31 29 30 30 32 33 37 37 37 40 41 41 42 43
11 11 13 25 22 24 28 37 42 36 30 28 34 34 33 30 26 25 22 19 21 25 25 23 25 25 26 25 26 28 29 31 33 32 34 36 38 40 42 44 45 46 47
7 7 14 21 23 19 25 22 29 32 25 27 27 26 21 20 20 19 24 23 23 25 25 27 22 26 28 27 31 31 32 34 35 37 38 41 43 46 48 50 51 52 53
8 9 10 11 15 14 18 17 17 18 23 20 18 19 21 21 22 23 22 22 24 25 28 32 32 29 33 32 36 36 38 38 36 38 40 43 45 46 47 48 50 52 53
12 11 12 13 14 18 17 16 16 25 20 21 20 20 20 21 22 23 24 26 28 30 30 30 29 29 26 28 30 33 34 36 39 42 45 48 50 50 53 55 57 57 54
16 15 16 16 14 14 16 17 18 20 22 23 24 25 25 26 26 26 25 26 29 28 28 30 32 33 35 36 37 39 40 42 42 49 50 51 53 55 58 61 64 63 62
16 17 17 16 17 18 18 20 22 24 26 24 23 22 23 23 23 25 27 29 30 32 33 34 36 39 41 44 46 47 44 49 54 57 62 60 59 59 65 68 68 68 67
22 21 20 19 20 21 22 22 23 23 23 23 24 25 26 28 29 31 34 35 36 38 40 41 41 42 44 52 49 53 54 55 62 64 64 67 68 67 72 74 71 76 77
28 27 26 25 25 26 26 27 28 27 27 27 28 30 32 34 35 35 37 40 41 40 45 42 52 54 52 57 56 60 62 66 71 65 66 72 76 74 75 78 80 81 81
34 33 32 31 31 29 29 29 29 28 29 30 32 34 36 38 39 41 46 48 50 50 48 50 51 51 52 53 56 59 62 65 68 70 72 73 75 77 78 79 81 82 83

GFSMA_500_spd_096.txt.gz
Wind_Speed
33 32 30 33 31 30 28 30 27 27 23 31 33 32 32 36 36 33 33 29 29 30 28 25 21 21 18 19 17 16 13 11 10 10 10 12 14 16 16 16 17 19 20
34 33 29 30 32 29 27 27 25 20 26 31 35 37 31 36 34 37 35 32 30 34 29 27 24 22 20 20 18 16 14 13 11 11 13 15 15 16 18 17 19 22 22
32 30 29 29 31 28 27 29 25 22 24 31 36 36 33 33 31 33 36 31 28 33 27 27 24 23 22 22 19 18 17 16 17 14 13 15 17 17 18 19 21 23 24
27 28 28 28 31 30 30 27 27 28 28 23 31 40 37 35 32 33 36 32 32 33 30 28 26 25 24 25 22 20 21 20 20 19 17 17 19 19 20 21 23 26 27
27 27 28 29 32 33 33 27 27 28 19 21 21 37 36 34 29 29 35 32 33 35 34 30 28 29 28 28 27 26 26 24 24 22 22 22 22 22 22 25 27 29 30
26 27 29 29 28 31 29 24 30 28 26 22 30 38 35 25 25 28 33 31 35 40 34 33 33 32 33 31 29 29 30 28 26 26 26 26 27 27 27 29 31 33 34
26 28 30 28 27 29 28 30 27 31 31 28 37 37 35 30 25 27 32 31 31 32 33 34 33 29 35 35 31 31 32 32 30 30 31 31 32 32 33 36 36 36 37
27 30 31 31 27 29 32 32 33 32 36 37 38 38 38 35 28 30 28 28 29 32 33 33 34 34 31 36 33 33 32 34 35 35 36 36 35 36 38 38 37 39 39
28 29 30 30 32 31 38 31 32 31 32 29 32 34 34 26 28 30 31 30 29 33 35 32 29 32 34 33 36 33 34 36 38 40 41 42 42 41 41 40 38 38 38
29 28 29 28 33 30 28 34 36 35 37 31 35 36 35 33 29 32 30 31 32 32 30 28 26 27 27 29 28 32 31 35 37 40 44 45 46 45 43 40 39 36 35
29 28 29 30 29 34 35 34 37 38 34 33 38 37 39 33 29 33 30 30 29 28 26 25 24 23 25 25 28 30 33 36 39 40 40 38 33 33 33 31 30 30 28
29 28 29 30 30 32 33 36 43 34 36 39 35 39 42 33 29 30 31 28 27 25 24 22 22 27 29 29 30 31 34 35 31 26 27 28 26 24 22 20 21 22 21
29 29 27 27 30 33 37 40 44 39 40 38 39 40 42 31 30 31 33 31 28 24 22 24 26 28 30 31 31 31 31 27 26 25 21 19 22 22 23 22 22 23 24
28 27 30 29 33 35 41 39 38 38 36 40 44 41 41 35 35 28 28 23 24 27 28 29 29 31 29 30 30 29 27 26 22 22 25 25 23 24 25 26 26 26 25
28 26 29 34 29 31 35 44 43 38 36 34 41 42 40 36 34 28 25 29 30 32 31 31 32 31 28 28 28 28 27 27 26 25 25 26 26 26 26 27 28 29 31
28 30 26 23 23 23 34 45 42 39 36 38 42 40 36 35 35 32 31 32 31 32 31 30 26 27 26 26 28 29 29 30 31 30 28 28 29 29 29 30 32 33 33
27 29 25 24 25 28 28 32 40 35 30 45 48 40 35 35 28 30 30 30 32 32 28 25 24 21 23 25 29 31 31 31 31 28 28 29 30 30 32 32 33 35 35
24 21 25 24 30 29 33 37 37 36 37 47 44 45 35 28 27 30 29 30 30 29 20 18 21 21 20 22 23 26 27 27 27 25 27 30 32 34 35 36 38 40 40
18 15 14 11 19 22 30 38 35 37 41 38 33 28 30 33 30 31 33 29 24 22 22 23 19 22 21 22 26 26 27 29 30 31 32 36 36 35 36 38 38 41 45
14 11 8 10 15 16 18 27 32 36 34 29 23 28 28 28 31 27 24 25 26 26 26 24 20 24 24 27 30 30 31 33 33 35 34 34 34 36 38 41 44 46 48
13 11 10 8 10 20 18 24 24 24 33 32 26 26 24 23 22 25 26 27 28 28 27 27 24 28 28 28 30 30 31 30 33 34 37 39 41 42 45 47 46 51 57
15 14 10 12 14 18 15 18 21 22 23 23 26 29 27 26 24 25 27 28 26 27 29 32 31 30 30 30 30 32 34 34 37 40 43 45 45 49 54 52 55 59 61
16 15 16 17 18 20 21 22 23 26 31 28 26 25 25 25 27 28 29 29 30 30 31 33 34 35 35 36 38 39 40 39 42 45 50 49 50 57 59 62 67 67 62
23 21 19 20 21 22 24 24 24 25 26 27 28 28 27 27 27 29 29 30 31 32 34 36 38 39 40 43 41 41 40 43 46 50 54 60 62 65 64 66 66 66 70
29 27 26 25 25 25 25 26 26 25 26 27 27 28 29 29 30 30 32 35 36 35 36 38 41 44 47 46 51 55 58 59 56 57 58 60 62 63 65 66 69 71 73
35 34 32 31 30 31 31 32 31 31 31 31 31 30 30 31 34 34 36 38 42 41 39 39 44 40 43 45 52 52 53 54 56 58 61 62 65 68 71 73 76 79 81

GFSMA_500_spd_099.txt.gz
Wind_Speed
34 32 30 32 29 28 27 29 25 25 29 27 24 26 34 32 31 29 29 29 28 25 26 24 23 20 18 17 15 14 13 12 12 11 9 7 7 9 11 13 13 14 15
34 33 32 32 30 29 27 29 27 27 27 24 23 27 34 34 32 30 32 32 30 27 27 26 26 22 19 19 16 15 14 13 13 11 11 11 11 12 13 13 14 14 16
33 33 31 29 28 29 28 29 28 28 27 31 25 28 37 33 31 29 34 33 30 29 30 28 28 24 22 22 18 17 16 16 15 15 14 14 15 15 15 16 16 17 18
31 30 29 27 25 29 28 28 29 29 30 30 27 30 38 39 38 34 35 34 33 32 30 29 29 27 25 23 21 20 19 20 17 18 18 17 18 17 18 19 20 20 22
29 28 28 26 25 27 28 29 29 28 30 29 24 29 39 42 35 27 36 33 36 33 30 31 28 26 26 27 25 24 23 23 26 23 22 21 21 22 22 21 22 23 25
27 29 27 24 24 26 26 27 31 29 31 25 26 25 37 41 33 32 29 30 34 34 31 30 29 32 31 29 29 28 27 26 26 28 27 27 26 26 26 25 27 30 30
27 29 26 24 23 26 26 26 30 25 25 26 28 27 35 45 32 29 27 26 33 32 30 32 34 35 31 35 28 31 31 30 27 28 29 30 29 29 31 31 33 34 32
29 29 25 24 25 27 27 28 31 33 25 27 28 31 30 32 32 27 26 25 28 30 30 29 26 27 29 35 28 29 33 33 31 30 31 32 33 35 37 37 38 38 36
29 28 24 25 26 26 29 32 28 34 32 29 32 35 29 25 28 31 23 23 26 27 27 27 27 29 30 30 31 30 29 31 31 32 33 35 37 38 39 40 41 41 40
27 27 24 25 27 28 28 33 29 35 33 31 36 35 32 35 33 35 29 26 30 29 27 25 27 29 30 30 29 25 23 26 30 30 32 34 35 36 36 35 33 31 31
27 25 24 26 27 28 30 29 33 27 32 32 31 32 33 31 36 36 29 29 33 31 29 28 29 29 27 22 22 23 25 28 29 33 34 34 32 29 29 27 26 26 25
26 24 25 27 29 29 30 29 31 28 29 35 37 36 34 34 33 34 31 29 29 31 29 23 23 25 22 22 24 28 29 31 32 34 33 28 26 27 25 22 22 23 24
27 25 26 29 29 30 31 35 31 30 30 38 39 35 35 35 38 36 35 29 33 30 26 23 22 23 23 25 29 32 33 33 32 32 27 26 23 23 26 26 25 24 23
25 26 29 29 30 29 33 33 31 34 31 39 37 40 39 34 36 37 35 29 27 25 26 27 25 25 29 29 30 29 30 32 32 28 26 23 24 28 28 28 27 26 27
25 28 30 29 32 33 31 35 34 33 31 39 44 36 40 40 40 38 37 30 25 25 27 29 28 30 29 30 32 28 27 30 29 29 28 27 28 28 30 31 30 30 29
26 29 30 32 32 30 32 29 33 37 41 39 40 40 43 43 43 40 41 28 30 28 30 30 30 31 31 28 27 28 29 28 28 30 31 32 33 33 33 31 30 29 29
26 28 29 30 30 27 30 30 34 38 40 37 44 39 43 43 41 42 40 38 34 31 31 31 30 28 31 31 28 26 25 26 28 31 33 34 34 31 30 30 30 31 31
25 27 27 26 24 28 24 27 34 35 40 42 40 37 42 42 44 41 38 33 30 32 30 29 29 25 26 27 27 26 26 28 29 31 31 30 29 31 33 34 34 34 34
23 24 23 19 27 22 26 28 25 29 42 37 35 39 47 46 43 37 33 27 33 31 30 31 27 26 26 28 27 25 25 25 29 33 31 31 33 35 39 38 34 34 36
22 22 20 20 14 17 27 29 28 34 39 42 36 40 46 40 39 33 33 30 32 35 32 28 27 28 27 29 28 27 28 32 33 35 35 34 33 33 33 35 38 39 40
19 21 18 19 10 11 15 22 28 36 41 37 33 43 38 31 30 34 37 37 36 31 30 28 26 28 29 32 31 31 31 34 32 31 32 34 35 38 40 41 44 46 46
18 17 17 14 15 9 9 18 22 31 33 28 37 34 28 30 31 30 32 32 30 31 29 30 31 30 32 33 34 33 34 33 35 35 38 40 41 42 44 46 49 47 50
20 17 17 17 16 15 15 13 17 24 28 31 31 34 32 32 30 27 30 31 32 33 33 33 33 34 35 33 33 35 35 38 40 39 41 45 48 44 47 52 54 57 61
23 21 19 19 19 18 19 19 20 22 24 27 27 33 34 39 33 34 34 33 33 35 37 37 35 34 34 35 37 38 41 43 45 45 48 52 52 56 58 58 57 57 60
25 25 23 22 22 22 23 23 24 25 27 34 30 35 34 34 34 35 36 37 36 36 36 36 37 39 39 39 41 40 45 50 51 52 54 57 56 56 55 57 59 61 64
30 29 28 27 27 27 27 28 29 30 31 33 34 34 36 37 37 38 37 37 39 39 39 41 41 43 43 41 48 44 46 49 56 54 54 58 58 59 61 64 67 68 70

GFSMA_500_spd_102.txt.gz
Wind_Speed
28 30 31 33 32 34 33 28 30 32 31 30 20 21 24 26 26 28 28 30 27 26 26 24 23 23 24 17 15 14 13 12 12 12 12 11 10 9 10 12 13 12 12
32 32 34 35 35 32 31 30 30 31 30 30 23 21 25 27 31 32 28 31 29 29 29 25 24 22 21 20 17 16 15 13 14 14 13 12 12 12 13 15 15 16 16
33 34 35 36 33 30 30 31 31 30 29 32 27 26 23 27 32 36 35 30 32 31 29 25 26 25 24 21 20 19 18 15 15 16 15 15 14 14 15 16 18 18 18
34 36 35 30 30 30 31 28 28 30 30 33 30 28 28 28 35 36 38 32 32 33 32 28 27 26 27 24 23 22 21 18 17 18 18 17 17 17 18 18 18 17 19
36 36 33 26 29 30 28 27 26 29 30 33 31 34 34 32 35 42 39 36 37 35 33 31 28 27 25 26 26 24 24 22 21 22 22 20 19 21 23 23 23 22 23
37 36 29 27 29 26 26 28 27 28 29 31 30 36 34 32 34 42 37 39 38 38 35 31 28 27 29 26 28 26 27 26 25 24 24 26 24 25 26 27 27 27 28
38 35 28 29 27 25 26 27 28 27 26 28 32 30 29 29 33 41 40 33 30 34 31 32 29 29 30 29 29 33 33 32 29 27 26 26 28 28 30 31 32 32 33
36 33 30 29 25 24 26 29 28 27 23 27 31 28 30 30 38 41 40 32 29 24 29 31 30 31 33 32 33 33 35 26 25 30 31 32 30 31 33 35 37 39 38
37 34 32 29 25 24 27 27 25 26 25 26 35 31 29 30 34 41 41 34 27 26 29 31 32 31 31 26 27 28 28 28 28 27 31 33 32 33 35 37 38 38 38
38 34 32 28 26 25 24 25 25 25 26 25 30 28 30 32 30 29 38 34 31 27 28 31 33 31 29 27 26 29 31 30 28 29 28 28 32 34 34 35 36 36 32
38 33 33 28 29 25 24 24 25 27 26 29 30 32 33 33 32 31 35 33 29 29 31 33 32 30 29 28 30 28 30 29 27 27 28 31 33 34 34 36 32 31 31
36 35 33 30 29 26 25 25 25 27 28 30 28 31 35 38 33 33 34 33 33 33 35 36 32 32 30 28 28 29 30 28 28 30 30 33 35 33 35 31 32 30 28
34 36 35 31 29 27 28 26 27 28 30 31 32 31 32 36 37 33 35 37 37 34 29 32 30 31 30 28 28 30 30 30 32 34 35 35 33 33 30 31 28 29 29
35 38 34 31 30 29 30 28 29 29 30 32 29 29 37 36 37 37 36 37 35 37 30 31 34 30 28 29 30 31 30 32 32 32 33 33 33 31 31 30 31 30 31
37 36 34 31 28 31 31 30 32 32 31 30 33 31 38 39 39 40 38 39 42 40 29 33 35 32 32 33 34 31 32 33 33 33 31 33 32 31 32 31 32 31 33
35 34 31 28 31 33 32 34 35 32 33 34 34 35 36 40 42 42 38 36 38 40 32 35 35 36 36 33 35 35 34 35 33 32 35 33 31 33 34 33 33 32 30
39 29 28 29 31 32 35 35 38 32 31 34 36 34 35 45 37 40 41 40 39 40 39 38 35 34 34 35 34 33 35 34 35 35 36 32 32 33 34 33 33 33 32
29 28 27 27 29 33 32 33 29 30 36 38 38 36 39 39 38 43 43 41 41 40 39 37 35 34 33 34 33 35 35 35 33 36 34 31 32 35 33 33 33 34 35
28 28 25 26 27 30 30 36 33 31 34 35 41 40 41 43 40 44 45 43 42 41 41 43 37 35 34 33 35 35 33 34 37 34 31 32 33 33 34 35 36 38 35
27 26 25 24 27 28 31 26 25 27 35 38 36 37 36 40 44 44 45 45 41 37 36 37 41 36 35 36 38 35 33 38 36 33 33 34 35 37 38 37 36 35 38
28 26 26 23 26 24 24 20 30 30 25 30 35 39 39 41 43 45 43 42 38 37 38 38 40 39 38 39 36 35 36 37 36 35 35 38 38 37 37 38 40 41 43
30 28 27 23 24 21 22 12 27 31 28 29 35 38 38 38 38 45 41 37 38 41 44 41 40 40 38 38 36 36 38 37 39 38 38 38 38 39 40 44 46 45 51
33 28 28 23 21 19 19 10 16 27 26 29 35 33 35 34 36 38 35 35 38 40 37 36 36 36 38 38 39 37 38 39 40 40 38 40 44 44 47 50 51 54 55
34 30 29 26 22 19 18 18 13 19 22 25 27 31 34 38 37 34 36 37 35 36 38 41 41 40 38 38 39 41 41 41 41 42 44 44 47 47 51 54 57 58 59
37 32 30 29 26 23 19 19 18 15 18 21 26 33 36 38 40 40 40 42 44 43 42 39 38 38 39 41 42 42 43 44 45 46 47 51 51 54 55 57 62 67 64
35 33 31 30 29 29 25 23 23 23 22 23 27 34 29 28 36 39 45 43 40 38 40 40 42 44 43 44 45 46 47 48 50 48 52 51 52 57 62 64 68 70 70

GFSMA_500_spd_105.txt.gz
Wind_Speed
29 27 27 29 29 32 33 33 33 33 34 33 33 30 24 24 25 26 28 27 28 27 24 24 24 22 20 21 25 14 14 13 12 12 13 12 13 14 14 14 14 14 16
31 29 30 30 32 35 36 35 32 32 32 33 32 31 29 21 22 24 25 28 28 27 26 26 26 23 22 24 25 18 16 14 13 13 15 13 15 14 14 15 16 16 17
33 32 31 31 34 35 37 33 28 29 32 34 31 29 29 24 23 29 29 33 29 30 30 29 28 26 24 22 22 21 18 17 15 14 16 16 16 16 16 17 16 16 17
34 33 33 32 33 35 34 28 28 31 31 31 30 30 30 35 23 26 35 38 32 31 32 29 30 29 26 23 24 27 20 19 18 18 18 18 19 18 17 18 20 20 20
36 34 33 34 34 34 29 27 31 31 29 28 30 31 29 36 26 27 37 41 37 37 33 31 33 30 28 28 28 24 23 22 20 20 19 22 23 19 19 21 23 24 24
35 34 34 33 35 32 28 29 30 29 28 28 30 30 29 31 33 30 35 38 40 39 35 33 33 32 30 26 26 26 28 26 24 23 25 24 23 25 25 25 26 27 29
36 35 34 32 34 33 29 30 29 29 27 29 29 27 29 31 38 34 33 36 44 38 38 41 39 34 32 29 27 29 29 29 25 27 25 26 27 26 24 27 29 31 31
37 36 34 32 36 35 30 30 29 30 30 28 26 24 33 30 33 35 36 37 43 42 34 40 40 36 34 32 31 29 29 30 31 34 25 27 29 32 30 29 31 32 33
39 39 34 35 37 33 31 29 30 29 30 25 25 24 30 33 27 33 31 37 42 37 33 29 33 37 35 33 32 32 30 31 32 29 25 28 30 33 33 33 33 33 33
43 40 35 35 37 35 30 31 30 29 29 26 26 24 29 28 28 31 32 36 40 40 34 28 31 34 35 34 32 32 31 28 29 27 29 32 34 31 33 35 34 31 32
41 40 34 35 37 35 31 32 31 30 27 27 25 26 26 25 23 30 34 43 45 39 34 32 33 35 35 34 34 33 29 28 28 30 31 30 31 31 31 32 31 30 32
40 39 37 36 37 35 33 33 32 31 29 27 26 27 28 27 27 30 31 32 41 43 37 38 34 35 36 35 37 34 32 30 31 31 30 30 30 32 34 32 31 32 31
40 38 38 36 37 35 35 35 33 31 30 29 29 28 29 28 28 34 34 34 33 35 38 36 36 32 37 36 37 34 35 33 33 32 30 31 34 34 35 33 33 33 31
40 37 37 38 36 34 36 35 36 32 32 31 31 27 31 32 29 36 38 36 38 39 37 33 36 32 34 35 36 38 34 32 33 33 32 33 34 34 35 35 34 33 29
39 37 38 38 34 36 35 36 36 33 35 33 32 31 31 32 29 35 38 41 39 40 36 32 35 33 36 40 39 36 34 34 36 32 34 35 35 37 36 35 33 32 29
36 37 39 35 35 37 36 38 35 36 39 36 34 34 33 33 33 36 39 38 42 39 38 38 36 37 39 41 40 38 36 37 35 34 36 37 39 39 38 35 32 30 31
35 39 36 36 39 36 37 36 38 41 42 40 33 33 35 34 36 37 41 39 42 42 38 35 36 40 40 40 39 40 40 37 37 40 40 38 39 39 39 34 32 33 33
36 37 36 38 39 33 34 36 38 39 40 37 36 37 35 35 37 39 37 41 45 42 43 37 38 39 41 40 40 41 39 39 40 39 41 40 39 38 36 34 34 33 33
36 36 39 38 33 34 34 36 35 37 38 35 37 41 39 35 41 40 39 45 45 47 42 42 39 38 42 40 38 43 46 42 42 42 42 39 38 36 37 36 34 33 34
34 36 41 32 34 35 35 36 35 37 39 41 44 41 42 43 45 39 43 43 43 41 46 43 42 38 37 38 39 41 42 43 42 42 41 39 38 39 40 36 37 35 37
37 40 32 34 35 35 34 33 35 41 41 32 33 36 37 39 46 46 42 42 41 42 45 46 42 35 35 38 42 43 42 44 45 44 42 39 40 41 41 40 40 39 38
37 30 33 35 35 34 33 33 32 39 27 28 28 33 39 40 38 45 38 45 43 45 45 43 38 34 39 37 41 45 45 45 47 46 42 42 41 42 43 43 41 41 42
31 34 34 37 35 35 32 31 28 34 24 31 33 30 35 40 39 40 39 41 45 46 43 41 40 40 41 41 44 48 48 47 47 40 43 45 44 45 45 44 44 46 48
28 30 36 38 36 35 32 32 24 28 18 26 30 28 31 36 35 39 42 44 47 47 43 41 42 45 48 47 43 43 46 45 42 43 48 48 47 46 45 46 49 52 53
34 32 30 39 38 36 33 33 24 25 24 17 20 25 28 31 34 37 39 36 40 45 41 44 40 40 40 42 44 41 42 44 45 49 49 48 48 48 49 51 53 55 59
39 34 36 40 37 39 37 35 30 26 25 23 23 20 26 29 33 40 39 39 43 45 41 45 45 46 48 48 41 44 47 48 49 50 50 50 50 53 55 57 56 60 62

GFSMA_500_spd_108.txt.gz
Wind_Speed
34 32 30 29 27 27 27 29 30 33 34 34 32 32 30 32 28 29 27 26 28 29 24 24 20 19 18 18 20 19 21 15 14 14 13 14 14 14 15 16 17 18 18
36 33 31 31 29 28 28 30 31 35 34 28 26 27 29 32 30 29 28 29 30 26 26 25 24 22 21 21 21 20 20 15 16 15 14 15 15 14 16 16 17 18 19
38 36 33 32 31 29 30 30 34 35 28 24 23 25 28 30 29 29 25 28 31 30 27 27 25 25 25 24 22 21 22 21 18 16 15 15 17 17 17 17 17 17 18
38 40 35 34 30 30 30 29 34 31 24 26 26 27 25 26 29 33 27 24 29 34 29 29 26 27 26 26 26 23 22 21 20 19 18 17 19 19 20 20 18 18 18
38 41 38 35 31 30 30 30 33 26 24 27 28 26 25 26 29 35 30 22 33 35 33 32 30 29 29 29 27 26 25 21 23 19 22 18 20 22 21 21 21 20 21
41 43 42 34 32 30 28 30 33 24 26 30 28 25 25 26 29 31 31 26 35 36 30 34 35 33 32 31 29 30 27 29 26 23 24 22 22 22 22 24 24 25 25
44 42 40 36 32 31 27 31 31 26 28 31 31 26 27 26 25 28 26 23 34 35 44 35 36 33 35 35 32 31 28 29 27 27 27 24 25 25 23 25 25 24 25
43 44 41 37 31 31 29 31 31 27 30 31 30 30 26 24 25 27 30 24 29 35 42 41 37 41 40 38 36 33 30 30 28 29 29 27 29 32 32 30 28 26 27
45 44 40 36 31 34 32 32 31 30 32 30 30 30 26 24 26 27 26 31 32 36 35 42 41 38 43 44 38 35 32 32 29 29 30 32 32 27 27 31 29 29 29
46 44 40 37 34 37 32 31 32 32 34 31 31 29 28 25 25 26 32 23 28 35 36 43 41 39 37 43 39 36 35 34 33 32 32 33 32 29 31 30 28 29 29
47 46 42 38 39 37 34 32 32 33 35 32 29 27 28 29 28 27 25 27 28 31 34 40 43 35 31 34 33 37 37 34 33 34 30 31 32 30 31 29 29 28 26
49 48 44 40 39 38 35 33 34 34 34 34 31 29 27 31 28 27 28 23 26 36 34 40 42 37 33 32 32 38 37 36 35 34 31 32 32 32 29 28 28 30 31
51 46 45 40 40 37 34 35 35 33 34 35 33 31 29 31 31 30 28 24 29 34 41 43 43 39 38 37 37 39 39 38 36 35 36 36 34 32 31 30 32 34 32
50 50 41 38 41 35 34 36 36 33 34 33 34 33 33 32 32 30 30 31 29 32 38 47 41 43 39 35 39 39 41 38 36 37 37 36 36 34 34 33 33 33 32
49 42 38 39 36 34 36 37 35 33 33 32 35 36 36 34 34 34 33 32 33 35 36 36 39 38 34 33 38 37 39 38 38 40 38 37 36 36 36 36 35 34 33
46 46 37 37 33 35 36 36 35 34 33 34 35 38 38 39 38 37 38 35 35 37 38 38 40 40 38 35 37 38 41 42 42 42 40 37 37 37 37 38 38 37 36
50 37 39 37 33 35 38 36 36 34 36 36 38 41 43 45 40 40 38 35 35 40 40 39 40 41 41 36 33 39 40 40 43 43 41 39 39 37 39 38 38 38 37
44 41 38 35 36 36 34 36 35 36 38 38 40 44 44 44 43 38 36 41 36 40 38 42 43 42 39 35 35 36 41 41 45 45 42 42 42 40 40 39 38 37 34
43 39 34 35 34 34 36 35 38 37 37 39 41 42 43 45 46 43 42 43 40 41 43 41 43 44 41 42 38 40 40 45 44 42 46 46 43 42 42 40 37 35 36
39 30 31 31 34 34 34 38 38 38 39 41 42 45 45 45 46 43 44 46 40 40 45 46 46 46 46 44 42 40 41 44 46 44 44 43 43 42 41 41 39 38 39
30 29 30 33 32 34 36 39 39 40 40 39 42 48 45 46 48 50 47 45 40 43 42 43 44 47 48 45 42 40 37 39 40 41 42 44 43 43 43 43 42 41 41
30 30 31 29 31 35 40 38 41 40 39 40 41 45 44 38 36 37 41 44 43 42 46 46 50 46 47 48 41 36 39 39 39 43 45 45 43 45 44 45 42 44 43
29 29 31 31 34 34 34 37 41 40 39 39 43 40 30 33 33 37 38 38 42 47 48 43 43 43 40 45 44 36 34 36 41 43 46 49 47 48 48 46 43 47 48
31 30 31 27 33 30 33 37 41 39 39 37 42 37 29 30 30 36 38 38 38 45 52 45 44 43 44 43 41 43 41 43 45 46 47 50 47 50 48 45 46 50 50
35 35 34 33 31 30 32 33 39 40 38 36 36 36 23 24 31 36 36 42 39 39 40 42 45 45 46 48 46 42 46 49 49 46 44 44 48 48 46 47 50 52 54
38 40 39 39 38 37 39 35 38 41 39 38 32 37 38 22 20 32 33 36 35 39 38 42 48 51 50 50 47 46 48 46 49 47 51 49 49 51 50 51 53 54 55

GFSMA_500_spd_111.txt.gz
Wind_Speed
29 30 31 29 29 28 27 24 24 24 23 26 29 31 28 27 28 31 31 27 24 26 31 31 25 22 17 18 19 18 18 15 15 16 14 15 14 14 17 18 18 20 19
30 30 34 31 31 29 28 26 24 25 23 27 30 28 25 22 24 30 32 31 31 29 25 33 28 25 23 23 22 22 21 20 19 17 16 16 16 17 17 17 19 20 19
36 32 33 36 34 32 29 27 25 25 25 27 27 21 21 22 23 26 28 32 30 29 27 29 31 27 26 25 25 23 23 22 17 18 17 18 18 18 18 18 18 18 19
36 37 36 36 37 36 31 28 26 24 25 27 24 19 21 25 23 23 27 29 35 29 35 32 30 26 27 28 28 27 24 22 21 21 19 19 19 18 19 20 21 20 21
39 37 39 38 37 39 35 30 27 22 25 26 23 22 24 24 23 24 25 28 34 22 36 31 34 30 29 29 29 28 27 25 23 21 23 20 22 20 21 22 23 23 24
41 39 39 40 38 39 38 33 29 22 24 26 26 24 24 23 26 27 27 26 28 33 19 36 34 34 30 31 31 31 29 27 27 23 21 23 22 22 22 22 24 24 23
46 42 41 41 38 39 40 37 30 24 23 27 27 25 24 23 26 28 24 24 25 28 26 41 40 37 33 33 34 34 31 29 29 27 26 25 25 25 25 23 24 24 25
48 44 42 43 41 41 40 38 31 27 26 28 29 27 24 22 26 26 21 20 26 23 24 23 37 38 36 33 37 36 35 32 30 30 30 27 28 28 26 26 29 30 28
48 44 45 44 43 43 40 38 33 28 30 30 30 29 26 23 25 24 22 21 22 24 22 27 31 35 40 35 37 41 39 35 34 33 32 32 29 29 29 31 29 26 25
51 44 47 46 43 42 40 39 36 30 31 30 32 30 28 27 23 20 23 23 25 23 30 29 34 36 38 40 39 39 45 46 35 34 33 30 29 29 31 32 31 28 27
48 47 48 46 43 43 42 39 38 29 32 33 31 31 32 27 24 23 22 27 28 26 28 31 34 36 40 41 43 44 44 47 35 35 35 34 33 33 35 34 33 29 28
48 47 44 44 44 45 43 40 36 31 34 34 32 33 33 31 26 26 25 27 31 29 21 27 34 37 41 43 44 41 40 39 36 37 37 37 35 35 33 34 34 30 27
51 45 43 44 46 45 45 42 36 34 33 35 33 34 34 33 31 29 28 28 31 32 31 31 35 36 39 42 39 37 35 34 37 40 38 38 37 36 35 34 33 31 30
49 46 46 48 47 46 42 40 38 36 35 35 35 34 35 34 33 30 31 32 31 33 32 27 37 38 41 41 40 35 36 37 37 41 40 40 39 38 38 37 36 34 33
49 47 47 49 45 40 38 38 39 37 38 37 34 34 35 34 34 34 32 34 33 32 34 32 36 42 42 42 41 43 35 33 35 41 43 42 41 40 39 38 37 37 35
43 45 45 43 40 37 39 38 39 39 39 36 34 34 34 34 36 36 34 35 36 37 35 36 37 36 40 43 45 44 39 33 35 38 45 43 42 41 39 39 39 37 37
37 38 40 43 39 43 40 40 39 39 37 34 34 35 34 36 38 38 38 40 43 41 40 38 37 40 40 42 45 40 39 36 36 39 42 44 44 41 40 39 39 39 37
39 38 41 43 47 48 43 40 41 37 34 34 34 35 36 37 36 39 43 43 43 40 41 40 40 39 42 44 45 44 41 37 35 37 40 42 44 42 41 40 41 43 39
42 42 42 46 51 49 44 40 39 36 35 35 33 37 35 38 40 42 42 41 42 41 41 43 41 46 45 43 46 46 44 40 37 38 38 41 43 44 44 44 44 44 42
43 43 45 48 50 50 44 40 39 37 35 33 34 34 37 40 43 44 43 42 42 45 45 50 46 45 49 44 46 47 45 42 43 39 43 42 47 48 46 45 44 44 43
41 42 45 48 47 42 40 39 38 36 34 35 33 36 39 41 46 46 46 46 45 45 47 47 51 48 49 47 45 44 47 45 47 45 42 44 45 49 43 42 44 44 42
43 42 44 44 41 33 36 34 33 32 33 32 35 39 42 42 46 45 46 42 45 45 48 46 53 46 45 48 49 47 46 50 50 46 43 41 40 41 41 42 43 42 43
45 42 47 32 28 32 31 31 29 29 31 35 38 41 42 42 45 44 40 33 39 38 44 47 52 49 50 52 46 47 45 48 51 44 42 41 41 42 43 42 43 44 46
26 27 24 27 28 29 29 30 32 33 33 35 39 41 40 40 43 41 37 40 35 39 40 36 50 47 54 51 48 50 47 47 48 42 41 42 41 39 40 45 49 50 49
32 30 26 29 29 30 29 29 31 32 35 38 37 38 41 39 40 39 33 30 34 40 42 42 43 49 53 49 48 48 48 46 44 42 42 45 44 46 49 47 49 53 52
28 27 32 34 36 38 36 37 37 39 40 39 35 32 40 39 38 42 36 31 34 37 38 42 42 41 44 46 50 52 48 47 44 46 49 50 50 52 55 55 56 54 52

GFSMA_500_spd_114.txt.gz
Wind_Speed
30 34 33 31 30 29 26 26 25 24 24 22 21 23 25 25 24 23 26 31 31 26 25 24 28 30 26 26 21 21 26 22 19 17 16 16 17 17 17 17 18 18 18
30 33 36 32 33 33 29 27 26 25 23 22 22 23 26 23 19 16 15 24 34 34 28 31 25 37 30 30 23 21 19 23 20 18 18 18 18 18 18 17 18 18 17
34 33 33 32 34 37 33 28 28 26 25 23 22 23 23 20 18 19 21 23 26 33 35 35 27 33 37 32 27 24 22 23 23 20 21 20 19 18 20 18 19 20 18
36 37 33 33 34 40 39 31 28 29 27 24 22 22 21 18 20 23 23 22 26 29 32 37 34 36 41 33 32 28 26 25 23 22 19 21 20 20 20 21 22 21 20
36 39 37 36 34 37 41 37 30 29 29 26 23 20 20 19 21 23 22 21 24 28 29 35 39 37 35 36 34 31 31 28 26 24 22 24 23 22 22 22 23 23 22
39 39 40 42 39 38 39 40 32 31 31 28 26 20 19 20 21 23 24 23 25 25 25 28 21 37 36 35 33 31 32 31 30 26 24 24 25 25 25 23 23 24 23
44 43 43 45 45 38 37 40 36 34 30 31 30 23 21 21 22 24 24 24 26 22 26 31 40 28 31 37 30 32 32 33 33 30 28 27 24 25 27 23 23 24 26
47 46 45 45 46 39 40 39 39 37 34 31 32 27 23 23 23 25 25 23 23 24 23 28 28 22 35 35 35 33 36 37 37 33 32 31 30 28 28 25 24 24 26
47 49 47 44 43 49 43 42 41 39 38 33 33 31 26 24 25 25 25 25 24 26 23 28 21 19 26 37 39 38 37 40 39 38 37 37 33 30 29 28 28 28 31
48 49 47 48 51 54 49 44 41 40 42 35 36 28 30 29 25 24 26 25 27 24 24 22 20 21 27 42 41 44 39 34 40 44 43 39 36 33 32 30 30 31 33
49 49 52 52 54 53 50 45 41 42 41 38 34 34 32 30 27 27 25 26 28 28 26 29 24 25 28 31 40 40 43 36 36 41 47 42 36 35 32 31 32 32 35
51 46 56 53 53 52 51 46 42 44 42 41 36 35 33 33 31 30 28 29 26 27 30 31 30 26 33 34 35 42 41 39 39 43 49 47 37 38 35 34 34 35 33
54 48 54 55 53 50 52 45 45 45 43 42 37 34 34 33 34 34 31 31 31 29 28 32 32 35 31 33 38 38 38 40 43 44 42 40 38 39 37 37 37 37 34
53 50 49 56 53 52 53 49 46 45 43 43 36 35 36 34 35 36 35 34 34 32 29 30 34 36 32 33 36 43 43 45 43 41 41 35 40 40 39 38 39 39 37
49 49 51 53 52 53 54 47 42 44 46 38 34 37 38 36 35 38 37 37 37 35 30 29 33 33 33 32 40 40 43 43 43 40 36 33 39 42 42 41 40 40 38
49 50 52 51 51 51 50 44 43 43 39 32 34 38 39 37 38 38 38 38 38 38 35 29 31 37 35 38 34 44 44 46 45 40 37 34 35 43 44 45 43 44 40
48 48 50 49 48 48 48 43 43 38 36 33 37 38 38 39 40 39 38 38 39 40 41 37 38 37 38 39 40 43 47 47 47 42 40 37 34 37 44 47 45 46 42
46 45 45 43 46 46 45 45 44 40 38 38 38 39 38 41 40 38 38 41 40 39 42 42 44 40 41 41 42 41 40 45 48 47 44 40 38 38 40 45 48 47 45
44 38 37 40 43 46 45 44 44 42 39 41 40 40 40 41 37 37 40 37 37 39 42 41 40 41 41 42 42 41 46 46 51 52 42 41 38 37 40 42 45 48 46
44 40 40 40 44 43 42 43 43 42 43 45 42 40 41 40 38 38 38 37 38 40 41 43 42 42 41 41 44 48 41 48 54 46 47 45 41 41 42 44 46 47 49
46 43 42 43 43 44 43 44 45 44 46 50 47 42 41 41 37 37 38 37 40 41 43 45 46 47 44 44 48 48 47 49 50 52 54 49 46 45 44 43 48 48 51
48 47 44 40 42 47 51 46 48 50 46 47 43 39 40 38 36 38 39 40 42 42 42 47 48 46 46 46 46 51 51 52 51 52 54 50 48 48 49 49 49 50 51
45 44 44 45 46 45 48 47 48 44 41 38 38 36 36 36 36 37 39 44 46 43 42 43 40 45 45 45 47 49 52 53 53 51 51 51 53 52 52 53 51 48 46
34 34 41 46 44 46 49 52 53 38 34 36 35 33 34 37 37 39 42 43 45 42 42 41 44 43 48 50 50 53 57 55 56 55 55 57 53 52 52 49 48 47 46
49 35 42 41 33 37 29 26 30 36 35 32 34 38 39 39 41 42 44 43 44 45 41 42 46 48 45 43 43 52 54 58 54 54 54 53 53 52 51 47 46 47 46
31 23 28 20 18 23 23 27 29 35 36 38 42 40 39 38 36 38 39 40 44 44 42 44 40 45 49 52 48 44 53 54 51 57 61 58 56 55 57 49 47 46 45

GFSMA_500_spd_117.txt.gz
Wind_Speed
30 27 27 30 30 29 31 29 27 25 25 26 26 22 21 22 22 23 20 21 24 29 30 26 24 28 28 30 31 29 27 27 25 26 22 19 19 17 16 17 17 17 17
32 32 28 29 30 29 31 33 28 27 25 26 26 24 21 21 22 22 17 14 14 17 24 31 28 30 26 36 36 32 28 30 28 26 23 20 19 18 18 17 17 17 18
33 33 29 30 30 30 29 31 32 28 27 25 26 24 23 21 20 21 19 17 21 22 25 27 32 40 35 38 37 31 29 27 30 28 25 22 20 19 21 19 19 20 19
38 38 32 32 35 32 30 31 35 33 28 27 25 24 23 21 20 20 20 21 24 23 26 30 28 39 47 22 35 33 30 30 33 30 26 22 22 22 22 21 21 20 20
42 42 35 33 37 37 33 32 33 35 32 30 28 25 23 22 21 20 22 22 23 24 26 29 32 37 32 44 29 36 34 34 30 31 29 25 23 24 23 22 22 21 21
44 42 41 37 37 37 34 37 34 35 35 31 32 26 24 23 22 22 23 23 23 26 28 26 25 28 26 27 21 37 37 36 32 31 29 27 26 26 26 24 23 23 21
47 45 45 41 38 37 37 38 40 34 37 32 34 29 28 24 22 23 24 25 23 28 27 22 23 27 29 26 32 31 42 38 32 34 32 32 29 27 27 27 25 25 23
49 49 46 44 41 41 41 39 39 38 36 36 34 35 30 27 23 25 24 27 23 29 27 25 25 23 24 36 26 42 40 39 36 35 34 35 30 30 28 27 27 26 24
49 47 44 45 46 44 43 41 38 39 35 37 38 37 34 29 31 25 24 28 27 27 30 25 24 22 28 33 27 36 40 37 37 37 35 36 37 34 33 30 28 28 27
49 49 49 44 48 44 42 41 41 42 46 38 42 38 36 37 34 30 23 26 31 28 28 26 23 23 21 21 25 30 40 42 35 36 38 39 42 41 38 35 33 31 28
55 54 51 48 49 46 43 44 46 45 47 43 42 43 39 39 36 32 28 26 30 30 30 26 25 26 28 27 26 25 34 40 37 37 36 39 44 45 46 39 36 35 32
59 59 54 51 51 49 49 47 48 47 47 46 42 44 42 39 37 36 33 31 30 28 31 30 27 27 26 29 30 25 31 36 40 42 42 36 41 47 52 43 36 36 35
68 62 61 59 53 52 52 50 50 45 47 48 44 50 43 40 41 39 34 32 32 32 32 29 32 31 30 30 32 32 32 33 38 40 40 37 37 43 47 39 39 39 39
76 70 69 64 61 55 57 54 52 51 52 49 45 48 44 43 41 40 37 35 34 33 34 32 32 32 33 32 32 34 32 36 40 41 42 42 39 39 45 33 41 42 42
80 77 72 69 67 62 59 57 54 55 49 45 44 47 47 46 45 41 39 36 36 36 32 33 37 33 36 35 32 32 33 34 40 42 42 39 39 42 39 33 40 44 42
88 80 75 73 70 66 59 58 57 57 48 46 45 49 45 46 46 42 39 38 39 37 36 34 35 38 37 37 33 32 34 35 40 45 44 45 46 44 37 34 35 43 43
66 70 72 71 72 62 60 61 57 51 44 45 44 49 51 48 42 41 39 41 40 38 38 33 38 37 42 40 40 36 37 39 35 40 45 45 44 47 38 36 33 40 43
45 48 51 56 55 60 61 58 51 47 45 48 46 49 42 43 36 37 40 42 38 38 39 39 38 41 41 44 45 46 42 39 41 40 44 49 47 44 39 40 39 37 41
43 44 46 46 52 59 56 55 52 47 48 47 46 52 40 41 34 36 40 40 36 38 40 41 36 38 41 43 46 47 45 43 42 41 42 44 49 49 46 43 43 41 42
35 37 40 44 46 48 52 49 41 41 42 43 49 46 41 41 39 37 39 39 39 40 42 37 37 38 40 38 43 44 44 44 43 43 43 45 45 47 48 47 47 43 42
36 38 40 41 43 43 42 40 41 44 46 44 49 44 42 40 42 41 42 41 41 41 42 39 39 38 38 40 41 45 49 47 44 44 46 44 47 48 53 52 51 46 46
37 41 42 43 43 43 41 43 45 43 46 47 46 44 44 46 45 44 46 43 41 43 40 41 44 43 43 46 45 47 52 53 47 47 44 48 48 54 56 56 55 51 49
38 40 41 40 44 42 44 45 43 46 51 49 47 44 46 49 49 50 46 43 44 43 41 43 44 45 46 46 46 47 51 53 51 46 50 48 52 47 51 56 60 56 52
35 41 44 43 44 47 49 51 51 53 52 52 45 47 54 51 58 48 45 44 43 43 42 42 44 47 46 43 43 40 41 52 52 52 50 50 53 53 54 57 58 56 56
39 48 41 46 47 50 49 50 46 48 47 49 62 40 53 42 38 42 42 43 44 43 45 45 46 46 46 44 43 44 44 47 53 53 52 54 54 55 59 62 58 60 59
37 43 31 36 45 44 44 45 40 43 42 31 40 41 36 38 35 39 46 46 47 44 43 42 42 46 47 47 45 40 46 50 53 51 54 59 62 61 61 59 62 58 55

GFSMA_500_spd_120.txt.gz
Wind_Speed
32 31 29 28 28 26 27 21 22 23 25 25 24 25 27 25 25 21 17 23 23 21 21 24 23 23 25 23 24 28 29 29 24 23 24 23 20 19 19 18 17 16 15
34 32 33 30 29 28 28 25 21 24 24 25 25 25 26 26 25 23 20 22 18 18 17 20 20 19 26 29 32 30 37 32 31 29 27 27 23 21 21 19 19 17 16
33 36 34 32 32 30 29 28 21 23 24 23 24 26 26 26 25 24 21 21 19 20 21 22 24 27 26 34 34 39 36 37 34 30 30 31 26 24 22 21 20 19 17
39 37 36 35 35 35 32 34 24 22 24 23 23 25 26 26 25 24 24 20 21 21 21 22 25 29 31 32 37 49 30 31 35 34 33 33 28 25 23 22 21 21 19
42 41 37 36 37 38 34 33 31 25 26 25 23 23 25 26 25 23 23 23 21 22 19 22 25 30 32 35 38 34 46 33 36 35 38 34 29 26 25 23 22 22 21
45 45 43 37 38 40 35 30 34 31 27 30 25 25 25 26 26 23 24 23 24 24 19 21 24 26 27 27 29 31 26 38 33 33 38 35 32 28 27 24 24 22 23
51 48 47 45 36 41 40 36 34 37 31 31 30 26 26 26 27 25 25 25 25 24 26 23 23 23 24 27 26 27 20 24 36 37 38 38 34 31 28 27 26 25 23
54 54 52 48 44 41 42 42 37 38 36 34 33 30 27 28 25 28 29 27 28 25 24 27 22 23 23 24 23 20 21 26 34 36 37 37 35 31 31 29 29 28 28
56 59 55 52 48 45 44 44 41 41 40 38 35 33 29 30 33 30 30 28 31 29 28 28 23 22 22 24 20 15 25 28 34 37 41 37 34 35 35 33 30 28 29
59 56 54 52 51 47 46 44 41 41 45 41 39 36 34 34 33 33 33 30 31 31 32 32 30 23 22 20 23 20 19 21 34 38 41 38 39 41 39 37 34 34 32
61 60 59 55 53 53 53 46 41 42 44 44 39 39 39 35 35 36 34 32 32 30 31 34 33 27 24 20 22 24 22 21 26 36 38 41 43 40 40 42 40 42 38
61 60 61 57 56 52 55 52 42 41 45 46 44 44 42 39 36 39 40 35 36 31 33 31 35 31 29 24 22 23 22 23 23 31 42 43 42 39 36 42 44 49 46
66 65 64 64 59 54 58 52 50 48 47 49 49 47 45 42 37 40 41 37 40 37 36 32 29 34 33 30 25 24 23 24 27 28 34 42 44 41 41 36 41 49 49
73 68 68 67 62 59 58 56 53 54 50 51 51 51 47 44 38 41 38 38 41 40 39 35 33 30 33 31 28 28 24 25 27 28 32 37 41 42 43 40 38 39 46
83 78 75 74 68 64 64 63 62 53 53 52 55 55 50 45 42 41 38 41 43 43 39 37 40 32 31 33 33 29 28 27 30 30 31 38 42 41 39 39 38 38 40
82 88 84 78 80 72 71 67 63 59 57 57 55 54 52 46 45 41 45 44 45 44 42 37 39 37 33 30 32 35 34 31 32 32 33 37 38 41 42 40 38 36 38
62 73 91 90 88 53 75 71 70 63 62 62 57 53 53 49 47 45 48 48 45 47 45 37 41 38 35 31 30 35 39 40 36 39 36 37 39 41 46 46 43 41 43
58 62 74 89 74 44 57 67 68 66 65 65 58 53 54 52 48 47 46 50 49 48 46 41 39 39 36 33 35 36 38 41 41 41 43 39 40 38 38 44 44 43 47
39 45 48 65 67 68 55 68 69 67 66 64 55 53 54 56 50 48 48 46 51 47 41 44 35 37 36 36 41 40 37 43 44 42 44 45 42 42 40 42 48 46 45
23 27 30 34 40 45 47 55 60 65 67 61 54 56 59 54 50 49 47 48 47 39 42 42 38 34 38 39 43 40 42 43 46 45 43 42 45 43 40 41 43 51 50
22 18 30 38 40 45 45 48 54 64 60 52 56 57 53 53 50 49 49 47 44 41 43 42 41 38 39 43 42 42 42 42 44 46 46 42 45 46 43 42 46 45 49
3 22 21 23 32 34 30 35 41 44 49 54 52 53 52 52 52 46 45 48 40 43 46 42 42 42 42 45 45 44 46 44 45 45 50 49 47 47 46 43 42 44 49
19 23 25 26 26 28 27 34 35 39 46 50 52 52 54 56 48 47 45 44 44 44 45 47 49 47 46 48 46 44 43 43 43 46 52 51 51 50 47 48 45 49 47
21 25 29 32 34 34 38 37 32 46 43 47 47 52 54 53 46 51 49 46 49 51 53 51 52 50 49 50 46 46 44 44 40 43 46 48 46 50 50 51 51 47 47
25 23 26 33 35 39 41 41 43 47 43 44 49 54 54 51 51 52 53 49 56 53 57 63 55 51 50 49 47 48 46 43 41 41 41 46 42 47 51 53 51 50 47
11 21 21 35 41 42 31 58 49 56 53 48 51 51 53 50 55 54 55 54 52 52 47 44 48 49 51 51 47 46 45 46 46 43 41 44 48 46 48 54 53 56 51

GFSMA_500_spd_123.txt.gz
Wind_Speed
34 29 30 31 30 28 29 25 22 22 22 24 21 18 18 22 25 26 26 25 22 22 23 17 14 14 15 23 25 20 25 24 25 24 24 23 25 21 19 19 18 18 17
36 29 30 30 31 30 31 31 27 23 24 23 24 21 18 20 22 25 27 27 24 23 23 20 19 19 19 16 22 28 26 27 28 28 28 27 25 25 21 20 20 20 19
43 34 34 33 30 31 32 30 29 28 24 24 22 21 19 20 22 23 25 27 25 24 22 21 21 22 21 21 24 25 32 29 27 33 35 31 32 29 24 23 22 21 20
42 40 36 33 31 31 33 35 32 31 29 26 25 21 20 20 21 24 24 26 26 23 21 24 24 22 23 24 27 27 28 34 38 42 38 35 36 32 29 25 24 23 21
50 44 38 36 35 35 33 33 37 37 36 29 28 27 19 20 22 24 25 24 25 22 22 24 25 26 24 26 29 29 32 35 37 37 36 40 35 34 33 28 26 25 23
56 54 40 42 37 38 34 36 34 38 40 37 31 27 27 21 19 22 25 25 26 23 21 23 25 25 25 27 28 27 28 30 33 35 38 39 38 37 36 32 28 24 25
48 47 50 51 45 40 37 39 38 37 42 39 38 27 28 28 21 21 25 26 25 24 22 22 26 25 24 25 25 28 31 25 25 21 28 33 40 40 36 32 29 26 26
55 59 54 54 43 43 44 45 43 41 42 45 40 35 29 30 25 24 27 27 26 26 24 24 24 27 24 24 23 29 24 20 21 14 27 33 35 39 35 33 30 29 28
58 57 57 59 56 48 47 49 50 49 42 47 46 39 34 27 28 32 31 30 28 27 27 25 27 27 24 25 23 29 13 13 15 17 22 35 34 39 38 36 34 32 30
61 61 58 56 59 49 53 48 52 54 50 48 50 42 35 31 30 33 30 31 31 28 28 29 28 29 26 25 24 25 19 16 14 18 25 32 36 37 40 39 37 36 33
64 63 62 56 58 59 57 60 60 55 55 50 49 45 37 35 31 34 29 30 34 28 30 31 29 28 30 28 26 25 22 19 17 21 19 33 37 39 39 38 38 39 38
67 67 66 66 61 59 58 60 59 68 64 55 53 49 37 37 31 36 32 31 32 28 32 34 31 28 32 33 28 28 25 21 19 20 18 22 30 40 45 44 43 45 43
67 66 67 67 68 62 60 58 56 61 64 61 50 45 38 39 40 35 35 33 29 32 33 35 33 30 31 34 31 28 27 25 22 21 20 23 29 35 46 44 47 47 46
67 67 67 68 67 67 64 62 60 62 66 58 59 47 40 40 43 37 40 36 35 35 35 34 34 34 33 35 32 30 27 29 28 24 23 22 27 31 38 47 47 44 49
70 71 71 70 68 68 68 67 63 63 65 63 56 60 39 45 47 40 37 40 40 41 37 36 36 35 34 38 37 35 31 28 29 27 25 26 25 31 36 40 45 50 51
78 80 77 77 77 72 72 72 69 68 68 63 58 54 46 49 50 44 40 40 43 42 40 38 37 37 37 38 38 39 35 29 27 30 29 28 29 28 35 36 44 46 47
48 57 72 86 83 77 75 75 73 74 63 68 57 51 51 51 50 44 43 40 45 46 46 44 39 40 39 41 40 39 39 36 30 30 31 34 35 36 33 37 40 41 44
46 47 53 60 77 88 81 79 78 79 54 60 58 52 50 55 55 47 45 47 47 48 47 45 43 40 49 42 42 39 40 39 36 33 36 38 39 40 41 37 42 30 43
40 47 51 52 55 63 81 85 82 80 72 67 58 57 56 57 57 55 48 51 49 47 49 50 49 44 43 41 43 42 41 43 40 38 41 40 40 41 43 42 40 42 41
16 20 28 38 44 45 52 75 82 83 79 74 74 64 66 63 65 59 49 50 48 48 51 52 49 46 46 42 43 43 43 42 41 40 41 43 44 44 42 43 42 44 45
10 10 15 24 31 34 40 47 75 79 79 51 50 63 71 65 64 57 54 51 50 51 52 52 47 47 48 40 46 43 44 44 42 40 42 43 45 45 45 44 44 45 46
8 17 8 10 19 28 36 30 51 67 57 82 51 58 61 64 58 58 56 54 52 53 53 50 53 50 51 48 45 45 46 48 46 42 45 45 47 47 46 47 45 47 48
6 7 3 9 10 10 20 34 41 61 50 65 61 58 58 60 55 56 54 56 58 56 55 58 43 42 49 55 46 43 47 51 50 46 46 45 43 44 43 44 47 45 48
11 4 10 8 8 14 12 23 28 34 41 43 46 49 49 48 57 58 61 59 58 57 56 44 48 50 52 50 46 48 45 52 53 49 49 44 41 41 42 44 44 42 48
16 16 16 23 19 22 19 23 27 32 32 28 37 40 47 46 51 59 69 55 53 65 52 55 58 48 51 52 53 52 50 53 54 52 50 48 44 42 42 40 39 40 44
7 15 22 22 18 24 28 32 30 36 41 37 41 41 47 52 56 52 53 52 52 50 54 60 59 56 56 59 58 57 58 57 56 53 50 52 48 45 44 42 39 39 42

GFSMA_500_spd_126.txt.gz
Wind_Speed
39 37 33 31 29 31 32 32 29 23 20 20 21 26 25 21 24 27 26 25 24 25 20 18 20 19 14 13 16 22 22 22 24 23 22 22 22 23 23 19 22 19 17
49 46 42 34 33 30 29 31 33 29 26 23 21 22 24 24 23 26 26 24 23 24 23 21 20 21 19 17 17 20 20 23 24 22 27 25 25 25 27 23 23 22 20
56 51 49 43 35 33 32 32 30 33 30 24 22 25 22 23 25 26 27 26 24 24 24 22 21 21 21 19 18 22 22 24 27 31 29 30 27 28 29 28 25 23 22
63 53 54 51 40 38 37 34 32 30 32 29 26 26 24 24 28 27 27 27 26 26 26 25 22 22 21 21 22 22 24 27 29 33 33 34 31 34 33 31 29 26 25
56 36 53 57 54 41 40 37 35 33 34 31 30 31 28 24 27 29 28 29 27 26 27 26 25 24 23 21 25 25 27 29 30 32 34 35 35 41 41 36 34 28 27
53 53 57 71 46 54 48 40 37 37 36 34 34 32 32 29 28 28 28 30 29 28 26 27 27 25 24 22 25 25 28 29 27 32 32 34 33 35 42 39 35 30 29
53 51 52 56 67 61 49 36 43 42 40 38 38 35 34 33 33 28 28 29 31 30 27 27 29 25 24 22 25 27 28 26 30 26 25 27 33 32 36 41 35 34 30
56 55 55 56 50 56 46 50 51 45 42 39 41 39 39 36 33 31 28 30 32 34 30 28 29 28 27 21 24 26 27 27 26 28 26 18 25 25 28 42 35 35 32
63 59 57 58 68 60 53 53 47 50 44 44 45 46 44 40 34 34 34 31 31 30 32 31 30 30 29 25 24 25 26 25 21 20 17 14 18 26 30 38 39 38 33
65 63 62 60 62 60 55 55 48 47 48 51 49 48 42 44 40 36 37 33 31 30 28 33 31 32 31 28 27 23 25 23 23 23 19 18 18 25 30 35 38 39 35
67 65 65 64 63 61 58 56 50 58 57 58 57 52 47 47 46 40 38 34 32 30 30 32 32 31 31 32 31 25 23 23 23 22 22 23 22 26 33 35 36 39 40
65 66 67 67 67 65 64 62 59 54 55 61 57 57 58 54 50 48 42 37 34 33 31 30 32 31 31 32 33 30 26 24 24 25 23 23 21 26 29 37 37 40 42
69 68 69 69 70 70 68 65 64 61 58 58 64 57 67 55 52 55 47 38 35 31 34 27 30 32 32 32 34 36 30 26 26 25 26 23 22 23 28 35 41 43 44
70 71 73 72 72 72 71 69 68 68 63 64 50 65 46 60 69 54 44 42 36 30 28 25 28 34 35 35 33 37 35 30 28 27 27 27 24 23 28 35 40 42 49
62 70 71 70 71 72 71 72 70 72 68 68 70 70 60 45 76 52 58 46 43 34 29 26 31 30 33 37 35 38 37 35 32 29 30 33 31 28 27 29 35 39 44
56 59 61 66 68 70 71 72 72 70 70 73 70 70 64 58 55 51 54 44 40 38 33 29 33 33 32 34 38 39 37 39 35 33 30 35 38 34 30 29 28 32 41
49 57 65 68 67 68 71 72 71 71 72 74 70 69 65 60 56 54 57 59 43 42 36 32 35 35 34 36 37 41 39 40 43 37 33 33 40 41 36 33 33 34 34
32 36 40 48 61 74 78 73 73 74 73 71 72 71 69 61 52 56 48 52 46 43 40 37 37 35 37 38 39 41 40 47 46 44 38 34 35 37 36 37 37 38 39
33 37 43 49 53 59 62 79 81 78 76 75 77 76 74 68 67 49 58 52 47 44 42 39 39 37 39 39 42 44 46 43 48 45 42 39 38 39 38 36 38 40 41
16 22 26 32 42 50 52 59 64 74 78 79 77 77 78 69 65 63 49 47 44 42 43 42 41 42 44 44 45 44 43 46 49 47 44 44 43 41 40 37 37 38 40
13 18 17 20 21 30 47 50 51 58 68 78 79 76 72 72 63 67 58 57 52 47 48 49 45 44 46 46 46 45 46 43 50 48 45 46 46 45 40 38 37 38 41
13 19 12 18 23 18 26 41 47 50 53 67 78 75 72 69 67 64 67 62 62 59 57 57 54 50 49 47 49 47 48 50 47 49 45 48 48 47 45 41 39 40 43
13 15 13 12 12 17 21 26 34 37 39 38 61 75 72 69 70 71 72 63 73 77 69 61 57 53 53 51 51 50 48 51 51 51 49 49 48 48 48 47 46 43 42
17 17 11 14 15 9 13 14 21 25 26 27 31 51 68 66 63 69 69 51 60 66 78 63 60 57 59 55 54 50 52 48 49 53 50 47 47 50 51 50 50 49 44
7 10 21 16 9 10 17 5 12 15 27 27 35 46 53 52 61 48 53 48 53 52 48 49 61 56 61 55 54 46 49 55 57 53 53 55 50 49 53 52 51 49 48
24 19 14 8 6 4 8 14 15 13 14 14 16 27 32 44 47 54 56 50 66 48 54 56 52 57 52 51 52 56 56 51 55 57 55 56 58 56 53 53 53 54 52

GFSMA_500_spd_129.txt.gz
Wind_Speed
52 51 48 43 40 37 31 29 28 27 27 29 28 24 21 23 24 24 27 26 24 24 23 21 19 17 15 15 15 18 15 17 20 19 22 23 22 22 22 22 21 20 18
54 58 57 52 46 43 37 33 32 31 30 29 30 27 23 21 25 23 25 25 24 25 25 22 21 19 18 17 17 18 19 17 17 22 23 23 21 23 25 24 25 23 21
54 58 64 63 55 50 47 41 37 35 32 30 30 31 25 24 23 24 23 26 25 25 25 25 24 22 20 20 19 19 19 21 22 23 24 26 27 27 28 29 26 27 23
59 56 58 59 65 62 55 48 43 38 35 34 31 32 29 25 26 26 24 25 27 26 25 26 27 24 23 22 22 21 21 21 23 25 27 30 32 32 32 31 29 30 28
59 51 59 58 61 75 64 57 50 42 39 37 36 36 34 29 27 28 27 25 28 26 28 26 27 28 26 23 24 23 22 22 23 26 29 29 29 34 35 34 33 33 32
62 61 61 57 61 57 68 66 55 45 43 42 41 38 39 34 31 29 28 28 30 26 26 29 29 28 28 25 25 23 22 24 25 26 25 29 31 32 34 37 39 36 35
68 63 62 57 53 52 49 58 58 55 52 48 46 42 40 36 35 32 28 28 31 31 28 29 30 32 30 27 27 24 24 26 26 25 26 27 28 26 31 37 37 38 39
72 71 65 63 59 59 47 43 74 58 60 51 47 46 45 43 39 36 31 28 31 34 33 29 30 31 33 30 30 26 25 25 26 25 24 25 23 28 24 31 35 33 41
76 75 71 68 64 58 57 53 59 45 63 51 53 51 48 46 47 42 34 30 33 35 36 33 29 30 34 34 32 28 27 24 24 27 23 19 22 21 21 25 26 32 36
77 78 76 71 65 62 57 63 58 47 58 59 57 46 50 44 50 46 44 39 36 35 36 35 30 29 35 35 35 32 29 25 23 23 25 22 20 22 24 24 28 29 38
78 80 77 73 68 63 63 60 64 42 56 45 58 48 49 47 52 51 45 43 40 36 36 36 36 33 31 34 34 39 32 27 23 22 24 24 21 23 25 24 23 27 35
70 80 79 75 71 65 64 64 62 61 52 51 46 43 45 49 55 54 53 50 45 41 38 41 42 37 31 34 34 38 38 31 25 24 24 25 23 23 24 22 23 27 34
60 73 79 76 73 70 66 64 63 61 57 57 56 52 51 53 54 63 61 57 54 51 44 44 42 38 32 34 37 37 40 34 29 26 26 25 25 25 24 22 29 27 32
54 61 72 76 72 72 70 67 64 62 61 61 58 58 57 55 51 54 64 57 68 54 51 46 43 37 33 32 37 39 43 35 32 30 29 29 27 25 27 25 24 28 29
44 49 61 69 72 71 71 70 68 66 65 63 64 63 61 61 58 58 54 51 62 65 49 43 38 35 35 35 34 37 40 39 34 33 32 31 31 29 29 30 28 27 33
39 40 45 58 67 70 70 71 70 68 66 67 66 67 67 64 68 70 67 56 51 40 57 46 44 37 38 38 36 34 34 38 37 37 36 34 32 33 33 33 33 32 31
38 37 37 43 51 59 65 70 73 71 70 70 70 70 70 70 68 64 62 50 54 49 48 52 45 42 41 38 35 35 33 36 35 39 38 38 37 35 36 35 38 35 33
20 25 31 39 45 50 56 60 63 70 75 76 73 71 72 71 70 68 63 59 54 52 49 50 51 47 45 41 39 37 34 37 35 39 41 39 41 41 38 39 37 41 40
17 20 24 27 31 38 44 52 62 70 70 69 73 74 72 72 71 69 68 64 59 52 57 54 61 53 45 44 40 39 36 35 36 37 41 44 44 43 41 40 39 41 44
14 18 18 20 25 29 35 47 54 57 60 71 74 72 72 72 71 70 67 66 60 59 49 39 54 48 50 47 43 39 38 37 40 40 41 46 48 44 46 42 42 42 44
5 11 14 19 27 30 31 28 39 52 57 58 60 69 75 70 70 73 70 70 62 57 58 56 42 55 51 47 43 40 38 40 41 42 42 44 46 43 49 46 45 42 43
9 11 17 17 15 19 18 21 24 33 48 52 55 58 60 72 72 73 72 69 57 55 56 58 57 56 51 50 46 44 42 42 40 43 41 45 45 43 49 53 48 44 44
9 11 16 10 23 13 15 16 19 22 33 43 44 46 49 53 66 70 68 65 60 57 58 59 62 62 55 52 52 53 50 47 46 46 43 46 51 54 51 52 51 48 46
8 11 12 12 11 7 11 17 16 18 24 32 41 43 40 44 48 53 63 63 66 63 60 62 61 68 67 69 65 65 56 57 51 47 47 44 48 51 53 53 53 52 51
26 23 21 14 9 5 4 6 9 12 15 19 28 30 33 36 37 39 47 45 50 51 57 51 68 53 62 62 66 63 54 56 55 54 53 51 55 53 51 53 55 54 52
23 24 25 25 26 27 28 24 8 1 11 13 21 23 31 26 22 34 43 39 44 41 56 64 62 61 60 67 58 65 64 67 59 57 53 54 53 52 55 56 56 60 58